<?xml version="1.0" encoding="UTF-8" standalone="no" ?>
<gpx xmlns="http://www.topografix.com/GPX/1/1" xmlns:xsi="http://www.w3.org/2001/XMLSchema-instance" xsi:schemaLocation="http://www.topografix.com/GPX/1/1 http://www.topografix.com/GPX/1/1/gpx.xsd" version="1.1" creator="VisuGPX - https://www.visugpx.com">
  <metadata>
    <name>BEARN</name>
    <desc><![CDATA[Eysus Asasp Issor Escot]]></desc>
  </metadata>
  <trk>
    <name><![CDATA[BOUCLE LAZERQUE]]></name>
    <trkseg>
      <trkpt lat="43.09999" lon="-0.4432">
        <ele>410.14</ele>
        <time>2015-08-29T06:01:28Z</time>
      </trkpt>
      <trkpt lat="43.09999" lon="-0.44328">
        <ele>409.66</ele>
        <time>2015-08-29T06:01:29Z</time>
      </trkpt>
      <trkpt lat="43.09999" lon="-0.44336">
        <ele>409.66</ele>
        <time>2015-08-29T06:01:30Z</time>
      </trkpt>
      <trkpt lat="43.1" lon="-0.44343">
        <ele>409.66</ele>
        <time>2015-08-29T06:01:31Z</time>
      </trkpt>
      <trkpt lat="43.10002" lon="-0.4435">
        <ele>409.66</ele>
        <time>2015-08-29T06:01:32Z</time>
      </trkpt>
      <trkpt lat="43.10004" lon="-0.44357">
        <ele>409.66</ele>
        <time>2015-08-29T06:01:33Z</time>
      </trkpt>
      <trkpt lat="43.10029" lon="-0.4444">
        <ele>408.7</ele>
        <time>2015-08-29T06:01:46Z</time>
      </trkpt>
      <trkpt lat="43.10035" lon="-0.44452">
        <ele>408.7</ele>
        <time>2015-08-29T06:01:48Z</time>
      </trkpt>
      <trkpt lat="43.10038" lon="-0.44458">
        <ele>409.18</ele>
        <time>2015-08-29T06:01:49Z</time>
      </trkpt>
      <trkpt lat="43.1004" lon="-0.44464">
        <ele>409.18</ele>
        <time>2015-08-29T06:01:50Z</time>
      </trkpt>
      <trkpt lat="43.10042" lon="-0.4447">
        <ele>409.18</ele>
        <time>2015-08-29T06:01:51Z</time>
      </trkpt>
      <trkpt lat="43.10043" lon="-0.44476">
        <ele>409.18</ele>
        <time>2015-08-29T06:01:52Z</time>
      </trkpt>
      <trkpt lat="43.10051" lon="-0.44557">
        <ele>408.7</ele>
        <time>2015-08-29T06:02:05Z</time>
      </trkpt>
      <trkpt lat="43.1005" lon="-0.44582">
        <ele>409.18</ele>
        <time>2015-08-29T06:02:09Z</time>
      </trkpt>
      <trkpt lat="43.10034" lon="-0.44657">
        <ele>408.7</ele>
        <time>2015-08-29T06:02:21Z</time>
      </trkpt>
      <trkpt lat="43.10031" lon="-0.44662">
        <ele>408.7</ele>
        <time>2015-08-29T06:02:22Z</time>
      </trkpt>
      <trkpt lat="43.09999" lon="-0.44739">
        <ele>410.62</ele>
        <time>2015-08-29T06:02:36Z</time>
      </trkpt>
      <trkpt lat="43.09968" lon="-0.44817">
        <ele>414.47</ele>
        <time>2015-08-29T06:02:52Z</time>
      </trkpt>
      <trkpt lat="43.09959" lon="-0.44898">
        <ele>413.02</ele>
        <time>2015-08-29T06:03:06Z</time>
      </trkpt>
      <trkpt lat="43.09937" lon="-0.44993">
        <ele>413.02</ele>
        <time>2015-08-29T06:03:22Z</time>
      </trkpt>
      <trkpt lat="43.09929" lon="-0.45026">
        <ele>413.98</ele>
        <time>2015-08-29T06:03:28Z</time>
      </trkpt>
      <trkpt lat="43.09928" lon="-0.45032">
        <ele>413.98</ele>
        <time>2015-08-29T06:03:29Z</time>
      </trkpt>
      <trkpt lat="43.09927" lon="-0.45038">
        <ele>414.47</ele>
        <time>2015-08-29T06:03:30Z</time>
      </trkpt>
      <trkpt lat="43.09927" lon="-0.45044">
        <ele>414.47</ele>
        <time>2015-08-29T06:03:31Z</time>
      </trkpt>
      <trkpt lat="43.09928" lon="-0.45049">
        <ele>414.95</ele>
        <time>2015-08-29T06:03:32Z</time>
      </trkpt>
      <trkpt lat="43.0995" lon="-0.45109">
        <ele>415.91</ele>
        <time>2015-08-29T06:03:45Z</time>
      </trkpt>
      <trkpt lat="43.09977" lon="-0.45124">
        <ele>416.87</ele>
        <time>2015-08-29T06:03:52Z</time>
      </trkpt>
      <trkpt lat="43.09981" lon="-0.45127">
        <ele>417.35</ele>
        <time>2015-08-29T06:03:53Z</time>
      </trkpt>
      <trkpt lat="43.10024" lon="-0.45171">
        <ele>421.19</ele>
        <time>2015-08-29T06:04:07Z</time>
      </trkpt>
      <trkpt lat="43.10054" lon="-0.45189">
        <ele>426</ele>
        <time>2015-08-29T06:04:18Z</time>
      </trkpt>
      <trkpt lat="43.10065" lon="-0.45205">
        <ele>429.85</ele>
        <time>2015-08-29T06:04:26Z</time>
      </trkpt>
      <trkpt lat="43.10065" lon="-0.45209">
        <ele>429.85</ele>
        <time>2015-08-29T06:04:27Z</time>
      </trkpt>
      <trkpt lat="43.10066" lon="-0.45212">
        <ele>430.33</ele>
        <time>2015-08-29T06:04:28Z</time>
      </trkpt>
      <trkpt lat="43.10067" lon="-0.45214">
        <ele>430.81</ele>
        <time>2015-08-29T06:04:29Z</time>
      </trkpt>
      <trkpt lat="43.10068" lon="-0.45217">
        <ele>431.29</ele>
        <time>2015-08-29T06:04:30Z</time>
      </trkpt>
      <trkpt lat="43.10071" lon="-0.4523">
        <ele>433.69</ele>
        <time>2015-08-29T06:04:36Z</time>
      </trkpt>
      <trkpt lat="43.10071" lon="-0.45232">
        <ele>434.65</ele>
        <time>2015-08-29T06:04:37Z</time>
      </trkpt>
      <trkpt lat="43.1007" lon="-0.45235">
        <ele>435.61</ele>
        <time>2015-08-29T06:04:38Z</time>
      </trkpt>
      <trkpt lat="43.10069" lon="-0.45239">
        <ele>436.1</ele>
        <time>2015-08-29T06:04:39Z</time>
      </trkpt>
      <trkpt lat="43.10069" lon="-0.45242">
        <ele>436.58</ele>
        <time>2015-08-29T06:04:40Z</time>
      </trkpt>
      <trkpt lat="43.10066" lon="-0.4526">
        <ele>438.02</ele>
        <time>2015-08-29T06:04:46Z</time>
      </trkpt>
      <trkpt lat="43.10066" lon="-0.45263">
        <ele>438.5</ele>
        <time>2015-08-29T06:04:47Z</time>
      </trkpt>
      <trkpt lat="43.10066" lon="-0.45266">
        <ele>438.5</ele>
        <time>2015-08-29T06:04:48Z</time>
      </trkpt>
      <trkpt lat="43.1007" lon="-0.45298">
        <ele>442.82</ele>
        <time>2015-08-29T06:05:01Z</time>
      </trkpt>
      <trkpt lat="43.10093" lon="-0.45328">
        <ele>442.34</ele>
        <time>2015-08-29T06:05:14Z</time>
      </trkpt>
      <trkpt lat="43.10095" lon="-0.4533">
        <ele>442.34</ele>
        <time>2015-08-29T06:05:15Z</time>
      </trkpt>
      <trkpt lat="43.10126" lon="-0.45343">
        <ele>442.34</ele>
        <time>2015-08-29T06:05:25Z</time>
      </trkpt>
      <trkpt lat="43.10165" lon="-0.45387">
        <ele>442.82</ele>
        <time>2015-08-29T06:05:37Z</time>
      </trkpt>
      <trkpt lat="43.10166" lon="-0.45394">
        <ele>442.82</ele>
        <time>2015-08-29T06:05:38Z</time>
      </trkpt>
      <trkpt lat="43.10178" lon="-0.45418">
        <ele>442.82</ele>
        <time>2015-08-29T06:05:44Z</time>
      </trkpt>
      <trkpt lat="43.10174" lon="-0.45432">
        <ele>442.82</ele>
        <time>2015-08-29T06:05:52Z</time>
      </trkpt>
      <trkpt lat="43.10164" lon="-0.45435">
        <ele>443.79</ele>
        <time>2015-08-29T06:06:04Z</time>
      </trkpt>
      <trkpt lat="43.1016" lon="-0.4544">
        <ele>444.75</ele>
        <time>2015-08-29T06:06:24Z</time>
      </trkpt>
      <trkpt lat="43.10162" lon="-0.45435">
        <ele>445.23</ele>
        <time>2015-08-29T06:06:30Z</time>
      </trkpt>
      <trkpt lat="43.10162" lon="-0.45433">
        <ele>445.71</ele>
        <time>2015-08-29T06:06:31Z</time>
      </trkpt>
      <trkpt lat="43.10163" lon="-0.45431">
        <ele>445.71</ele>
        <time>2015-08-29T06:06:32Z</time>
      </trkpt>
      <trkpt lat="43.10198" lon="-0.45399">
        <ele>449.55</ele>
        <time>2015-08-29T06:06:47Z</time>
      </trkpt>
      <trkpt lat="43.10223" lon="-0.45371">
        <ele>451.96</ele>
        <time>2015-08-29T06:06:57Z</time>
      </trkpt>
      <trkpt lat="43.10257" lon="-0.4536">
        <ele>455.32</ele>
        <time>2015-08-29T06:07:09Z</time>
      </trkpt>
      <trkpt lat="43.10273" lon="-0.45346">
        <ele>457.72</ele>
        <time>2015-08-29T06:07:21Z</time>
      </trkpt>
      <trkpt lat="43.10277" lon="-0.45338">
        <ele>457.24</ele>
        <time>2015-08-29T06:07:27Z</time>
      </trkpt>
      <trkpt lat="43.1028" lon="-0.45339">
        <ele>453.4</ele>
        <time>2015-08-29T06:07:40Z</time>
      </trkpt>
      <trkpt lat="43.1028" lon="-0.45339">
        <ele>451.48</ele>
        <time>2015-08-29T06:07:47Z</time>
      </trkpt>
      <trkpt lat="43.10282" lon="-0.45334">
        <ele>451</ele>
        <time>2015-08-29T06:07:50Z</time>
      </trkpt>
      <trkpt lat="43.10294" lon="-0.45307">
        <ele>447.63</ele>
        <time>2015-08-29T06:08:00Z</time>
      </trkpt>
      <trkpt lat="43.10318" lon="-0.45298">
        <ele>448.11</ele>
        <time>2015-08-29T06:08:07Z</time>
      </trkpt>
      <trkpt lat="43.10338" lon="-0.45285">
        <ele>448.11</ele>
        <time>2015-08-29T06:08:09Z</time>
      </trkpt>
      <trkpt lat="43.10351" lon="-0.45273">
        <ele>448.11</ele>
        <time>2015-08-29T06:08:10Z</time>
      </trkpt>
      <trkpt lat="43.10358" lon="-0.45265">
        <ele>448.11</ele>
        <time>2015-08-29T06:08:11Z</time>
      </trkpt>
      <trkpt lat="43.10366" lon="-0.45255">
        <ele>448.59</ele>
        <time>2015-08-29T06:08:12Z</time>
      </trkpt>
      <trkpt lat="43.10371" lon="-0.45245">
        <ele>448.59</ele>
        <time>2015-08-29T06:08:13Z</time>
      </trkpt>
      <trkpt lat="43.10376" lon="-0.45234">
        <ele>448.59</ele>
        <time>2015-08-29T06:08:14Z</time>
      </trkpt>
      <trkpt lat="43.10381" lon="-0.45225">
        <ele>448.11</ele>
        <time>2015-08-29T06:08:15Z</time>
      </trkpt>
      <trkpt lat="43.10384" lon="-0.45219">
        <ele>448.11</ele>
        <time>2015-08-29T06:08:16Z</time>
      </trkpt>
      <trkpt lat="43.10389" lon="-0.45213">
        <ele>448.11</ele>
        <time>2015-08-29T06:08:17Z</time>
      </trkpt>
      <trkpt lat="43.10395" lon="-0.45208">
        <ele>448.11</ele>
        <time>2015-08-29T06:08:18Z</time>
      </trkpt>
      <trkpt lat="43.10401" lon="-0.45206">
        <ele>448.11</ele>
        <time>2015-08-29T06:08:19Z</time>
      </trkpt>
      <trkpt lat="43.10408" lon="-0.45207">
        <ele>448.11</ele>
        <time>2015-08-29T06:08:20Z</time>
      </trkpt>
      <trkpt lat="43.10414" lon="-0.45209">
        <ele>448.11</ele>
        <time>2015-08-29T06:08:21Z</time>
      </trkpt>
      <trkpt lat="43.10419" lon="-0.45213">
        <ele>448.11</ele>
        <time>2015-08-29T06:08:22Z</time>
      </trkpt>
      <trkpt lat="43.10426" lon="-0.45217">
        <ele>448.11</ele>
        <time>2015-08-29T06:08:23Z</time>
      </trkpt>
      <trkpt lat="43.10434" lon="-0.45221">
        <ele>448.11</ele>
        <time>2015-08-29T06:08:24Z</time>
      </trkpt>
      <trkpt lat="43.10443" lon="-0.45224">
        <ele>447.63</ele>
        <time>2015-08-29T06:08:25Z</time>
      </trkpt>
      <trkpt lat="43.10454" lon="-0.45226">
        <ele>447.15</ele>
        <time>2015-08-29T06:08:26Z</time>
      </trkpt>
      <trkpt lat="43.10529" lon="-0.45249">
        <ele>442.82</ele>
        <time>2015-08-29T06:08:32Z</time>
      </trkpt>
      <trkpt lat="43.10562" lon="-0.45268">
        <ele>440.42</ele>
        <time>2015-08-29T06:08:35Z</time>
      </trkpt>
      <trkpt lat="43.1058" lon="-0.45283">
        <ele>438.5</ele>
        <time>2015-08-29T06:08:37Z</time>
      </trkpt>
      <trkpt lat="43.10608" lon="-0.45325">
        <ele>433.21</ele>
        <time>2015-08-29T06:08:42Z</time>
      </trkpt>
      <trkpt lat="43.10629" lon="-0.45355">
        <ele>429.85</ele>
        <time>2015-08-29T06:08:48Z</time>
      </trkpt>
      <trkpt lat="43.10646" lon="-0.45368">
        <ele>426.48</ele>
        <time>2015-08-29T06:08:53Z</time>
      </trkpt>
      <trkpt lat="43.10661" lon="-0.45388">
        <ele>423.12</ele>
        <time>2015-08-29T06:08:58Z</time>
      </trkpt>
      <trkpt lat="43.10697" lon="-0.45434">
        <ele>415.91</ele>
        <time>2015-08-29T06:09:09Z</time>
      </trkpt>
      <trkpt lat="43.10702" lon="-0.45438">
        <ele>415.43</ele>
        <time>2015-08-29T06:09:10Z</time>
      </trkpt>
      <trkpt lat="43.10706" lon="-0.4544">
        <ele>414.95</ele>
        <time>2015-08-29T06:09:11Z</time>
      </trkpt>
      <trkpt lat="43.10717" lon="-0.45444">
        <ele>413.02</ele>
        <time>2015-08-29T06:09:17Z</time>
      </trkpt>
      <trkpt lat="43.10725" lon="-0.4544">
        <ele>412.54</ele>
        <time>2015-08-29T06:09:30Z</time>
      </trkpt>
      <trkpt lat="43.10735" lon="-0.45442">
        <ele>411.58</ele>
        <time>2015-08-29T06:09:43Z</time>
      </trkpt>
      <trkpt lat="43.10739" lon="-0.45438">
        <ele>412.54</ele>
        <time>2015-08-29T06:09:51Z</time>
      </trkpt>
      <trkpt lat="43.10743" lon="-0.45435">
        <ele>413.5</ele>
        <time>2015-08-29T06:10:03Z</time>
      </trkpt>
      <trkpt lat="43.10744" lon="-0.45433">
        <ele>413.02</ele>
        <time>2015-08-29T06:10:09Z</time>
      </trkpt>
      <trkpt lat="43.10743" lon="-0.45434">
        <ele>412.06</ele>
        <time>2015-08-29T06:10:21Z</time>
      </trkpt>
      <trkpt lat="43.10743" lon="-0.45435">
        <ele>412.54</ele>
        <time>2015-08-29T06:10:29Z</time>
      </trkpt>
      <trkpt lat="43.10762" lon="-0.45429">
        <ele>415.43</ele>
        <time>2015-08-29T06:10:41Z</time>
      </trkpt>
      <trkpt lat="43.10784" lon="-0.45405">
        <ele>419.27</ele>
        <time>2015-08-29T06:10:54Z</time>
      </trkpt>
      <trkpt lat="43.10802" lon="-0.45374">
        <ele>419.27</ele>
        <time>2015-08-29T06:11:04Z</time>
      </trkpt>
      <trkpt lat="43.10818" lon="-0.45349">
        <ele>419.27</ele>
        <time>2015-08-29T06:11:12Z</time>
      </trkpt>
      <trkpt lat="43.10845" lon="-0.45313">
        <ele>419.75</ele>
        <time>2015-08-29T06:11:24Z</time>
      </trkpt>
      <trkpt lat="43.10873" lon="-0.45287">
        <ele>420.71</ele>
        <time>2015-08-29T06:11:33Z</time>
      </trkpt>
      <trkpt lat="43.10887" lon="-0.45305">
        <ele>421.19</ele>
        <time>2015-08-29T06:11:39Z</time>
      </trkpt>
      <trkpt lat="43.1088" lon="-0.45327">
        <ele>421.19</ele>
        <time>2015-08-29T06:11:44Z</time>
      </trkpt>
      <trkpt lat="43.10878" lon="-0.45333">
        <ele>421.19</ele>
        <time>2015-08-29T06:11:45Z</time>
      </trkpt>
      <trkpt lat="43.10868" lon="-0.45365">
        <ele>419.27</ele>
        <time>2015-08-29T06:11:51Z</time>
      </trkpt>
      <trkpt lat="43.1086" lon="-0.45391">
        <ele>417.35</ele>
        <time>2015-08-29T06:11:55Z</time>
      </trkpt>
      <trkpt lat="43.10859" lon="-0.45398">
        <ele>416.87</ele>
        <time>2015-08-29T06:11:56Z</time>
      </trkpt>
      <trkpt lat="43.10841" lon="-0.45456">
        <ele>414.47</ele>
        <time>2015-08-29T06:12:04Z</time>
      </trkpt>
      <trkpt lat="43.10833" lon="-0.45483">
        <ele>413.5</ele>
        <time>2015-08-29T06:12:08Z</time>
      </trkpt>
      <trkpt lat="43.10824" lon="-0.45517">
        <ele>412.54</ele>
        <time>2015-08-29T06:12:14Z</time>
      </trkpt>
      <trkpt lat="43.10822" lon="-0.45522">
        <ele>412.54</ele>
        <time>2015-08-29T06:12:15Z</time>
      </trkpt>
      <trkpt lat="43.1082" lon="-0.45526">
        <ele>412.06</ele>
        <time>2015-08-29T06:12:16Z</time>
      </trkpt>
      <trkpt lat="43.10817" lon="-0.4553">
        <ele>412.06</ele>
        <time>2015-08-29T06:12:17Z</time>
      </trkpt>
      <trkpt lat="43.10813" lon="-0.45533">
        <ele>411.58</ele>
        <time>2015-08-29T06:12:18Z</time>
      </trkpt>
      <trkpt lat="43.1081" lon="-0.45536">
        <ele>411.58</ele>
        <time>2015-08-29T06:12:19Z</time>
      </trkpt>
      <trkpt lat="43.10807" lon="-0.45538">
        <ele>411.58</ele>
        <time>2015-08-29T06:12:20Z</time>
      </trkpt>
      <trkpt lat="43.10804" lon="-0.4554">
        <ele>411.1</ele>
        <time>2015-08-29T06:12:21Z</time>
      </trkpt>
      <trkpt lat="43.10801" lon="-0.45541">
        <ele>411.58</ele>
        <time>2015-08-29T06:12:22Z</time>
      </trkpt>
      <trkpt lat="43.10799" lon="-0.45542">
        <ele>411.58</ele>
        <time>2015-08-29T06:12:23Z</time>
      </trkpt>
      <trkpt lat="43.10798" lon="-0.45543">
        <ele>411.58</ele>
        <time>2015-08-29T06:12:24Z</time>
      </trkpt>
      <trkpt lat="43.10796" lon="-0.45543">
        <ele>412.06</ele>
        <time>2015-08-29T06:12:25Z</time>
      </trkpt>
      <trkpt lat="43.10795" lon="-0.45544">
        <ele>412.54</ele>
        <time>2015-08-29T06:12:26Z</time>
      </trkpt>
      <trkpt lat="43.10792" lon="-0.45546">
        <ele>413.02</ele>
        <time>2015-08-29T06:12:27Z</time>
      </trkpt>
      <trkpt lat="43.1079" lon="-0.45547">
        <ele>413.02</ele>
        <time>2015-08-29T06:12:28Z</time>
      </trkpt>
      <trkpt lat="43.1076" lon="-0.45565">
        <ele>416.87</ele>
        <time>2015-08-29T06:12:41Z</time>
      </trkpt>
      <trkpt lat="43.10733" lon="-0.45574">
        <ele>422.16</ele>
        <time>2015-08-29T06:12:54Z</time>
      </trkpt>
      <trkpt lat="43.10704" lon="-0.45602">
        <ele>422.16</ele>
        <time>2015-08-29T06:13:05Z</time>
      </trkpt>
      <trkpt lat="43.10702" lon="-0.45607">
        <ele>421.68</ele>
        <time>2015-08-29T06:13:06Z</time>
      </trkpt>
      <trkpt lat="43.10701" lon="-0.45612">
        <ele>421.19</ele>
        <time>2015-08-29T06:13:07Z</time>
      </trkpt>
      <trkpt lat="43.107" lon="-0.45617">
        <ele>420.71</ele>
        <time>2015-08-29T06:13:08Z</time>
      </trkpt>
      <trkpt lat="43.10683" lon="-0.45708">
        <ele>413.02</ele>
        <time>2015-08-29T06:13:22Z</time>
      </trkpt>
      <trkpt lat="43.10667" lon="-0.45791">
        <ele>409.66</ele>
        <time>2015-08-29T06:13:34Z</time>
      </trkpt>
      <trkpt lat="43.10666" lon="-0.45796">
        <ele>409.18</ele>
        <time>2015-08-29T06:13:35Z</time>
      </trkpt>
      <trkpt lat="43.10665" lon="-0.45801">
        <ele>409.18</ele>
        <time>2015-08-29T06:13:36Z</time>
      </trkpt>
      <trkpt lat="43.10664" lon="-0.45861">
        <ele>408.22</ele>
        <time>2015-08-29T06:13:50Z</time>
      </trkpt>
      <trkpt lat="43.10686" lon="-0.45895">
        <ele>411.1</ele>
        <time>2015-08-29T06:14:03Z</time>
      </trkpt>
      <trkpt lat="43.10702" lon="-0.45928">
        <ele>415.91</ele>
        <time>2015-08-29T06:14:16Z</time>
      </trkpt>
      <trkpt lat="43.10707" lon="-0.45939">
        <ele>416.39</ele>
        <time>2015-08-29T06:14:20Z</time>
      </trkpt>
      <trkpt lat="43.10709" lon="-0.45941">
        <ele>416.87</ele>
        <time>2015-08-29T06:14:21Z</time>
      </trkpt>
      <trkpt lat="43.1071" lon="-0.45943">
        <ele>416.87</ele>
        <time>2015-08-29T06:14:22Z</time>
      </trkpt>
      <trkpt lat="43.10711" lon="-0.45946">
        <ele>416.87</ele>
        <time>2015-08-29T06:14:23Z</time>
      </trkpt>
      <trkpt lat="43.10711" lon="-0.4595">
        <ele>417.35</ele>
        <time>2015-08-29T06:14:24Z</time>
      </trkpt>
      <trkpt lat="43.10712" lon="-0.45953">
        <ele>417.83</ele>
        <time>2015-08-29T06:14:25Z</time>
      </trkpt>
      <trkpt lat="43.10713" lon="-0.45956">
        <ele>417.35</ele>
        <time>2015-08-29T06:14:26Z</time>
      </trkpt>
      <trkpt lat="43.10713" lon="-0.45959">
        <ele>417.83</ele>
        <time>2015-08-29T06:14:27Z</time>
      </trkpt>
      <trkpt lat="43.10713" lon="-0.45962">
        <ele>417.83</ele>
        <time>2015-08-29T06:14:28Z</time>
      </trkpt>
      <trkpt lat="43.10713" lon="-0.45965">
        <ele>418.31</ele>
        <time>2015-08-29T06:14:29Z</time>
      </trkpt>
      <trkpt lat="43.10727" lon="-0.46014">
        <ele>426</ele>
        <time>2015-08-29T06:14:46Z</time>
      </trkpt>
      <trkpt lat="43.1074" lon="-0.46043">
        <ele>430.81</ele>
        <time>2015-08-29T06:14:59Z</time>
      </trkpt>
      <trkpt lat="43.10754" lon="-0.46061">
        <ele>433.69</ele>
        <time>2015-08-29T06:15:10Z</time>
      </trkpt>
      <trkpt lat="43.10756" lon="-0.46062">
        <ele>433.69</ele>
        <time>2015-08-29T06:15:11Z</time>
      </trkpt>
      <trkpt lat="43.10758" lon="-0.46063">
        <ele>433.69</ele>
        <time>2015-08-29T06:15:12Z</time>
      </trkpt>
      <trkpt lat="43.10759" lon="-0.46064">
        <ele>434.17</ele>
        <time>2015-08-29T06:15:13Z</time>
      </trkpt>
      <trkpt lat="43.1076" lon="-0.46066">
        <ele>434.17</ele>
        <time>2015-08-29T06:15:14Z</time>
      </trkpt>
      <trkpt lat="43.10762" lon="-0.46067">
        <ele>434.65</ele>
        <time>2015-08-29T06:15:15Z</time>
      </trkpt>
      <trkpt lat="43.1078" lon="-0.46076">
        <ele>437.06</ele>
        <time>2015-08-29T06:15:25Z</time>
      </trkpt>
      <trkpt lat="43.10789" lon="-0.46096">
        <ele>439.46</ele>
        <time>2015-08-29T06:15:34Z</time>
      </trkpt>
      <trkpt lat="43.1079" lon="-0.46098">
        <ele>439.46</ele>
        <time>2015-08-29T06:15:35Z</time>
      </trkpt>
      <trkpt lat="43.10789" lon="-0.46101">
        <ele>439.46</ele>
        <time>2015-08-29T06:15:36Z</time>
      </trkpt>
      <trkpt lat="43.10789" lon="-0.46103">
        <ele>439.46</ele>
        <time>2015-08-29T06:15:37Z</time>
      </trkpt>
      <trkpt lat="43.10789" lon="-0.46106">
        <ele>439.94</ele>
        <time>2015-08-29T06:15:38Z</time>
      </trkpt>
      <trkpt lat="43.10789" lon="-0.46109">
        <ele>440.42</ele>
        <time>2015-08-29T06:15:39Z</time>
      </trkpt>
      <trkpt lat="43.10788" lon="-0.46111">
        <ele>440.42</ele>
        <time>2015-08-29T06:15:40Z</time>
      </trkpt>
      <trkpt lat="43.10787" lon="-0.46114">
        <ele>440.9</ele>
        <time>2015-08-29T06:15:41Z</time>
      </trkpt>
      <trkpt lat="43.10787" lon="-0.46117">
        <ele>441.38</ele>
        <time>2015-08-29T06:15:42Z</time>
      </trkpt>
      <trkpt lat="43.10786" lon="-0.46119">
        <ele>441.38</ele>
        <time>2015-08-29T06:15:43Z</time>
      </trkpt>
      <trkpt lat="43.10786" lon="-0.46122">
        <ele>441.38</ele>
        <time>2015-08-29T06:15:44Z</time>
      </trkpt>
      <trkpt lat="43.10786" lon="-0.46124">
        <ele>441.86</ele>
        <time>2015-08-29T06:15:45Z</time>
      </trkpt>
      <trkpt lat="43.10788" lon="-0.46134">
        <ele>442.82</ele>
        <time>2015-08-29T06:15:49Z</time>
      </trkpt>
      <trkpt lat="43.10789" lon="-0.46136">
        <ele>442.82</ele>
        <time>2015-08-29T06:15:50Z</time>
      </trkpt>
      <trkpt lat="43.1079" lon="-0.46139">
        <ele>443.31</ele>
        <time>2015-08-29T06:15:51Z</time>
      </trkpt>
      <trkpt lat="43.10791" lon="-0.46141">
        <ele>443.79</ele>
        <time>2015-08-29T06:15:52Z</time>
      </trkpt>
      <trkpt lat="43.10792" lon="-0.46144">
        <ele>444.27</ele>
        <time>2015-08-29T06:15:53Z</time>
      </trkpt>
      <trkpt lat="43.10792" lon="-0.46147">
        <ele>444.27</ele>
        <time>2015-08-29T06:15:54Z</time>
      </trkpt>
      <trkpt lat="43.10792" lon="-0.46149">
        <ele>444.75</ele>
        <time>2015-08-29T06:15:55Z</time>
      </trkpt>
      <trkpt lat="43.10793" lon="-0.46152">
        <ele>444.75</ele>
        <time>2015-08-29T06:15:56Z</time>
      </trkpt>
      <trkpt lat="43.10794" lon="-0.46155">
        <ele>444.75</ele>
        <time>2015-08-29T06:15:57Z</time>
      </trkpt>
      <trkpt lat="43.10795" lon="-0.46157">
        <ele>445.23</ele>
        <time>2015-08-29T06:15:58Z</time>
      </trkpt>
      <trkpt lat="43.10805" lon="-0.46185">
        <ele>448.11</ele>
        <time>2015-08-29T06:16:10Z</time>
      </trkpt>
      <trkpt lat="43.10809" lon="-0.462">
        <ele>449.55</ele>
        <time>2015-08-29T06:16:17Z</time>
      </trkpt>
      <trkpt lat="43.10809" lon="-0.46202">
        <ele>449.55</ele>
        <time>2015-08-29T06:16:18Z</time>
      </trkpt>
      <trkpt lat="43.10809" lon="-0.46206">
        <ele>449.55</ele>
        <time>2015-08-29T06:16:19Z</time>
      </trkpt>
      <trkpt lat="43.10815" lon="-0.46244">
        <ele>449.07</ele>
        <time>2015-08-29T06:16:33Z</time>
      </trkpt>
      <trkpt lat="43.10828" lon="-0.46273">
        <ele>452.44</ele>
        <time>2015-08-29T06:16:46Z</time>
      </trkpt>
      <trkpt lat="43.10835" lon="-0.4628">
        <ele>453.4</ele>
        <time>2015-08-29T06:16:50Z</time>
      </trkpt>
      <trkpt lat="43.10839" lon="-0.46288">
        <ele>454.84</ele>
        <time>2015-08-29T06:16:54Z</time>
      </trkpt>
      <trkpt lat="43.1085" lon="-0.46303">
        <ele>454.36</ele>
        <time>2015-08-29T06:17:03Z</time>
      </trkpt>
      <trkpt lat="43.1085" lon="-0.46307">
        <ele>454.36</ele>
        <time>2015-08-29T06:17:04Z</time>
      </trkpt>
      <trkpt lat="43.10857" lon="-0.46336">
        <ele>457.72</ele>
        <time>2015-08-29T06:17:15Z</time>
      </trkpt>
      <trkpt lat="43.10858" lon="-0.46338">
        <ele>457.72</ele>
        <time>2015-08-29T06:17:16Z</time>
      </trkpt>
      <trkpt lat="43.10859" lon="-0.46341">
        <ele>457.72</ele>
        <time>2015-08-29T06:17:17Z</time>
      </trkpt>
      <trkpt lat="43.1086" lon="-0.46343">
        <ele>457.72</ele>
        <time>2015-08-29T06:17:18Z</time>
      </trkpt>
      <trkpt lat="43.10861" lon="-0.46346">
        <ele>458.21</ele>
        <time>2015-08-29T06:17:19Z</time>
      </trkpt>
      <trkpt lat="43.1086" lon="-0.46349">
        <ele>458.21</ele>
        <time>2015-08-29T06:17:20Z</time>
      </trkpt>
      <trkpt lat="43.1086" lon="-0.46352">
        <ele>458.21</ele>
        <time>2015-08-29T06:17:21Z</time>
      </trkpt>
      <trkpt lat="43.10853" lon="-0.46378">
        <ele>460.13</ele>
        <time>2015-08-29T06:17:31Z</time>
      </trkpt>
      <trkpt lat="43.10854" lon="-0.46388">
        <ele>461.09</ele>
        <time>2015-08-29T06:17:35Z</time>
      </trkpt>
      <trkpt lat="43.10855" lon="-0.46389">
        <ele>461.57</ele>
        <time>2015-08-29T06:17:36Z</time>
      </trkpt>
      <trkpt lat="43.10872" lon="-0.46409">
        <ele>466.38</ele>
        <time>2015-08-29T06:17:48Z</time>
      </trkpt>
      <trkpt lat="43.10892" lon="-0.4642">
        <ele>472.14</ele>
        <time>2015-08-29T06:18:00Z</time>
      </trkpt>
      <trkpt lat="43.10911" lon="-0.46443">
        <ele>475.99</ele>
        <time>2015-08-29T06:18:12Z</time>
      </trkpt>
      <trkpt lat="43.10913" lon="-0.46449">
        <ele>475.99</ele>
        <time>2015-08-29T06:18:14Z</time>
      </trkpt>
      <trkpt lat="43.10913" lon="-0.46452">
        <ele>476.47</ele>
        <time>2015-08-29T06:18:15Z</time>
      </trkpt>
      <trkpt lat="43.10908" lon="-0.46492">
        <ele>478.39</ele>
        <time>2015-08-29T06:18:29Z</time>
      </trkpt>
      <trkpt lat="43.1089" lon="-0.4652">
        <ele>481.76</ele>
        <time>2015-08-29T06:18:43Z</time>
      </trkpt>
      <trkpt lat="43.10882" lon="-0.46527">
        <ele>482.72</ele>
        <time>2015-08-29T06:18:48Z</time>
      </trkpt>
      <trkpt lat="43.10868" lon="-0.46545">
        <ele>485.6</ele>
        <time>2015-08-29T06:18:58Z</time>
      </trkpt>
      <trkpt lat="43.10867" lon="-0.46546">
        <ele>485.6</ele>
        <time>2015-08-29T06:18:59Z</time>
      </trkpt>
      <trkpt lat="43.10866" lon="-0.46548">
        <ele>486.08</ele>
        <time>2015-08-29T06:19:00Z</time>
      </trkpt>
      <trkpt lat="43.10864" lon="-0.4655">
        <ele>486.56</ele>
        <time>2015-08-29T06:19:02Z</time>
      </trkpt>
      <trkpt lat="43.10864" lon="-0.46552">
        <ele>486.56</ele>
        <time>2015-08-29T06:19:03Z</time>
      </trkpt>
      <trkpt lat="43.10863" lon="-0.46554">
        <ele>487.05</ele>
        <time>2015-08-29T06:19:04Z</time>
      </trkpt>
      <trkpt lat="43.10862" lon="-0.46555">
        <ele>487.53</ele>
        <time>2015-08-29T06:19:05Z</time>
      </trkpt>
      <trkpt lat="43.1086" lon="-0.46557">
        <ele>487.53</ele>
        <time>2015-08-29T06:19:06Z</time>
      </trkpt>
      <trkpt lat="43.10859" lon="-0.46558">
        <ele>488.01</ele>
        <time>2015-08-29T06:19:07Z</time>
      </trkpt>
      <trkpt lat="43.10858" lon="-0.4656">
        <ele>488.01</ele>
        <time>2015-08-29T06:19:08Z</time>
      </trkpt>
      <trkpt lat="43.10848" lon="-0.46573">
        <ele>490.41</ele>
        <time>2015-08-29T06:19:16Z</time>
      </trkpt>
      <trkpt lat="43.10848" lon="-0.46575">
        <ele>490.41</ele>
        <time>2015-08-29T06:19:17Z</time>
      </trkpt>
      <trkpt lat="43.10847" lon="-0.46577">
        <ele>490.89</ele>
        <time>2015-08-29T06:19:18Z</time>
      </trkpt>
      <trkpt lat="43.10845" lon="-0.46579">
        <ele>490.89</ele>
        <time>2015-08-29T06:19:19Z</time>
      </trkpt>
      <trkpt lat="43.10844" lon="-0.46581">
        <ele>490.89</ele>
        <time>2015-08-29T06:19:20Z</time>
      </trkpt>
      <trkpt lat="43.10843" lon="-0.46583">
        <ele>491.37</ele>
        <time>2015-08-29T06:19:21Z</time>
      </trkpt>
      <trkpt lat="43.10841" lon="-0.46585">
        <ele>491.37</ele>
        <time>2015-08-29T06:19:22Z</time>
      </trkpt>
      <trkpt lat="43.1084" lon="-0.46587">
        <ele>491.85</ele>
        <time>2015-08-29T06:19:23Z</time>
      </trkpt>
      <trkpt lat="43.10829" lon="-0.46607">
        <ele>493.29</ele>
        <time>2015-08-29T06:19:34Z</time>
      </trkpt>
      <trkpt lat="43.10828" lon="-0.46611">
        <ele>494.26</ele>
        <time>2015-08-29T06:19:36Z</time>
      </trkpt>
      <trkpt lat="43.10827" lon="-0.46612">
        <ele>494.26</ele>
        <time>2015-08-29T06:19:37Z</time>
      </trkpt>
      <trkpt lat="43.10826" lon="-0.46614">
        <ele>494.74</ele>
        <time>2015-08-29T06:19:38Z</time>
      </trkpt>
      <trkpt lat="43.10824" lon="-0.46616">
        <ele>495.22</ele>
        <time>2015-08-29T06:19:39Z</time>
      </trkpt>
      <trkpt lat="43.10822" lon="-0.46617">
        <ele>495.22</ele>
        <time>2015-08-29T06:19:40Z</time>
      </trkpt>
      <trkpt lat="43.10802" lon="-0.46624">
        <ele>496.18</ele>
        <time>2015-08-29T06:19:51Z</time>
      </trkpt>
      <trkpt lat="43.10781" lon="-0.46617">
        <ele>498.58</ele>
        <time>2015-08-29T06:20:03Z</time>
      </trkpt>
      <trkpt lat="43.1076" lon="-0.46612">
        <ele>501.46</ele>
        <time>2015-08-29T06:20:16Z</time>
      </trkpt>
      <trkpt lat="43.10736" lon="-0.46603">
        <ele>505.31</ele>
        <time>2015-08-29T06:20:30Z</time>
      </trkpt>
      <trkpt lat="43.10711" lon="-0.46593">
        <ele>508.19</ele>
        <time>2015-08-29T06:20:45Z</time>
      </trkpt>
      <trkpt lat="43.10684" lon="-0.46584">
        <ele>511.56</ele>
        <time>2015-08-29T06:21:00Z</time>
      </trkpt>
      <trkpt lat="43.10659" lon="-0.4658">
        <ele>514.44</ele>
        <time>2015-08-29T06:21:14Z</time>
      </trkpt>
      <trkpt lat="43.10645" lon="-0.46579">
        <ele>515.4</ele>
        <time>2015-08-29T06:21:22Z</time>
      </trkpt>
      <trkpt lat="43.10643" lon="-0.46579">
        <ele>515.88</ele>
        <time>2015-08-29T06:21:23Z</time>
      </trkpt>
      <trkpt lat="43.10642" lon="-0.4658">
        <ele>515.88</ele>
        <time>2015-08-29T06:21:24Z</time>
      </trkpt>
      <trkpt lat="43.10616" lon="-0.46591">
        <ele>520.21</ele>
        <time>2015-08-29T06:21:39Z</time>
      </trkpt>
      <trkpt lat="43.10596" lon="-0.46605">
        <ele>522.61</ele>
        <time>2015-08-29T06:21:51Z</time>
      </trkpt>
      <trkpt lat="43.10572" lon="-0.46622">
        <ele>526.94</ele>
        <time>2015-08-29T06:22:06Z</time>
      </trkpt>
      <trkpt lat="43.1055" lon="-0.46642">
        <ele>529.82</ele>
        <time>2015-08-29T06:22:20Z</time>
      </trkpt>
      <trkpt lat="43.10535" lon="-0.46675">
        <ele>532.23</ele>
        <time>2015-08-29T06:22:34Z</time>
      </trkpt>
      <trkpt lat="43.10512" lon="-0.467">
        <ele>534.15</ele>
        <time>2015-08-29T06:22:48Z</time>
      </trkpt>
      <trkpt lat="43.1047" lon="-0.46722">
        <ele>535.11</ele>
        <time>2015-08-29T06:23:04Z</time>
      </trkpt>
      <trkpt lat="43.10422" lon="-0.46765">
        <ele>535.59</ele>
        <time>2015-08-29T06:23:20Z</time>
      </trkpt>
      <trkpt lat="43.10398" lon="-0.46808">
        <ele>536.07</ele>
        <time>2015-08-29T06:23:30Z</time>
      </trkpt>
      <trkpt lat="43.10396" lon="-0.46813">
        <ele>536.07</ele>
        <time>2015-08-29T06:23:31Z</time>
      </trkpt>
      <trkpt lat="43.10395" lon="-0.46831">
        <ele>536.07</ele>
        <time>2015-08-29T06:23:34Z</time>
      </trkpt>
      <trkpt lat="43.10396" lon="-0.46836">
        <ele>535.59</ele>
        <time>2015-08-29T06:23:35Z</time>
      </trkpt>
      <trkpt lat="43.10397" lon="-0.46841">
        <ele>535.59</ele>
        <time>2015-08-29T06:23:36Z</time>
      </trkpt>
      <trkpt lat="43.10399" lon="-0.46847">
        <ele>535.59</ele>
        <time>2015-08-29T06:23:37Z</time>
      </trkpt>
      <trkpt lat="43.10399" lon="-0.46853">
        <ele>535.59</ele>
        <time>2015-08-29T06:23:38Z</time>
      </trkpt>
      <trkpt lat="43.10399" lon="-0.46859">
        <ele>535.11</ele>
        <time>2015-08-29T06:23:39Z</time>
      </trkpt>
      <trkpt lat="43.10399" lon="-0.46864">
        <ele>535.11</ele>
        <time>2015-08-29T06:23:40Z</time>
      </trkpt>
      <trkpt lat="43.10398" lon="-0.4687">
        <ele>535.11</ele>
        <time>2015-08-29T06:23:41Z</time>
      </trkpt>
      <trkpt lat="43.10397" lon="-0.46876">
        <ele>535.11</ele>
        <time>2015-08-29T06:23:42Z</time>
      </trkpt>
      <trkpt lat="43.10397" lon="-0.46882">
        <ele>534.63</ele>
        <time>2015-08-29T06:23:43Z</time>
      </trkpt>
      <trkpt lat="43.10398" lon="-0.46889">
        <ele>534.63</ele>
        <time>2015-08-29T06:23:44Z</time>
      </trkpt>
      <trkpt lat="43.10401" lon="-0.46894">
        <ele>534.63</ele>
        <time>2015-08-29T06:23:45Z</time>
      </trkpt>
      <trkpt lat="43.10404" lon="-0.46898">
        <ele>535.11</ele>
        <time>2015-08-29T06:23:46Z</time>
      </trkpt>
      <trkpt lat="43.10407" lon="-0.46901">
        <ele>535.11</ele>
        <time>2015-08-29T06:23:47Z</time>
      </trkpt>
      <trkpt lat="43.10414" lon="-0.46914">
        <ele>535.11</ele>
        <time>2015-08-29T06:23:50Z</time>
      </trkpt>
      <trkpt lat="43.10415" lon="-0.46919">
        <ele>534.63</ele>
        <time>2015-08-29T06:23:51Z</time>
      </trkpt>
      <trkpt lat="43.10415" lon="-0.46925">
        <ele>534.63</ele>
        <time>2015-08-29T06:23:52Z</time>
      </trkpt>
      <trkpt lat="43.10414" lon="-0.46931">
        <ele>534.63</ele>
        <time>2015-08-29T06:23:53Z</time>
      </trkpt>
      <trkpt lat="43.10413" lon="-0.46937">
        <ele>534.63</ele>
        <time>2015-08-29T06:23:54Z</time>
      </trkpt>
      <trkpt lat="43.10412" lon="-0.46949">
        <ele>534.15</ele>
        <time>2015-08-29T06:23:56Z</time>
      </trkpt>
      <trkpt lat="43.10413" lon="-0.46955">
        <ele>533.67</ele>
        <time>2015-08-29T06:23:57Z</time>
      </trkpt>
      <trkpt lat="43.10414" lon="-0.46961">
        <ele>533.19</ele>
        <time>2015-08-29T06:23:58Z</time>
      </trkpt>
      <trkpt lat="43.10416" lon="-0.46967">
        <ele>532.71</ele>
        <time>2015-08-29T06:23:59Z</time>
      </trkpt>
      <trkpt lat="43.10417" lon="-0.46972">
        <ele>532.23</ele>
        <time>2015-08-29T06:24:00Z</time>
      </trkpt>
      <trkpt lat="43.1042" lon="-0.46977">
        <ele>531.75</ele>
        <time>2015-08-29T06:24:01Z</time>
      </trkpt>
      <trkpt lat="43.10423" lon="-0.46981">
        <ele>531.27</ele>
        <time>2015-08-29T06:24:02Z</time>
      </trkpt>
      <trkpt lat="43.10427" lon="-0.46986">
        <ele>531.27</ele>
        <time>2015-08-29T06:24:03Z</time>
      </trkpt>
      <trkpt lat="43.10432" lon="-0.4699">
        <ele>530.79</ele>
        <time>2015-08-29T06:24:04Z</time>
      </trkpt>
      <trkpt lat="43.10436" lon="-0.46993">
        <ele>530.79</ele>
        <time>2015-08-29T06:24:05Z</time>
      </trkpt>
      <trkpt lat="43.1044" lon="-0.46996">
        <ele>530.79</ele>
        <time>2015-08-29T06:24:06Z</time>
      </trkpt>
      <trkpt lat="43.10449" lon="-0.47003">
        <ele>530.3</ele>
        <time>2015-08-29T06:24:08Z</time>
      </trkpt>
      <trkpt lat="43.10452" lon="-0.47008">
        <ele>530.3</ele>
        <time>2015-08-29T06:24:09Z</time>
      </trkpt>
      <trkpt lat="43.10454" lon="-0.47013">
        <ele>529.82</ele>
        <time>2015-08-29T06:24:10Z</time>
      </trkpt>
      <trkpt lat="43.10455" lon="-0.4702">
        <ele>529.34</ele>
        <time>2015-08-29T06:24:11Z</time>
      </trkpt>
      <trkpt lat="43.10456" lon="-0.47026">
        <ele>528.86</ele>
        <time>2015-08-29T06:24:12Z</time>
      </trkpt>
      <trkpt lat="43.10456" lon="-0.47033">
        <ele>528.38</ele>
        <time>2015-08-29T06:24:13Z</time>
      </trkpt>
      <trkpt lat="43.10456" lon="-0.4704">
        <ele>527.9</ele>
        <time>2015-08-29T06:24:14Z</time>
      </trkpt>
      <trkpt lat="43.10456" lon="-0.47046">
        <ele>527.9</ele>
        <time>2015-08-29T06:24:15Z</time>
      </trkpt>
      <trkpt lat="43.10455" lon="-0.47053">
        <ele>527.42</ele>
        <time>2015-08-29T06:24:16Z</time>
      </trkpt>
      <trkpt lat="43.10454" lon="-0.47059">
        <ele>527.42</ele>
        <time>2015-08-29T06:24:17Z</time>
      </trkpt>
      <trkpt lat="43.1045" lon="-0.47076">
        <ele>526.94</ele>
        <time>2015-08-29T06:24:20Z</time>
      </trkpt>
      <trkpt lat="43.10449" lon="-0.47082">
        <ele>526.46</ele>
        <time>2015-08-29T06:24:21Z</time>
      </trkpt>
      <trkpt lat="43.10446" lon="-0.47093">
        <ele>525.98</ele>
        <time>2015-08-29T06:24:23Z</time>
      </trkpt>
      <trkpt lat="43.10444" lon="-0.47099">
        <ele>525.98</ele>
        <time>2015-08-29T06:24:24Z</time>
      </trkpt>
      <trkpt lat="43.10439" lon="-0.47134">
        <ele>524.06</ele>
        <time>2015-08-29T06:24:30Z</time>
      </trkpt>
      <trkpt lat="43.10438" lon="-0.47139">
        <ele>524.06</ele>
        <time>2015-08-29T06:24:31Z</time>
      </trkpt>
      <trkpt lat="43.10428" lon="-0.47171">
        <ele>522.61</ele>
        <time>2015-08-29T06:24:37Z</time>
      </trkpt>
      <trkpt lat="43.10411" lon="-0.47245">
        <ele>520.69</ele>
        <time>2015-08-29T06:24:50Z</time>
      </trkpt>
      <trkpt lat="43.10414" lon="-0.47254">
        <ele>520.69</ele>
        <time>2015-08-29T06:24:52Z</time>
      </trkpt>
      <trkpt lat="43.10431" lon="-0.47274">
        <ele>521.17</ele>
        <time>2015-08-29T06:24:56Z</time>
      </trkpt>
      <trkpt lat="43.10436" lon="-0.47278">
        <ele>521.65</ele>
        <time>2015-08-29T06:24:57Z</time>
      </trkpt>
      <trkpt lat="43.10448" lon="-0.47286">
        <ele>522.13</ele>
        <time>2015-08-29T06:24:59Z</time>
      </trkpt>
      <trkpt lat="43.10453" lon="-0.4729">
        <ele>522.61</ele>
        <time>2015-08-29T06:25:00Z</time>
      </trkpt>
      <trkpt lat="43.10458" lon="-0.47293">
        <ele>522.61</ele>
        <time>2015-08-29T06:25:01Z</time>
      </trkpt>
      <trkpt lat="43.10462" lon="-0.47297">
        <ele>523.09</ele>
        <time>2015-08-29T06:25:02Z</time>
      </trkpt>
      <trkpt lat="43.10465" lon="-0.47302">
        <ele>523.58</ele>
        <time>2015-08-29T06:25:03Z</time>
      </trkpt>
      <trkpt lat="43.10466" lon="-0.47309">
        <ele>523.58</ele>
        <time>2015-08-29T06:25:04Z</time>
      </trkpt>
      <trkpt lat="43.10466" lon="-0.47317">
        <ele>523.58</ele>
        <time>2015-08-29T06:25:05Z</time>
      </trkpt>
      <trkpt lat="43.10467" lon="-0.47325">
        <ele>523.58</ele>
        <time>2015-08-29T06:25:06Z</time>
      </trkpt>
      <trkpt lat="43.10467" lon="-0.47332">
        <ele>523.58</ele>
        <time>2015-08-29T06:25:07Z</time>
      </trkpt>
      <trkpt lat="43.10466" lon="-0.47339">
        <ele>524.06</ele>
        <time>2015-08-29T06:25:08Z</time>
      </trkpt>
      <trkpt lat="43.10463" lon="-0.47359">
        <ele>523.58</ele>
        <time>2015-08-29T06:25:11Z</time>
      </trkpt>
      <trkpt lat="43.10461" lon="-0.47366">
        <ele>523.58</ele>
        <time>2015-08-29T06:25:12Z</time>
      </trkpt>
      <trkpt lat="43.1046" lon="-0.47372">
        <ele>523.58</ele>
        <time>2015-08-29T06:25:13Z</time>
      </trkpt>
      <trkpt lat="43.10457" lon="-0.47377">
        <ele>523.58</ele>
        <time>2015-08-29T06:25:14Z</time>
      </trkpt>
      <trkpt lat="43.10455" lon="-0.47383">
        <ele>523.58</ele>
        <time>2015-08-29T06:25:15Z</time>
      </trkpt>
      <trkpt lat="43.10452" lon="-0.47394">
        <ele>522.61</ele>
        <time>2015-08-29T06:25:17Z</time>
      </trkpt>
      <trkpt lat="43.10451" lon="-0.47401">
        <ele>522.61</ele>
        <time>2015-08-29T06:25:18Z</time>
      </trkpt>
      <trkpt lat="43.10451" lon="-0.47407">
        <ele>522.13</ele>
        <time>2015-08-29T06:25:19Z</time>
      </trkpt>
      <trkpt lat="43.10453" lon="-0.47412">
        <ele>522.13</ele>
        <time>2015-08-29T06:25:20Z</time>
      </trkpt>
      <trkpt lat="43.10456" lon="-0.47418">
        <ele>521.65</ele>
        <time>2015-08-29T06:25:21Z</time>
      </trkpt>
      <trkpt lat="43.1046" lon="-0.47422">
        <ele>521.65</ele>
        <time>2015-08-29T06:25:22Z</time>
      </trkpt>
      <trkpt lat="43.10464" lon="-0.47427">
        <ele>521.65</ele>
        <time>2015-08-29T06:25:23Z</time>
      </trkpt>
      <trkpt lat="43.10481" lon="-0.47442">
        <ele>522.13</ele>
        <time>2015-08-29T06:25:27Z</time>
      </trkpt>
      <trkpt lat="43.10492" lon="-0.47448">
        <ele>522.13</ele>
        <time>2015-08-29T06:25:29Z</time>
      </trkpt>
      <trkpt lat="43.10497" lon="-0.4745">
        <ele>522.61</ele>
        <time>2015-08-29T06:25:30Z</time>
      </trkpt>
      <trkpt lat="43.10501" lon="-0.47453">
        <ele>523.09</ele>
        <time>2015-08-29T06:25:31Z</time>
      </trkpt>
      <trkpt lat="43.10505" lon="-0.47455">
        <ele>523.09</ele>
        <time>2015-08-29T06:25:32Z</time>
      </trkpt>
      <trkpt lat="43.10509" lon="-0.4746">
        <ele>523.58</ele>
        <time>2015-08-29T06:25:33Z</time>
      </trkpt>
      <trkpt lat="43.10512" lon="-0.47465">
        <ele>523.58</ele>
        <time>2015-08-29T06:25:34Z</time>
      </trkpt>
      <trkpt lat="43.10513" lon="-0.47472">
        <ele>523.58</ele>
        <time>2015-08-29T06:25:35Z</time>
      </trkpt>
      <trkpt lat="43.10514" lon="-0.47478">
        <ele>523.58</ele>
        <time>2015-08-29T06:25:36Z</time>
      </trkpt>
      <trkpt lat="43.10514" lon="-0.47484">
        <ele>523.09</ele>
        <time>2015-08-29T06:25:37Z</time>
      </trkpt>
      <trkpt lat="43.10514" lon="-0.4749">
        <ele>522.61</ele>
        <time>2015-08-29T06:25:38Z</time>
      </trkpt>
      <trkpt lat="43.10503" lon="-0.47575">
        <ele>519.73</ele>
        <time>2015-08-29T06:25:52Z</time>
      </trkpt>
      <trkpt lat="43.10501" lon="-0.47581">
        <ele>519.73</ele>
        <time>2015-08-29T06:25:53Z</time>
      </trkpt>
      <trkpt lat="43.105" lon="-0.47587">
        <ele>519.25</ele>
        <time>2015-08-29T06:25:54Z</time>
      </trkpt>
      <trkpt lat="43.10499" lon="-0.47594">
        <ele>519.25</ele>
        <time>2015-08-29T06:25:55Z</time>
      </trkpt>
      <trkpt lat="43.10499" lon="-0.47601">
        <ele>518.77</ele>
        <time>2015-08-29T06:25:56Z</time>
      </trkpt>
      <trkpt lat="43.105" lon="-0.47607">
        <ele>518.29</ele>
        <time>2015-08-29T06:25:57Z</time>
      </trkpt>
      <trkpt lat="43.10502" lon="-0.47612">
        <ele>518.29</ele>
        <time>2015-08-29T06:25:58Z</time>
      </trkpt>
      <trkpt lat="43.10505" lon="-0.47618">
        <ele>517.81</ele>
        <time>2015-08-29T06:25:59Z</time>
      </trkpt>
      <trkpt lat="43.10516" lon="-0.47642">
        <ele>516.85</ele>
        <time>2015-08-29T06:26:03Z</time>
      </trkpt>
      <trkpt lat="43.10517" lon="-0.47649">
        <ele>516.85</ele>
        <time>2015-08-29T06:26:04Z</time>
      </trkpt>
      <trkpt lat="43.10517" lon="-0.47656">
        <ele>516.85</ele>
        <time>2015-08-29T06:26:05Z</time>
      </trkpt>
      <trkpt lat="43.10515" lon="-0.47662">
        <ele>516.85</ele>
        <time>2015-08-29T06:26:06Z</time>
      </trkpt>
      <trkpt lat="43.10513" lon="-0.47668">
        <ele>517.33</ele>
        <time>2015-08-29T06:26:07Z</time>
      </trkpt>
      <trkpt lat="43.1051" lon="-0.47674">
        <ele>517.33</ele>
        <time>2015-08-29T06:26:08Z</time>
      </trkpt>
      <trkpt lat="43.10505" lon="-0.47685">
        <ele>517.33</ele>
        <time>2015-08-29T06:26:10Z</time>
      </trkpt>
      <trkpt lat="43.10501" lon="-0.47691">
        <ele>516.85</ele>
        <time>2015-08-29T06:26:11Z</time>
      </trkpt>
      <trkpt lat="43.10498" lon="-0.47696">
        <ele>516.85</ele>
        <time>2015-08-29T06:26:12Z</time>
      </trkpt>
      <trkpt lat="43.10495" lon="-0.47699">
        <ele>516.85</ele>
        <time>2015-08-29T06:26:13Z</time>
      </trkpt>
      <trkpt lat="43.10491" lon="-0.47703">
        <ele>516.85</ele>
        <time>2015-08-29T06:26:14Z</time>
      </trkpt>
      <trkpt lat="43.10487" lon="-0.47705">
        <ele>516.85</ele>
        <time>2015-08-29T06:26:15Z</time>
      </trkpt>
      <trkpt lat="43.10482" lon="-0.47706">
        <ele>516.85</ele>
        <time>2015-08-29T06:26:16Z</time>
      </trkpt>
      <trkpt lat="43.10477" lon="-0.47707">
        <ele>517.33</ele>
        <time>2015-08-29T06:26:17Z</time>
      </trkpt>
      <trkpt lat="43.10473" lon="-0.47706">
        <ele>517.33</ele>
        <time>2015-08-29T06:26:18Z</time>
      </trkpt>
      <trkpt lat="43.10469" lon="-0.47704">
        <ele>517.33</ele>
        <time>2015-08-29T06:26:19Z</time>
      </trkpt>
      <trkpt lat="43.10464" lon="-0.47702">
        <ele>516.85</ele>
        <time>2015-08-29T06:26:20Z</time>
      </trkpt>
      <trkpt lat="43.1046" lon="-0.477">
        <ele>516.85</ele>
        <time>2015-08-29T06:26:21Z</time>
      </trkpt>
      <trkpt lat="43.10455" lon="-0.47699">
        <ele>516.85</ele>
        <time>2015-08-29T06:26:22Z</time>
      </trkpt>
      <trkpt lat="43.10451" lon="-0.47698">
        <ele>516.37</ele>
        <time>2015-08-29T06:26:23Z</time>
      </trkpt>
      <trkpt lat="43.10446" lon="-0.47699">
        <ele>516.37</ele>
        <time>2015-08-29T06:26:24Z</time>
      </trkpt>
      <trkpt lat="43.10441" lon="-0.47702">
        <ele>516.37</ele>
        <time>2015-08-29T06:26:25Z</time>
      </trkpt>
      <trkpt lat="43.10438" lon="-0.47708">
        <ele>516.37</ele>
        <time>2015-08-29T06:26:26Z</time>
      </trkpt>
      <trkpt lat="43.10435" lon="-0.47713">
        <ele>516.37</ele>
        <time>2015-08-29T06:26:27Z</time>
      </trkpt>
      <trkpt lat="43.10433" lon="-0.47719">
        <ele>515.88</ele>
        <time>2015-08-29T06:26:28Z</time>
      </trkpt>
      <trkpt lat="43.1042" lon="-0.4779">
        <ele>512.04</ele>
        <time>2015-08-29T06:26:40Z</time>
      </trkpt>
      <trkpt lat="43.10419" lon="-0.47797">
        <ele>511.56</ele>
        <time>2015-08-29T06:26:41Z</time>
      </trkpt>
      <trkpt lat="43.10417" lon="-0.47802">
        <ele>511.56</ele>
        <time>2015-08-29T06:26:42Z</time>
      </trkpt>
      <trkpt lat="43.104" lon="-0.47835">
        <ele>510.12</ele>
        <time>2015-08-29T06:26:48Z</time>
      </trkpt>
      <trkpt lat="43.10399" lon="-0.4784">
        <ele>510.12</ele>
        <time>2015-08-29T06:26:49Z</time>
      </trkpt>
      <trkpt lat="43.10401" lon="-0.47847">
        <ele>510.12</ele>
        <time>2015-08-29T06:26:50Z</time>
      </trkpt>
      <trkpt lat="43.10406" lon="-0.47853">
        <ele>510.12</ele>
        <time>2015-08-29T06:26:51Z</time>
      </trkpt>
      <trkpt lat="43.10412" lon="-0.47858">
        <ele>510.12</ele>
        <time>2015-08-29T06:26:52Z</time>
      </trkpt>
      <trkpt lat="43.10417" lon="-0.47864">
        <ele>509.64</ele>
        <time>2015-08-29T06:26:53Z</time>
      </trkpt>
      <trkpt lat="43.10422" lon="-0.47869">
        <ele>509.64</ele>
        <time>2015-08-29T06:26:54Z</time>
      </trkpt>
      <trkpt lat="43.10432" lon="-0.47879">
        <ele>509.16</ele>
        <time>2015-08-29T06:26:56Z</time>
      </trkpt>
      <trkpt lat="43.10435" lon="-0.47885">
        <ele>509.16</ele>
        <time>2015-08-29T06:26:57Z</time>
      </trkpt>
      <trkpt lat="43.10438" lon="-0.4789">
        <ele>508.67</ele>
        <time>2015-08-29T06:26:58Z</time>
      </trkpt>
      <trkpt lat="43.10439" lon="-0.47896">
        <ele>508.67</ele>
        <time>2015-08-29T06:26:59Z</time>
      </trkpt>
      <trkpt lat="43.1044" lon="-0.47902">
        <ele>509.16</ele>
        <time>2015-08-29T06:27:00Z</time>
      </trkpt>
      <trkpt lat="43.10441" lon="-0.47909">
        <ele>509.64</ele>
        <time>2015-08-29T06:27:01Z</time>
      </trkpt>
      <trkpt lat="43.1044" lon="-0.47916">
        <ele>509.64</ele>
        <time>2015-08-29T06:27:02Z</time>
      </trkpt>
      <trkpt lat="43.1044" lon="-0.47944">
        <ele>509.16</ele>
        <time>2015-08-29T06:27:06Z</time>
      </trkpt>
      <trkpt lat="43.10441" lon="-0.47951">
        <ele>509.16</ele>
        <time>2015-08-29T06:27:07Z</time>
      </trkpt>
      <trkpt lat="43.10443" lon="-0.47958">
        <ele>509.16</ele>
        <time>2015-08-29T06:27:08Z</time>
      </trkpt>
      <trkpt lat="43.10446" lon="-0.47964">
        <ele>508.67</ele>
        <time>2015-08-29T06:27:09Z</time>
      </trkpt>
      <trkpt lat="43.1045" lon="-0.47969">
        <ele>508.67</ele>
        <time>2015-08-29T06:27:10Z</time>
      </trkpt>
      <trkpt lat="43.10452" lon="-0.47975">
        <ele>509.16</ele>
        <time>2015-08-29T06:27:11Z</time>
      </trkpt>
      <trkpt lat="43.10455" lon="-0.47981">
        <ele>509.16</ele>
        <time>2015-08-29T06:27:12Z</time>
      </trkpt>
      <trkpt lat="43.10456" lon="-0.47988">
        <ele>509.64</ele>
        <time>2015-08-29T06:27:13Z</time>
      </trkpt>
      <trkpt lat="43.10455" lon="-0.47995">
        <ele>510.12</ele>
        <time>2015-08-29T06:27:14Z</time>
      </trkpt>
      <trkpt lat="43.10454" lon="-0.48003">
        <ele>510.6</ele>
        <time>2015-08-29T06:27:15Z</time>
      </trkpt>
      <trkpt lat="43.10451" lon="-0.48009">
        <ele>511.56</ele>
        <time>2015-08-29T06:27:16Z</time>
      </trkpt>
      <trkpt lat="43.10447" lon="-0.48014">
        <ele>511.56</ele>
        <time>2015-08-29T06:27:17Z</time>
      </trkpt>
      <trkpt lat="43.10443" lon="-0.48018">
        <ele>512.52</ele>
        <time>2015-08-29T06:27:18Z</time>
      </trkpt>
      <trkpt lat="43.10438" lon="-0.48021">
        <ele>513.48</ele>
        <time>2015-08-29T06:27:19Z</time>
      </trkpt>
      <trkpt lat="43.10433" lon="-0.48023">
        <ele>514.44</ele>
        <time>2015-08-29T06:27:20Z</time>
      </trkpt>
      <trkpt lat="43.10428" lon="-0.48025">
        <ele>514.92</ele>
        <time>2015-08-29T06:27:21Z</time>
      </trkpt>
      <trkpt lat="43.10423" lon="-0.48027">
        <ele>515.4</ele>
        <time>2015-08-29T06:27:22Z</time>
      </trkpt>
      <trkpt lat="43.10359" lon="-0.48052">
        <ele>516.85</ele>
        <time>2015-08-29T06:27:36Z</time>
      </trkpt>
      <trkpt lat="43.10345" lon="-0.48056">
        <ele>516.85</ele>
        <time>2015-08-29T06:27:39Z</time>
      </trkpt>
      <trkpt lat="43.1034" lon="-0.48057">
        <ele>517.33</ele>
        <time>2015-08-29T06:27:40Z</time>
      </trkpt>
      <trkpt lat="43.10336" lon="-0.48057">
        <ele>517.33</ele>
        <time>2015-08-29T06:27:41Z</time>
      </trkpt>
      <trkpt lat="43.10271" lon="-0.4804">
        <ele>518.77</ele>
        <time>2015-08-29T06:27:56Z</time>
      </trkpt>
      <trkpt lat="43.10267" lon="-0.48041">
        <ele>518.29</ele>
        <time>2015-08-29T06:27:57Z</time>
      </trkpt>
      <trkpt lat="43.10263" lon="-0.48043">
        <ele>518.29</ele>
        <time>2015-08-29T06:27:58Z</time>
      </trkpt>
      <trkpt lat="43.10259" lon="-0.48046">
        <ele>518.29</ele>
        <time>2015-08-29T06:27:59Z</time>
      </trkpt>
      <trkpt lat="43.10255" lon="-0.4805">
        <ele>518.29</ele>
        <time>2015-08-29T06:28:00Z</time>
      </trkpt>
      <trkpt lat="43.10252" lon="-0.48055">
        <ele>518.29</ele>
        <time>2015-08-29T06:28:01Z</time>
      </trkpt>
      <trkpt lat="43.10248" lon="-0.48059">
        <ele>518.77</ele>
        <time>2015-08-29T06:28:02Z</time>
      </trkpt>
      <trkpt lat="43.10233" lon="-0.48087">
        <ele>518.29</ele>
        <time>2015-08-29T06:28:13Z</time>
      </trkpt>
      <trkpt lat="43.1023" lon="-0.48118">
        <ele>519.25</ele>
        <time>2015-08-29T06:28:28Z</time>
      </trkpt>
      <trkpt lat="43.10222" lon="-0.48136">
        <ele>519.25</ele>
        <time>2015-08-29T06:28:35Z</time>
      </trkpt>
      <trkpt lat="43.10219" lon="-0.48136">
        <ele>519.73</ele>
        <time>2015-08-29T06:28:36Z</time>
      </trkpt>
      <trkpt lat="43.10217" lon="-0.48137">
        <ele>519.73</ele>
        <time>2015-08-29T06:28:37Z</time>
      </trkpt>
      <trkpt lat="43.10215" lon="-0.48138">
        <ele>519.73</ele>
        <time>2015-08-29T06:28:38Z</time>
      </trkpt>
      <trkpt lat="43.10212" lon="-0.48139">
        <ele>519.73</ele>
        <time>2015-08-29T06:28:39Z</time>
      </trkpt>
      <trkpt lat="43.10172" lon="-0.48159">
        <ele>520.69</ele>
        <time>2015-08-29T06:28:53Z</time>
      </trkpt>
      <trkpt lat="43.10134" lon="-0.4816">
        <ele>522.13</ele>
        <time>2015-08-29T06:29:05Z</time>
      </trkpt>
      <trkpt lat="43.10129" lon="-0.4816">
        <ele>522.13</ele>
        <time>2015-08-29T06:29:07Z</time>
      </trkpt>
      <trkpt lat="43.10128" lon="-0.4816">
        <ele>522.13</ele>
        <time>2015-08-29T06:29:08Z</time>
      </trkpt>
      <trkpt lat="43.10126" lon="-0.4816">
        <ele>522.61</ele>
        <time>2015-08-29T06:29:09Z</time>
      </trkpt>
      <trkpt lat="43.10125" lon="-0.4816">
        <ele>522.61</ele>
        <time>2015-08-29T06:29:10Z</time>
      </trkpt>
      <trkpt lat="43.10108" lon="-0.48167">
        <ele>523.58</ele>
        <time>2015-08-29T06:29:22Z</time>
      </trkpt>
      <trkpt lat="43.10081" lon="-0.48167">
        <ele>525.02</ele>
        <time>2015-08-29T06:29:34Z</time>
      </trkpt>
      <trkpt lat="43.1005" lon="-0.48171">
        <ele>530.79</ele>
        <time>2015-08-29T06:29:48Z</time>
      </trkpt>
      <trkpt lat="43.10022" lon="-0.48175">
        <ele>537.51</ele>
        <time>2015-08-29T06:30:01Z</time>
      </trkpt>
      <trkpt lat="43.09997" lon="-0.48172">
        <ele>541.84</ele>
        <time>2015-08-29T06:30:14Z</time>
      </trkpt>
      <trkpt lat="43.09974" lon="-0.48172">
        <ele>543.28</ele>
        <time>2015-08-29T06:30:28Z</time>
      </trkpt>
      <trkpt lat="43.09951" lon="-0.48172">
        <ele>543.76</ele>
        <time>2015-08-29T06:30:41Z</time>
      </trkpt>
      <trkpt lat="43.09923" lon="-0.48172">
        <ele>548.09</ele>
        <time>2015-08-29T06:30:55Z</time>
      </trkpt>
      <trkpt lat="43.09898" lon="-0.48172">
        <ele>550.97</ele>
        <time>2015-08-29T06:31:07Z</time>
      </trkpt>
      <trkpt lat="43.09878" lon="-0.48187">
        <ele>550.49</ele>
        <time>2015-08-29T06:31:20Z</time>
      </trkpt>
      <trkpt lat="43.09854" lon="-0.48209">
        <ele>552.9</ele>
        <time>2015-08-29T06:31:35Z</time>
      </trkpt>
      <trkpt lat="43.09841" lon="-0.48223">
        <ele>557.22</ele>
        <time>2015-08-29T06:31:45Z</time>
      </trkpt>
      <trkpt lat="43.09839" lon="-0.48225">
        <ele>557.22</ele>
        <time>2015-08-29T06:31:46Z</time>
      </trkpt>
      <trkpt lat="43.09837" lon="-0.48227">
        <ele>557.7</ele>
        <time>2015-08-29T06:31:47Z</time>
      </trkpt>
      <trkpt lat="43.09835" lon="-0.48228">
        <ele>557.7</ele>
        <time>2015-08-29T06:31:48Z</time>
      </trkpt>
      <trkpt lat="43.09833" lon="-0.48229">
        <ele>558.18</ele>
        <time>2015-08-29T06:31:49Z</time>
      </trkpt>
      <trkpt lat="43.0983" lon="-0.48231">
        <ele>558.18</ele>
        <time>2015-08-29T06:31:50Z</time>
      </trkpt>
      <trkpt lat="43.09828" lon="-0.48231">
        <ele>558.66</ele>
        <time>2015-08-29T06:31:51Z</time>
      </trkpt>
      <trkpt lat="43.09825" lon="-0.48232">
        <ele>558.66</ele>
        <time>2015-08-29T06:31:52Z</time>
      </trkpt>
      <trkpt lat="43.09822" lon="-0.48232">
        <ele>558.66</ele>
        <time>2015-08-29T06:31:53Z</time>
      </trkpt>
      <trkpt lat="43.09812" lon="-0.48239">
        <ele>559.14</ele>
        <time>2015-08-29T06:31:59Z</time>
      </trkpt>
      <trkpt lat="43.09812" lon="-0.48241">
        <ele>559.14</ele>
        <time>2015-08-29T06:32:00Z</time>
      </trkpt>
      <trkpt lat="43.09813" lon="-0.48244">
        <ele>559.62</ele>
        <time>2015-08-29T06:32:01Z</time>
      </trkpt>
      <trkpt lat="43.09814" lon="-0.48246">
        <ele>559.62</ele>
        <time>2015-08-29T06:32:02Z</time>
      </trkpt>
      <trkpt lat="43.09815" lon="-0.48249">
        <ele>560.11</ele>
        <time>2015-08-29T06:32:03Z</time>
      </trkpt>
      <trkpt lat="43.09835" lon="-0.48244">
        <ele>561.07</ele>
        <time>2015-08-29T06:32:14Z</time>
      </trkpt>
      <trkpt lat="43.09863" lon="-0.48225">
        <ele>565.87</ele>
        <time>2015-08-29T06:32:27Z</time>
      </trkpt>
      <trkpt lat="43.09887" lon="-0.48214">
        <ele>570.68</ele>
        <time>2015-08-29T06:32:40Z</time>
      </trkpt>
      <trkpt lat="43.09911" lon="-0.48213">
        <ele>573.08</ele>
        <time>2015-08-29T06:32:52Z</time>
      </trkpt>
      <trkpt lat="43.09939" lon="-0.48223">
        <ele>577.89</ele>
        <time>2015-08-29T06:33:07Z</time>
      </trkpt>
      <trkpt lat="43.09962" lon="-0.48234">
        <ele>582.22</ele>
        <time>2015-08-29T06:33:20Z</time>
      </trkpt>
      <trkpt lat="43.09982" lon="-0.48244">
        <ele>582.7</ele>
        <time>2015-08-29T06:33:31Z</time>
      </trkpt>
      <trkpt lat="43.09995" lon="-0.48253">
        <ele>582.7</ele>
        <time>2015-08-29T06:33:38Z</time>
      </trkpt>
      <trkpt lat="43.10001" lon="-0.4826">
        <ele>583.18</ele>
        <time>2015-08-29T06:33:42Z</time>
      </trkpt>
      <trkpt lat="43.1002" lon="-0.4829">
        <ele>580.77</ele>
        <time>2015-08-29T06:33:54Z</time>
      </trkpt>
      <trkpt lat="43.1003" lon="-0.48337">
        <ele>577.89</ele>
        <time>2015-08-29T06:34:08Z</time>
      </trkpt>
      <trkpt lat="43.10033" lon="-0.48374">
        <ele>577.89</ele>
        <time>2015-08-29T06:34:20Z</time>
      </trkpt>
      <trkpt lat="43.1003" lon="-0.48416">
        <ele>580.29</ele>
        <time>2015-08-29T06:34:34Z</time>
      </trkpt>
      <trkpt lat="43.10033" lon="-0.48463">
        <ele>584.62</ele>
        <time>2015-08-29T06:34:49Z</time>
      </trkpt>
      <trkpt lat="43.10036" lon="-0.48482">
        <ele>585.58</ele>
        <time>2015-08-29T06:34:56Z</time>
      </trkpt>
      <trkpt lat="43.10036" lon="-0.485">
        <ele>587.5</ele>
        <time>2015-08-29T06:35:03Z</time>
      </trkpt>
      <trkpt lat="43.10037" lon="-0.48523">
        <ele>591.35</ele>
        <time>2015-08-29T06:35:12Z</time>
      </trkpt>
      <trkpt lat="43.10031" lon="-0.4855">
        <ele>595.19</ele>
        <time>2015-08-29T06:35:23Z</time>
      </trkpt>
      <trkpt lat="43.1003" lon="-0.48556">
        <ele>596.15</ele>
        <time>2015-08-29T06:35:25Z</time>
      </trkpt>
      <trkpt lat="43.10031" lon="-0.48561">
        <ele>596.64</ele>
        <time>2015-08-29T06:35:27Z</time>
      </trkpt>
      <trkpt lat="43.10029" lon="-0.48585">
        <ele>598.56</ele>
        <time>2015-08-29T06:35:36Z</time>
      </trkpt>
      <trkpt lat="43.10017" lon="-0.48615">
        <ele>601.44</ele>
        <time>2015-08-29T06:35:51Z</time>
      </trkpt>
      <trkpt lat="43.10012" lon="-0.48624">
        <ele>601.44</ele>
        <time>2015-08-29T06:35:57Z</time>
      </trkpt>
      <trkpt lat="43.1" lon="-0.48637">
        <ele>603.85</ele>
        <time>2015-08-29T06:36:07Z</time>
      </trkpt>
      <trkpt lat="43.09983" lon="-0.48652">
        <ele>605.29</ele>
        <time>2015-08-29T06:36:20Z</time>
      </trkpt>
      <trkpt lat="43.0998" lon="-0.48656">
        <ele>605.77</ele>
        <time>2015-08-29T06:36:24Z</time>
      </trkpt>
      <trkpt lat="43.09961" lon="-0.48675">
        <ele>607.21</ele>
        <time>2015-08-29T06:36:37Z</time>
      </trkpt>
      <trkpt lat="43.09944" lon="-0.48682">
        <ele>609.61</ele>
        <time>2015-08-29T06:36:48Z</time>
      </trkpt>
      <trkpt lat="43.09935" lon="-0.48684">
        <ele>621.63</ele>
        <time>2015-08-29T06:39:09Z</time>
      </trkpt>
      <trkpt lat="43.09922" lon="-0.48687">
        <ele>621.63</ele>
        <time>2015-08-29T06:39:19Z</time>
      </trkpt>
      <trkpt lat="43.09906" lon="-0.48686">
        <ele>623.07</ele>
        <time>2015-08-29T06:39:32Z</time>
      </trkpt>
      <trkpt lat="43.09888" lon="-0.48676">
        <ele>627.4</ele>
        <time>2015-08-29T06:39:45Z</time>
      </trkpt>
      <trkpt lat="43.09874" lon="-0.48668">
        <ele>629.32</ele>
        <time>2015-08-29T06:39:55Z</time>
      </trkpt>
      <trkpt lat="43.09863" lon="-0.48663">
        <ele>630.28</ele>
        <time>2015-08-29T06:40:01Z</time>
      </trkpt>
      <trkpt lat="43.09845" lon="-0.48645">
        <ele>633.65</ele>
        <time>2015-08-29T06:40:15Z</time>
      </trkpt>
      <trkpt lat="43.09828" lon="-0.48622">
        <ele>636.53</ele>
        <time>2015-08-29T06:40:27Z</time>
      </trkpt>
      <trkpt lat="43.0982" lon="-0.48635">
        <ele>635.09</ele>
        <time>2015-08-29T06:40:37Z</time>
      </trkpt>
      <trkpt lat="43.09821" lon="-0.48636">
        <ele>635.09</ele>
        <time>2015-08-29T06:40:38Z</time>
      </trkpt>
      <trkpt lat="43.09829" lon="-0.48649">
        <ele>634.61</ele>
        <time>2015-08-29T06:40:45Z</time>
      </trkpt>
      <trkpt lat="43.09833" lon="-0.48651">
        <ele>634.61</ele>
        <time>2015-08-29T06:40:47Z</time>
      </trkpt>
      <trkpt lat="43.09843" lon="-0.48685">
        <ele>633.65</ele>
        <time>2015-08-29T06:40:58Z</time>
      </trkpt>
      <trkpt lat="43.09856" lon="-0.48721">
        <ele>632.68</ele>
        <time>2015-08-29T06:41:10Z</time>
      </trkpt>
      <trkpt lat="43.09862" lon="-0.48746">
        <ele>631.72</ele>
        <time>2015-08-29T06:41:19Z</time>
      </trkpt>
      <trkpt lat="43.09874" lon="-0.48779">
        <ele>636.53</ele>
        <time>2015-08-29T06:41:33Z</time>
      </trkpt>
      <trkpt lat="43.09875" lon="-0.48789">
        <ele>637.49</ele>
        <time>2015-08-29T06:41:37Z</time>
      </trkpt>
      <trkpt lat="43.09878" lon="-0.48802">
        <ele>637.49</ele>
        <time>2015-08-29T06:41:42Z</time>
      </trkpt>
      <trkpt lat="43.09891" lon="-0.48833">
        <ele>640.86</ele>
        <time>2015-08-29T06:41:54Z</time>
      </trkpt>
      <trkpt lat="43.09897" lon="-0.48854">
        <ele>641.82</ele>
        <time>2015-08-29T06:42:02Z</time>
      </trkpt>
      <trkpt lat="43.09911" lon="-0.4888">
        <ele>642.3</ele>
        <time>2015-08-29T06:42:13Z</time>
      </trkpt>
      <trkpt lat="43.09915" lon="-0.48891">
        <ele>642.78</ele>
        <time>2015-08-29T06:42:17Z</time>
      </trkpt>
      <trkpt lat="43.09923" lon="-0.48921">
        <ele>643.26</ele>
        <time>2015-08-29T06:42:29Z</time>
      </trkpt>
      <trkpt lat="43.09925" lon="-0.48924">
        <ele>643.26</ele>
        <time>2015-08-29T06:42:31Z</time>
      </trkpt>
      <trkpt lat="43.0993" lon="-0.48926">
        <ele>643.74</ele>
        <time>2015-08-29T06:42:34Z</time>
      </trkpt>
      <trkpt lat="43.0994" lon="-0.48938">
        <ele>646.14</ele>
        <time>2015-08-29T06:42:39Z</time>
      </trkpt>
      <trkpt lat="43.09953" lon="-0.48949">
        <ele>649.03</ele>
        <time>2015-08-29T06:42:47Z</time>
      </trkpt>
      <trkpt lat="43.09975" lon="-0.48965">
        <ele>655.28</ele>
        <time>2015-08-29T06:43:01Z</time>
      </trkpt>
      <trkpt lat="43.09991" lon="-0.48969">
        <ele>659.12</ele>
        <time>2015-08-29T06:43:09Z</time>
      </trkpt>
      <trkpt lat="43.10016" lon="-0.48973">
        <ele>663.93</ele>
        <time>2015-08-29T06:43:22Z</time>
      </trkpt>
      <trkpt lat="43.10041" lon="-0.48968">
        <ele>668.25</ele>
        <time>2015-08-29T06:43:34Z</time>
      </trkpt>
      <trkpt lat="43.1006" lon="-0.4896">
        <ele>674.5</ele>
        <time>2015-08-29T06:43:45Z</time>
      </trkpt>
      <trkpt lat="43.10063" lon="-0.48957">
        <ele>675.94</ele>
        <time>2015-08-29T06:43:48Z</time>
      </trkpt>
      <trkpt lat="43.10064" lon="-0.48949">
        <ele>678.35</ele>
        <time>2015-08-29T06:43:52Z</time>
      </trkpt>
      <trkpt lat="43.10083" lon="-0.48913">
        <ele>690.84</ele>
        <time>2015-08-29T06:44:08Z</time>
      </trkpt>
      <trkpt lat="43.10097" lon="-0.48893">
        <ele>697.09</ele>
        <time>2015-08-29T06:44:20Z</time>
      </trkpt>
      <trkpt lat="43.10116" lon="-0.48887">
        <ele>700.46</ele>
        <time>2015-08-29T06:44:31Z</time>
      </trkpt>
      <trkpt lat="43.10125" lon="-0.48907">
        <ele>701.9</ele>
        <time>2015-08-29T06:44:41Z</time>
      </trkpt>
      <trkpt lat="43.10129" lon="-0.48916">
        <ele>699.98</ele>
        <time>2015-08-29T06:44:45Z</time>
      </trkpt>
      <trkpt lat="43.10142" lon="-0.48946">
        <ele>695.17</ele>
        <time>2015-08-29T06:44:59Z</time>
      </trkpt>
      <trkpt lat="43.10153" lon="-0.48981">
        <ele>689.4</ele>
        <time>2015-08-29T06:45:13Z</time>
      </trkpt>
      <trkpt lat="43.10156" lon="-0.49013">
        <ele>687</ele>
        <time>2015-08-29T06:45:25Z</time>
      </trkpt>
      <trkpt lat="43.10164" lon="-0.49051">
        <ele>686.52</ele>
        <time>2015-08-29T06:45:39Z</time>
      </trkpt>
      <trkpt lat="43.10167" lon="-0.49083">
        <ele>686.52</ele>
        <time>2015-08-29T06:45:51Z</time>
      </trkpt>
      <trkpt lat="43.10169" lon="-0.4912">
        <ele>688.44</ele>
        <time>2015-08-29T06:46:03Z</time>
      </trkpt>
      <trkpt lat="43.10185" lon="-0.49169">
        <ele>690.36</ele>
        <time>2015-08-29T06:46:17Z</time>
      </trkpt>
      <trkpt lat="43.10194" lon="-0.4924">
        <ele>691.33</ele>
        <time>2015-08-29T06:46:33Z</time>
      </trkpt>
      <trkpt lat="43.10201" lon="-0.49301">
        <ele>690.84</ele>
        <time>2015-08-29T06:46:47Z</time>
      </trkpt>
      <trkpt lat="43.10208" lon="-0.49336">
        <ele>691.81</ele>
        <time>2015-08-29T06:46:54Z</time>
      </trkpt>
      <trkpt lat="43.10244" lon="-0.49379">
        <ele>693.73</ele>
        <time>2015-08-29T06:47:06Z</time>
      </trkpt>
      <trkpt lat="43.10261" lon="-0.49407">
        <ele>694.69</ele>
        <time>2015-08-29T06:47:12Z</time>
      </trkpt>
      <trkpt lat="43.10269" lon="-0.49423">
        <ele>696.13</ele>
        <time>2015-08-29T06:47:15Z</time>
      </trkpt>
      <trkpt lat="43.10272" lon="-0.49429">
        <ele>696.61</ele>
        <time>2015-08-29T06:47:16Z</time>
      </trkpt>
      <trkpt lat="43.10274" lon="-0.49434">
        <ele>697.09</ele>
        <time>2015-08-29T06:47:17Z</time>
      </trkpt>
      <trkpt lat="43.10281" lon="-0.49451">
        <ele>697.57</ele>
        <time>2015-08-29T06:47:20Z</time>
      </trkpt>
      <trkpt lat="43.10286" lon="-0.49469">
        <ele>699.02</ele>
        <time>2015-08-29T06:47:23Z</time>
      </trkpt>
      <trkpt lat="43.10288" lon="-0.4948">
        <ele>699.5</ele>
        <time>2015-08-29T06:47:25Z</time>
      </trkpt>
      <trkpt lat="43.1029" lon="-0.49485">
        <ele>699.98</ele>
        <time>2015-08-29T06:47:26Z</time>
      </trkpt>
      <trkpt lat="43.10292" lon="-0.4949">
        <ele>699.98</ele>
        <time>2015-08-29T06:47:27Z</time>
      </trkpt>
      <trkpt lat="43.10294" lon="-0.49496">
        <ele>700.46</ele>
        <time>2015-08-29T06:47:28Z</time>
      </trkpt>
      <trkpt lat="43.10295" lon="-0.49502">
        <ele>700.94</ele>
        <time>2015-08-29T06:47:29Z</time>
      </trkpt>
      <trkpt lat="43.10297" lon="-0.49508">
        <ele>700.94</ele>
        <time>2015-08-29T06:47:30Z</time>
      </trkpt>
      <trkpt lat="43.10298" lon="-0.49514">
        <ele>701.42</ele>
        <time>2015-08-29T06:47:31Z</time>
      </trkpt>
      <trkpt lat="43.10303" lon="-0.49531">
        <ele>702.38</ele>
        <time>2015-08-29T06:47:34Z</time>
      </trkpt>
      <trkpt lat="43.10316" lon="-0.49586">
        <ele>705.26</ele>
        <time>2015-08-29T06:47:43Z</time>
      </trkpt>
      <trkpt lat="43.1032" lon="-0.49605">
        <ele>705.26</ele>
        <time>2015-08-29T06:47:46Z</time>
      </trkpt>
      <trkpt lat="43.10328" lon="-0.49643">
        <ele>705.26</ele>
        <time>2015-08-29T06:47:52Z</time>
      </trkpt>
      <trkpt lat="43.10332" lon="-0.49661">
        <ele>705.26</ele>
        <time>2015-08-29T06:47:55Z</time>
      </trkpt>
      <trkpt lat="43.10347" lon="-0.49727">
        <ele>705.75</ele>
        <time>2015-08-29T06:48:06Z</time>
      </trkpt>
      <trkpt lat="43.10347" lon="-0.49733">
        <ele>705.75</ele>
        <time>2015-08-29T06:48:07Z</time>
      </trkpt>
      <trkpt lat="43.10347" lon="-0.49738">
        <ele>706.23</ele>
        <time>2015-08-29T06:48:08Z</time>
      </trkpt>
      <trkpt lat="43.10345" lon="-0.49743">
        <ele>705.26</ele>
        <time>2015-08-29T06:48:09Z</time>
      </trkpt>
      <trkpt lat="43.10343" lon="-0.49747">
        <ele>705.75</ele>
        <time>2015-08-29T06:48:10Z</time>
      </trkpt>
      <trkpt lat="43.10339" lon="-0.49751">
        <ele>705.26</ele>
        <time>2015-08-29T06:48:11Z</time>
      </trkpt>
      <trkpt lat="43.10335" lon="-0.49753">
        <ele>705.26</ele>
        <time>2015-08-29T06:48:12Z</time>
      </trkpt>
      <trkpt lat="43.10331" lon="-0.49755">
        <ele>705.75</ele>
        <time>2015-08-29T06:48:13Z</time>
      </trkpt>
      <trkpt lat="43.10327" lon="-0.49757">
        <ele>705.75</ele>
        <time>2015-08-29T06:48:14Z</time>
      </trkpt>
      <trkpt lat="43.10323" lon="-0.49757">
        <ele>706.23</ele>
        <time>2015-08-29T06:48:15Z</time>
      </trkpt>
      <trkpt lat="43.10319" lon="-0.49757">
        <ele>706.71</ele>
        <time>2015-08-29T06:48:16Z</time>
      </trkpt>
      <trkpt lat="43.10289" lon="-0.49751">
        <ele>709.59</ele>
        <time>2015-08-29T06:48:27Z</time>
      </trkpt>
      <trkpt lat="43.10265" lon="-0.4975">
        <ele>715.36</ele>
        <time>2015-08-29T06:48:39Z</time>
      </trkpt>
      <trkpt lat="43.10246" lon="-0.49759">
        <ele>718.24</ele>
        <time>2015-08-29T06:48:50Z</time>
      </trkpt>
      <trkpt lat="43.10224" lon="-0.49781">
        <ele>723.05</ele>
        <time>2015-08-29T06:49:03Z</time>
      </trkpt>
      <trkpt lat="43.10217" lon="-0.49785">
        <ele>725.45</ele>
        <time>2015-08-29T06:49:07Z</time>
      </trkpt>
      <trkpt lat="43.10216" lon="-0.49787">
        <ele>725.93</ele>
        <time>2015-08-29T06:49:08Z</time>
      </trkpt>
      <trkpt lat="43.10214" lon="-0.49788">
        <ele>725.93</ele>
        <time>2015-08-29T06:49:09Z</time>
      </trkpt>
      <trkpt lat="43.1021" lon="-0.49793">
        <ele>726.89</ele>
        <time>2015-08-29T06:49:12Z</time>
      </trkpt>
      <trkpt lat="43.10208" lon="-0.49793">
        <ele>727.37</ele>
        <time>2015-08-29T06:49:13Z</time>
      </trkpt>
      <trkpt lat="43.10207" lon="-0.49794">
        <ele>727.37</ele>
        <time>2015-08-29T06:49:14Z</time>
      </trkpt>
      <trkpt lat="43.10205" lon="-0.49795">
        <ele>727.37</ele>
        <time>2015-08-29T06:49:15Z</time>
      </trkpt>
      <trkpt lat="43.10202" lon="-0.49798">
        <ele>727.86</ele>
        <time>2015-08-29T06:49:17Z</time>
      </trkpt>
      <trkpt lat="43.102" lon="-0.49805">
        <ele>729.3</ele>
        <time>2015-08-29T06:49:20Z</time>
      </trkpt>
      <trkpt lat="43.10199" lon="-0.49807">
        <ele>729.78</ele>
        <time>2015-08-29T06:49:21Z</time>
      </trkpt>
      <trkpt lat="43.10198" lon="-0.4981">
        <ele>729.78</ele>
        <time>2015-08-29T06:49:22Z</time>
      </trkpt>
      <trkpt lat="43.10197" lon="-0.49814">
        <ele>730.26</ele>
        <time>2015-08-29T06:49:23Z</time>
      </trkpt>
      <trkpt lat="43.10196" lon="-0.49816">
        <ele>730.74</ele>
        <time>2015-08-29T06:49:24Z</time>
      </trkpt>
      <trkpt lat="43.10195" lon="-0.49819">
        <ele>730.74</ele>
        <time>2015-08-29T06:49:25Z</time>
      </trkpt>
      <trkpt lat="43.10195" lon="-0.49821">
        <ele>730.74</ele>
        <time>2015-08-29T06:49:26Z</time>
      </trkpt>
      <trkpt lat="43.10194" lon="-0.49823">
        <ele>731.7</ele>
        <time>2015-08-29T06:49:27Z</time>
      </trkpt>
      <trkpt lat="43.10192" lon="-0.49824">
        <ele>732.18</ele>
        <time>2015-08-29T06:49:28Z</time>
      </trkpt>
      <trkpt lat="43.10189" lon="-0.49826">
        <ele>732.66</ele>
        <time>2015-08-29T06:49:29Z</time>
      </trkpt>
      <trkpt lat="43.10188" lon="-0.49828">
        <ele>732.18</ele>
        <time>2015-08-29T06:49:30Z</time>
      </trkpt>
      <trkpt lat="43.10186" lon="-0.49831">
        <ele>732.18</ele>
        <time>2015-08-29T06:49:31Z</time>
      </trkpt>
      <trkpt lat="43.10185" lon="-0.49833">
        <ele>732.18</ele>
        <time>2015-08-29T06:49:32Z</time>
      </trkpt>
      <trkpt lat="43.10185" lon="-0.49834">
        <ele>732.18</ele>
        <time>2015-08-29T06:49:33Z</time>
      </trkpt>
      <trkpt lat="43.10184" lon="-0.49836">
        <ele>731.7</ele>
        <time>2015-08-29T06:49:34Z</time>
      </trkpt>
      <trkpt lat="43.10183" lon="-0.49838">
        <ele>731.7</ele>
        <time>2015-08-29T06:49:36Z</time>
      </trkpt>
      <trkpt lat="43.10182" lon="-0.4984">
        <ele>731.7</ele>
        <time>2015-08-29T06:49:37Z</time>
      </trkpt>
      <trkpt lat="43.10181" lon="-0.49849">
        <ele>733.62</ele>
        <time>2015-08-29T06:49:43Z</time>
      </trkpt>
      <trkpt lat="43.10182" lon="-0.49878">
        <ele>735.55</ele>
        <time>2015-08-29T06:49:55Z</time>
      </trkpt>
      <trkpt lat="43.10182" lon="-0.49886">
        <ele>736.03</ele>
        <time>2015-08-29T06:49:59Z</time>
      </trkpt>
      <trkpt lat="43.10182" lon="-0.49888">
        <ele>736.03</ele>
        <time>2015-08-29T06:50:00Z</time>
      </trkpt>
      <trkpt lat="43.10183" lon="-0.49891">
        <ele>736.03</ele>
        <time>2015-08-29T06:50:01Z</time>
      </trkpt>
      <trkpt lat="43.10182" lon="-0.49893">
        <ele>736.03</ele>
        <time>2015-08-29T06:50:02Z</time>
      </trkpt>
      <trkpt lat="43.10183" lon="-0.49895">
        <ele>736.03</ele>
        <time>2015-08-29T06:50:03Z</time>
      </trkpt>
      <trkpt lat="43.10189" lon="-0.49924">
        <ele>736.99</ele>
        <time>2015-08-29T06:50:15Z</time>
      </trkpt>
      <trkpt lat="43.10196" lon="-0.4996">
        <ele>736.99</ele>
        <time>2015-08-29T06:50:28Z</time>
      </trkpt>
      <trkpt lat="43.10213" lon="-0.49993">
        <ele>735.55</ele>
        <time>2015-08-29T06:50:43Z</time>
      </trkpt>
      <trkpt lat="43.10215" lon="-0.49994">
        <ele>735.55</ele>
        <time>2015-08-29T06:50:44Z</time>
      </trkpt>
      <trkpt lat="43.10216" lon="-0.49997">
        <ele>735.55</ele>
        <time>2015-08-29T06:50:45Z</time>
      </trkpt>
      <trkpt lat="43.10218" lon="-0.49999">
        <ele>735.07</ele>
        <time>2015-08-29T06:50:46Z</time>
      </trkpt>
      <trkpt lat="43.1022" lon="-0.50004">
        <ele>735.07</ele>
        <time>2015-08-29T06:50:48Z</time>
      </trkpt>
      <trkpt lat="43.10243" lon="-0.50045">
        <ele>735.55</ele>
        <time>2015-08-29T06:51:04Z</time>
      </trkpt>
      <trkpt lat="43.10261" lon="-0.50086">
        <ele>736.99</ele>
        <time>2015-08-29T06:51:17Z</time>
      </trkpt>
      <trkpt lat="43.10272" lon="-0.50137">
        <ele>736.51</ele>
        <time>2015-08-29T06:51:32Z</time>
      </trkpt>
      <trkpt lat="43.10273" lon="-0.50141">
        <ele>736.99</ele>
        <time>2015-08-29T06:51:46Z</time>
      </trkpt>
      <trkpt lat="43.10272" lon="-0.5014">
        <ele>737.95</ele>
        <time>2015-08-29T06:52:08Z</time>
      </trkpt>
      <trkpt lat="43.10272" lon="-0.50139">
        <ele>737.95</ele>
        <time>2015-08-29T06:52:37Z</time>
      </trkpt>
      <trkpt lat="43.10272" lon="-0.50137">
        <ele>738.91</ele>
        <time>2015-08-29T06:53:07Z</time>
      </trkpt>
      <trkpt lat="43.10273" lon="-0.5014">
        <ele>738.91</ele>
        <time>2015-08-29T06:53:13Z</time>
      </trkpt>
      <trkpt lat="43.10269" lon="-0.50155">
        <ele>739.39</ele>
        <time>2015-08-29T06:53:19Z</time>
      </trkpt>
      <trkpt lat="43.10258" lon="-0.50204">
        <ele>736.51</ele>
        <time>2015-08-29T06:53:31Z</time>
      </trkpt>
      <trkpt lat="43.10253" lon="-0.50229">
        <ele>735.55</ele>
        <time>2015-08-29T06:53:35Z</time>
      </trkpt>
      <trkpt lat="43.10253" lon="-0.50236">
        <ele>735.55</ele>
        <time>2015-08-29T06:53:36Z</time>
      </trkpt>
      <trkpt lat="43.10252" lon="-0.50242">
        <ele>735.07</ele>
        <time>2015-08-29T06:53:37Z</time>
      </trkpt>
      <trkpt lat="43.10251" lon="-0.50249">
        <ele>734.58</ele>
        <time>2015-08-29T06:53:38Z</time>
      </trkpt>
      <trkpt lat="43.10249" lon="-0.50255">
        <ele>734.58</ele>
        <time>2015-08-29T06:53:39Z</time>
      </trkpt>
      <trkpt lat="43.10247" lon="-0.50261">
        <ele>734.1</ele>
        <time>2015-08-29T06:53:40Z</time>
      </trkpt>
      <trkpt lat="43.10241" lon="-0.50294">
        <ele>733.14</ele>
        <time>2015-08-29T06:53:45Z</time>
      </trkpt>
      <trkpt lat="43.10239" lon="-0.50306">
        <ele>732.66</ele>
        <time>2015-08-29T06:53:47Z</time>
      </trkpt>
      <trkpt lat="43.10232" lon="-0.50338">
        <ele>730.74</ele>
        <time>2015-08-29T06:53:52Z</time>
      </trkpt>
      <trkpt lat="43.10231" lon="-0.50345">
        <ele>730.74</ele>
        <time>2015-08-29T06:53:53Z</time>
      </trkpt>
      <trkpt lat="43.10229" lon="-0.50351">
        <ele>730.26</ele>
        <time>2015-08-29T06:53:54Z</time>
      </trkpt>
      <trkpt lat="43.10217" lon="-0.50396">
        <ele>727.86</ele>
        <time>2015-08-29T06:54:02Z</time>
      </trkpt>
      <trkpt lat="43.10214" lon="-0.504">
        <ele>727.37</ele>
        <time>2015-08-29T06:54:03Z</time>
      </trkpt>
      <trkpt lat="43.10187" lon="-0.50442">
        <ele>724.01</ele>
        <time>2015-08-29T06:54:15Z</time>
      </trkpt>
      <trkpt lat="43.10168" lon="-0.50462">
        <ele>724.01</ele>
        <time>2015-08-29T06:54:24Z</time>
      </trkpt>
      <trkpt lat="43.10147" lon="-0.50486">
        <ele>726.89</ele>
        <time>2015-08-29T06:54:36Z</time>
      </trkpt>
      <trkpt lat="43.10144" lon="-0.50497">
        <ele>727.86</ele>
        <time>2015-08-29T06:54:40Z</time>
      </trkpt>
      <trkpt lat="43.10145" lon="-0.50536">
        <ele>732.66</ele>
        <time>2015-08-29T06:54:54Z</time>
      </trkpt>
      <trkpt lat="43.10139" lon="-0.50565">
        <ele>735.07</ele>
        <time>2015-08-29T06:55:05Z</time>
      </trkpt>
      <trkpt lat="43.10127" lon="-0.5059">
        <ele>736.51</ele>
        <time>2015-08-29T06:55:17Z</time>
      </trkpt>
      <trkpt lat="43.10114" lon="-0.5061">
        <ele>739.39</ele>
        <time>2015-08-29T06:55:28Z</time>
      </trkpt>
      <trkpt lat="43.10101" lon="-0.50636">
        <ele>741.31</ele>
        <time>2015-08-29T06:55:41Z</time>
      </trkpt>
      <trkpt lat="43.10082" lon="-0.50658">
        <ele>744.68</ele>
        <time>2015-08-29T06:55:53Z</time>
      </trkpt>
      <trkpt lat="43.10069" lon="-0.50676">
        <ele>753.33</ele>
        <time>2015-08-29T06:56:07Z</time>
      </trkpt>
      <trkpt lat="43.10061" lon="-0.5068">
        <ele>756.69</ele>
        <time>2015-08-29T06:56:13Z</time>
      </trkpt>
      <trkpt lat="43.1006" lon="-0.50683">
        <ele>757.66</ele>
        <time>2015-08-29T06:56:14Z</time>
      </trkpt>
      <trkpt lat="43.10055" lon="-0.50687">
        <ele>759.1</ele>
        <time>2015-08-29T06:56:17Z</time>
      </trkpt>
      <trkpt lat="43.10045" lon="-0.5069">
        <ele>760.54</ele>
        <time>2015-08-29T06:56:21Z</time>
      </trkpt>
      <trkpt lat="43.10037" lon="-0.50696">
        <ele>761.98</ele>
        <time>2015-08-29T06:56:26Z</time>
      </trkpt>
      <trkpt lat="43.10028" lon="-0.50704">
        <ele>762.46</ele>
        <time>2015-08-29T06:56:32Z</time>
      </trkpt>
      <trkpt lat="43.10004" lon="-0.50715">
        <ele>762.46</ele>
        <time>2015-08-29T06:56:42Z</time>
      </trkpt>
      <trkpt lat="43.0998" lon="-0.50732">
        <ele>762.46</ele>
        <time>2015-08-29T06:56:55Z</time>
      </trkpt>
      <trkpt lat="43.09958" lon="-0.50761">
        <ele>762.46</ele>
        <time>2015-08-29T06:57:07Z</time>
      </trkpt>
      <trkpt lat="43.09949" lon="-0.50791">
        <ele>765.83</ele>
        <time>2015-08-29T06:57:19Z</time>
      </trkpt>
      <trkpt lat="43.09943" lon="-0.50826">
        <ele>766.31</ele>
        <time>2015-08-29T06:57:33Z</time>
      </trkpt>
      <trkpt lat="43.09943" lon="-0.50865">
        <ele>766.31</ele>
        <time>2015-08-29T06:57:48Z</time>
      </trkpt>
      <trkpt lat="43.09947" lon="-0.50905">
        <ele>768.23</ele>
        <time>2015-08-29T06:58:01Z</time>
      </trkpt>
      <trkpt lat="43.09951" lon="-0.50936">
        <ele>771.11</ele>
        <time>2015-08-29T06:58:13Z</time>
      </trkpt>
      <trkpt lat="43.09955" lon="-0.50968">
        <ele>774</ele>
        <time>2015-08-29T06:58:26Z</time>
      </trkpt>
      <trkpt lat="43.09956" lon="-0.50991">
        <ele>774.48</ele>
        <time>2015-08-29T06:58:35Z</time>
      </trkpt>
      <trkpt lat="43.09956" lon="-0.50993">
        <ele>774.96</ele>
        <time>2015-08-29T06:58:36Z</time>
      </trkpt>
      <trkpt lat="43.09953" lon="-0.51024">
        <ele>776.4</ele>
        <time>2015-08-29T06:58:50Z</time>
      </trkpt>
      <trkpt lat="43.09947" lon="-0.51056">
        <ele>777.84</ele>
        <time>2015-08-29T06:59:04Z</time>
      </trkpt>
      <trkpt lat="43.09941" lon="-0.51085">
        <ele>777.36</ele>
        <time>2015-08-29T06:59:17Z</time>
      </trkpt>
      <trkpt lat="43.09936" lon="-0.51122">
        <ele>775.92</ele>
        <time>2015-08-29T06:59:31Z</time>
      </trkpt>
      <trkpt lat="43.09939" lon="-0.51163">
        <ele>777.36</ele>
        <time>2015-08-29T06:59:45Z</time>
      </trkpt>
      <trkpt lat="43.0994" lon="-0.51179">
        <ele>783.13</ele>
        <time>2015-08-29T06:59:56Z</time>
      </trkpt>
      <trkpt lat="43.09941" lon="-0.51186">
        <ele>784.57</ele>
        <time>2015-08-29T07:00:05Z</time>
      </trkpt>
      <trkpt lat="43.09941" lon="-0.51187">
        <ele>785.05</ele>
        <time>2015-08-29T07:00:06Z</time>
      </trkpt>
      <trkpt lat="43.09941" lon="-0.51189">
        <ele>785.53</ele>
        <time>2015-08-29T07:00:07Z</time>
      </trkpt>
      <trkpt lat="43.09941" lon="-0.51191">
        <ele>785.53</ele>
        <time>2015-08-29T07:00:08Z</time>
      </trkpt>
      <trkpt lat="43.09942" lon="-0.51193">
        <ele>786.02</ele>
        <time>2015-08-29T07:00:09Z</time>
      </trkpt>
      <trkpt lat="43.09942" lon="-0.51194">
        <ele>786.02</ele>
        <time>2015-08-29T07:00:10Z</time>
      </trkpt>
      <trkpt lat="43.09943" lon="-0.51196">
        <ele>786.5</ele>
        <time>2015-08-29T07:00:11Z</time>
      </trkpt>
      <trkpt lat="43.09943" lon="-0.51199">
        <ele>786.5</ele>
        <time>2015-08-29T07:00:12Z</time>
      </trkpt>
      <trkpt lat="43.09944" lon="-0.51201">
        <ele>786.98</ele>
        <time>2015-08-29T07:00:13Z</time>
      </trkpt>
      <trkpt lat="43.09945" lon="-0.51204">
        <ele>786.98</ele>
        <time>2015-08-29T07:00:14Z</time>
      </trkpt>
      <trkpt lat="43.09954" lon="-0.51241">
        <ele>789.86</ele>
        <time>2015-08-29T07:00:27Z</time>
      </trkpt>
      <trkpt lat="43.09961" lon="-0.51284">
        <ele>792.26</ele>
        <time>2015-08-29T07:00:41Z</time>
      </trkpt>
      <trkpt lat="43.09967" lon="-0.51297">
        <ele>793.71</ele>
        <time>2015-08-29T07:00:46Z</time>
      </trkpt>
      <trkpt lat="43.09968" lon="-0.513">
        <ele>793.71</ele>
        <time>2015-08-29T07:00:47Z</time>
      </trkpt>
      <trkpt lat="43.09967" lon="-0.51303">
        <ele>793.71</ele>
        <time>2015-08-29T07:00:48Z</time>
      </trkpt>
      <trkpt lat="43.09967" lon="-0.51305">
        <ele>794.19</ele>
        <time>2015-08-29T07:00:49Z</time>
      </trkpt>
      <trkpt lat="43.09966" lon="-0.51308">
        <ele>794.19</ele>
        <time>2015-08-29T07:00:50Z</time>
      </trkpt>
      <trkpt lat="43.09965" lon="-0.51309">
        <ele>794.67</ele>
        <time>2015-08-29T07:00:51Z</time>
      </trkpt>
      <trkpt lat="43.09963" lon="-0.51311">
        <ele>795.15</ele>
        <time>2015-08-29T07:00:52Z</time>
      </trkpt>
      <trkpt lat="43.09962" lon="-0.51311">
        <ele>795.15</ele>
        <time>2015-08-29T07:00:53Z</time>
      </trkpt>
      <trkpt lat="43.0996" lon="-0.5131">
        <ele>795.15</ele>
        <time>2015-08-29T07:00:54Z</time>
      </trkpt>
      <trkpt lat="43.09957" lon="-0.51293">
        <ele>797.07</ele>
        <time>2015-08-29T07:01:00Z</time>
      </trkpt>
      <trkpt lat="43.09953" lon="-0.51247">
        <ele>802.36</ele>
        <time>2015-08-29T07:01:15Z</time>
      </trkpt>
      <trkpt lat="43.0993" lon="-0.51196">
        <ele>810.05</ele>
        <time>2015-08-29T07:01:29Z</time>
      </trkpt>
      <trkpt lat="43.09921" lon="-0.51165">
        <ele>815.34</ele>
        <time>2015-08-29T07:01:42Z</time>
      </trkpt>
      <trkpt lat="43.09918" lon="-0.51134">
        <ele>818.22</ele>
        <time>2015-08-29T07:01:52Z</time>
      </trkpt>
      <trkpt lat="43.09914" lon="-0.51101">
        <ele>818.22</ele>
        <time>2015-08-29T07:02:03Z</time>
      </trkpt>
      <trkpt lat="43.09912" lon="-0.51081">
        <ele>817.74</ele>
        <time>2015-08-29T07:02:10Z</time>
      </trkpt>
      <trkpt lat="43.09915" lon="-0.51042">
        <ele>816.78</ele>
        <time>2015-08-29T07:02:24Z</time>
      </trkpt>
      <trkpt lat="43.09918" lon="-0.51024">
        <ele>815.82</ele>
        <time>2015-08-29T07:02:30Z</time>
      </trkpt>
      <trkpt lat="43.09912" lon="-0.51003">
        <ele>816.3</ele>
        <time>2015-08-29T07:02:37Z</time>
      </trkpt>
      <trkpt lat="43.09916" lon="-0.50974">
        <ele>818.22</ele>
        <time>2015-08-29T07:02:49Z</time>
      </trkpt>
      <trkpt lat="43.09913" lon="-0.50952">
        <ele>820.14</ele>
        <time>2015-08-29T07:02:59Z</time>
      </trkpt>
      <trkpt lat="43.09888" lon="-0.50903">
        <ele>822.06</ele>
        <time>2015-08-29T07:03:13Z</time>
      </trkpt>
      <trkpt lat="43.09878" lon="-0.50887">
        <ele>823.03</ele>
        <time>2015-08-29T07:03:17Z</time>
      </trkpt>
      <trkpt lat="43.09883" lon="-0.50852">
        <ele>823.03</ele>
        <time>2015-08-29T07:03:29Z</time>
      </trkpt>
      <trkpt lat="43.09868" lon="-0.50806">
        <ele>822.55</ele>
        <time>2015-08-29T07:03:44Z</time>
      </trkpt>
      <trkpt lat="43.09868" lon="-0.50773">
        <ele>822.06</ele>
        <time>2015-08-29T07:03:55Z</time>
      </trkpt>
      <trkpt lat="43.09859" lon="-0.50727">
        <ele>823.51</ele>
        <time>2015-08-29T07:04:10Z</time>
      </trkpt>
      <trkpt lat="43.09853" lon="-0.50691">
        <ele>825.43</ele>
        <time>2015-08-29T07:04:23Z</time>
      </trkpt>
      <trkpt lat="43.09832" lon="-0.50653">
        <ele>831.68</ele>
        <time>2015-08-29T07:04:36Z</time>
      </trkpt>
      <trkpt lat="43.09822" lon="-0.50643">
        <ele>833.12</ele>
        <time>2015-08-29T07:04:41Z</time>
      </trkpt>
      <trkpt lat="43.09806" lon="-0.50605">
        <ele>835.04</ele>
        <time>2015-08-29T07:04:54Z</time>
      </trkpt>
      <trkpt lat="43.09807" lon="-0.50566">
        <ele>837.45</ele>
        <time>2015-08-29T07:05:06Z</time>
      </trkpt>
      <trkpt lat="43.09804" lon="-0.50527">
        <ele>839.37</ele>
        <time>2015-08-29T07:05:19Z</time>
      </trkpt>
      <trkpt lat="43.09788" lon="-0.50483">
        <ele>845.62</ele>
        <time>2015-08-29T07:05:34Z</time>
      </trkpt>
      <trkpt lat="43.09771" lon="-0.50453">
        <ele>848.98</ele>
        <time>2015-08-29T07:05:46Z</time>
      </trkpt>
      <trkpt lat="43.09757" lon="-0.50424">
        <ele>848.5</ele>
        <time>2015-08-29T07:06:00Z</time>
      </trkpt>
      <trkpt lat="43.09758" lon="-0.50422">
        <ele>848.98</ele>
        <time>2015-08-29T07:06:01Z</time>
      </trkpt>
      <trkpt lat="43.09755" lon="-0.50384">
        <ele>848.98</ele>
        <time>2015-08-29T07:06:15Z</time>
      </trkpt>
      <trkpt lat="43.09752" lon="-0.50344">
        <ele>848.98</ele>
        <time>2015-08-29T07:06:29Z</time>
      </trkpt>
      <trkpt lat="43.09751" lon="-0.50305">
        <ele>850.9</ele>
        <time>2015-08-29T07:06:42Z</time>
      </trkpt>
      <trkpt lat="43.09746" lon="-0.50266">
        <ele>858.11</ele>
        <time>2015-08-29T07:06:55Z</time>
      </trkpt>
      <trkpt lat="43.09742" lon="-0.5023">
        <ele>864.84</ele>
        <time>2015-08-29T07:07:08Z</time>
      </trkpt>
      <trkpt lat="43.09726" lon="-0.50206">
        <ele>869.65</ele>
        <time>2015-08-29T07:07:20Z</time>
      </trkpt>
      <trkpt lat="43.09707" lon="-0.50192">
        <ele>873.5</ele>
        <time>2015-08-29T07:07:33Z</time>
      </trkpt>
      <trkpt lat="43.09701" lon="-0.50187">
        <ele>874.46</ele>
        <time>2015-08-29T07:07:37Z</time>
      </trkpt>
      <trkpt lat="43.09689" lon="-0.50177">
        <ele>876.38</ele>
        <time>2015-08-29T07:07:44Z</time>
      </trkpt>
      <trkpt lat="43.09659" lon="-0.50151">
        <ele>879.26</ele>
        <time>2015-08-29T07:08:00Z</time>
      </trkpt>
      <trkpt lat="43.09643" lon="-0.50133">
        <ele>884.07</ele>
        <time>2015-08-29T07:08:12Z</time>
      </trkpt>
      <trkpt lat="43.0964" lon="-0.50131">
        <ele>885.51</ele>
        <time>2015-08-29T07:08:16Z</time>
      </trkpt>
      <trkpt lat="43.09641" lon="-0.50107">
        <ele>891.76</ele>
        <time>2015-08-29T07:08:27Z</time>
      </trkpt>
      <trkpt lat="43.09642" lon="-0.50106">
        <ele>892.24</ele>
        <time>2015-08-29T07:08:28Z</time>
      </trkpt>
      <trkpt lat="43.09662" lon="-0.50093">
        <ele>891.76</ele>
        <time>2015-08-29T07:08:40Z</time>
      </trkpt>
      <trkpt lat="43.09674" lon="-0.50064">
        <ele>890.32</ele>
        <time>2015-08-29T07:08:52Z</time>
      </trkpt>
      <trkpt lat="43.09657" lon="-0.50031">
        <ele>887.91</ele>
        <time>2015-08-29T07:09:05Z</time>
      </trkpt>
      <trkpt lat="43.09636" lon="-0.50013">
        <ele>884.55</ele>
        <time>2015-08-29T07:09:17Z</time>
      </trkpt>
      <trkpt lat="43.0961" lon="-0.49985">
        <ele>882.15</ele>
        <time>2015-08-29T07:09:30Z</time>
      </trkpt>
      <trkpt lat="43.0959" lon="-0.49966">
        <ele>881.19</ele>
        <time>2015-08-29T07:09:42Z</time>
      </trkpt>
      <trkpt lat="43.09567" lon="-0.49943">
        <ele>882.63</ele>
        <time>2015-08-29T07:09:53Z</time>
      </trkpt>
      <trkpt lat="43.09549" lon="-0.49922">
        <ele>886.95</ele>
        <time>2015-08-29T07:10:05Z</time>
      </trkpt>
      <trkpt lat="43.09531" lon="-0.49909">
        <ele>889.84</ele>
        <time>2015-08-29T07:10:14Z</time>
      </trkpt>
      <trkpt lat="43.09516" lon="-0.499">
        <ele>892.24</ele>
        <time>2015-08-29T07:10:22Z</time>
      </trkpt>
      <trkpt lat="43.09507" lon="-0.49897">
        <ele>892.72</ele>
        <time>2015-08-29T07:10:26Z</time>
      </trkpt>
      <trkpt lat="43.09483" lon="-0.49885">
        <ele>894.16</ele>
        <time>2015-08-29T07:10:39Z</time>
      </trkpt>
      <trkpt lat="43.09472" lon="-0.49878">
        <ele>895.61</ele>
        <time>2015-08-29T07:10:45Z</time>
      </trkpt>
      <trkpt lat="43.09441" lon="-0.4986">
        <ele>898.01</ele>
        <time>2015-08-29T07:10:59Z</time>
      </trkpt>
      <trkpt lat="43.0941" lon="-0.49833">
        <ele>899.45</ele>
        <time>2015-08-29T07:11:13Z</time>
      </trkpt>
      <trkpt lat="43.09407" lon="-0.49826">
        <ele>899.93</ele>
        <time>2015-08-29T07:11:16Z</time>
      </trkpt>
      <trkpt lat="43.09401" lon="-0.49812">
        <ele>902.82</ele>
        <time>2015-08-29T07:11:22Z</time>
      </trkpt>
      <trkpt lat="43.09383" lon="-0.49772">
        <ele>909.06</ele>
        <time>2015-08-29T07:11:34Z</time>
      </trkpt>
      <trkpt lat="43.09366" lon="-0.49736">
        <ele>914.35</ele>
        <time>2015-08-29T07:11:48Z</time>
      </trkpt>
      <trkpt lat="43.0934" lon="-0.49712">
        <ele>916.27</ele>
        <time>2015-08-29T07:12:02Z</time>
      </trkpt>
      <trkpt lat="43.09317" lon="-0.49687">
        <ele>920.12</ele>
        <time>2015-08-29T07:12:15Z</time>
      </trkpt>
      <trkpt lat="43.09309" lon="-0.49659">
        <ele>924.93</ele>
        <time>2015-08-29T07:12:27Z</time>
      </trkpt>
      <trkpt lat="43.0929" lon="-0.49626">
        <ele>930.69</ele>
        <time>2015-08-29T07:12:40Z</time>
      </trkpt>
      <trkpt lat="43.0927" lon="-0.49591">
        <ele>936.46</ele>
        <time>2015-08-29T07:12:53Z</time>
      </trkpt>
      <trkpt lat="43.09251" lon="-0.49566">
        <ele>939.35</ele>
        <time>2015-08-29T07:13:05Z</time>
      </trkpt>
      <trkpt lat="43.09229" lon="-0.49534">
        <ele>938.38</ele>
        <time>2015-08-29T07:13:20Z</time>
      </trkpt>
      <trkpt lat="43.09208" lon="-0.4951">
        <ele>940.31</ele>
        <time>2015-08-29T07:13:33Z</time>
      </trkpt>
      <trkpt lat="43.09189" lon="-0.49481">
        <ele>942.23</ele>
        <time>2015-08-29T07:13:45Z</time>
      </trkpt>
      <trkpt lat="43.09173" lon="-0.4945">
        <ele>947.52</ele>
        <time>2015-08-29T07:13:59Z</time>
      </trkpt>
      <trkpt lat="43.09173" lon="-0.49445">
        <ele>947.52</ele>
        <time>2015-08-29T07:14:01Z</time>
      </trkpt>
      <trkpt lat="43.09173" lon="-0.49432">
        <ele>948.48</ele>
        <time>2015-08-29T07:14:08Z</time>
      </trkpt>
      <trkpt lat="43.09162" lon="-0.494">
        <ele>954.73</ele>
        <time>2015-08-29T07:14:21Z</time>
      </trkpt>
      <trkpt lat="43.09153" lon="-0.49369">
        <ele>959.53</ele>
        <time>2015-08-29T07:14:32Z</time>
      </trkpt>
      <trkpt lat="43.0915" lon="-0.49358">
        <ele>959.53</ele>
        <time>2015-08-29T07:14:36Z</time>
      </trkpt>
      <trkpt lat="43.09149" lon="-0.49345">
        <ele>959.05</ele>
        <time>2015-08-29T07:14:40Z</time>
      </trkpt>
      <trkpt lat="43.09148" lon="-0.49293">
        <ele>955.21</ele>
        <time>2015-08-29T07:14:55Z</time>
      </trkpt>
      <trkpt lat="43.09151" lon="-0.49251">
        <ele>953.28</ele>
        <time>2015-08-29T07:15:09Z</time>
      </trkpt>
      <trkpt lat="43.09136" lon="-0.49227">
        <ele>946.56</ele>
        <time>2015-08-29T07:15:21Z</time>
      </trkpt>
      <trkpt lat="43.09119" lon="-0.49225">
        <ele>944.15</ele>
        <time>2015-08-29T07:15:31Z</time>
      </trkpt>
      <trkpt lat="43.09088" lon="-0.4923">
        <ele>944.63</ele>
        <time>2015-08-29T07:15:44Z</time>
      </trkpt>
      <trkpt lat="43.09059" lon="-0.49241">
        <ele>945.59</ele>
        <time>2015-08-29T07:15:57Z</time>
      </trkpt>
      <trkpt lat="43.09032" lon="-0.49257">
        <ele>947.04</ele>
        <time>2015-08-29T07:16:10Z</time>
      </trkpt>
      <trkpt lat="43.09015" lon="-0.49276">
        <ele>947.52</ele>
        <time>2015-08-29T07:16:21Z</time>
      </trkpt>
      <trkpt lat="43.08993" lon="-0.49294">
        <ele>950.4</ele>
        <time>2015-08-29T07:16:34Z</time>
      </trkpt>
      <trkpt lat="43.08974" lon="-0.49289">
        <ele>954.25</ele>
        <time>2015-08-29T07:16:45Z</time>
      </trkpt>
      <trkpt lat="43.08968" lon="-0.49286">
        <ele>954.73</ele>
        <time>2015-08-29T07:16:47Z</time>
      </trkpt>
      <trkpt lat="43.0897" lon="-0.49248">
        <ele>957.61</ele>
        <time>2015-08-29T07:16:59Z</time>
      </trkpt>
      <trkpt lat="43.08981" lon="-0.4921">
        <ele>959.53</ele>
        <time>2015-08-29T07:17:12Z</time>
      </trkpt>
      <trkpt lat="43.08987" lon="-0.49171">
        <ele>963.86</ele>
        <time>2015-08-29T07:17:24Z</time>
      </trkpt>
      <trkpt lat="43.08993" lon="-0.49143">
        <ele>965.3</ele>
        <time>2015-08-29T07:17:32Z</time>
      </trkpt>
      <trkpt lat="43.09001" lon="-0.491">
        <ele>965.3</ele>
        <time>2015-08-29T07:17:45Z</time>
      </trkpt>
      <trkpt lat="43.09008" lon="-0.49063">
        <ele>962.9</ele>
        <time>2015-08-29T07:17:59Z</time>
      </trkpt>
      <trkpt lat="43.08997" lon="-0.49025">
        <ele>965.78</ele>
        <time>2015-08-29T07:18:12Z</time>
      </trkpt>
      <trkpt lat="43.0898" lon="-0.48989">
        <ele>969.63</ele>
        <time>2015-08-29T07:18:24Z</time>
      </trkpt>
      <trkpt lat="43.08974" lon="-0.48978">
        <ele>970.59</ele>
        <time>2015-08-29T07:18:29Z</time>
      </trkpt>
      <trkpt lat="43.08963" lon="-0.48946">
        <ele>975.39</ele>
        <time>2015-08-29T07:18:43Z</time>
      </trkpt>
      <trkpt lat="43.08958" lon="-0.48925">
        <ele>979.72</ele>
        <time>2015-08-29T07:18:51Z</time>
      </trkpt>
      <trkpt lat="43.08955" lon="-0.48915">
        <ele>981.64</ele>
        <time>2015-08-29T07:18:55Z</time>
      </trkpt>
      <trkpt lat="43.08949" lon="-0.48879">
        <ele>987.41</ele>
        <time>2015-08-29T07:19:08Z</time>
      </trkpt>
      <trkpt lat="43.08938" lon="-0.48836">
        <ele>990.3</ele>
        <time>2015-08-29T07:19:22Z</time>
      </trkpt>
      <trkpt lat="43.0893" lon="-0.48796">
        <ele>991.74</ele>
        <time>2015-08-29T07:19:33Z</time>
      </trkpt>
      <trkpt lat="43.08927" lon="-0.4879">
        <ele>992.22</ele>
        <time>2015-08-29T07:19:35Z</time>
      </trkpt>
      <trkpt lat="43.08908" lon="-0.48754">
        <ele>992.22</ele>
        <time>2015-08-29T07:19:48Z</time>
      </trkpt>
      <trkpt lat="43.08888" lon="-0.48733">
        <ele>992.22</ele>
        <time>2015-08-29T07:20:01Z</time>
      </trkpt>
      <trkpt lat="43.08853" lon="-0.48726">
        <ele>991.74</ele>
        <time>2015-08-29T07:20:15Z</time>
      </trkpt>
      <trkpt lat="43.08819" lon="-0.48728">
        <ele>990.3</ele>
        <time>2015-08-29T07:20:30Z</time>
      </trkpt>
      <trkpt lat="43.0879" lon="-0.48727">
        <ele>990.78</ele>
        <time>2015-08-29T07:20:44Z</time>
      </trkpt>
      <trkpt lat="43.08787" lon="-0.48725">
        <ele>990.78</ele>
        <time>2015-08-29T07:20:46Z</time>
      </trkpt>
      <trkpt lat="43.08795" lon="-0.48698">
        <ele>994.14</ele>
        <time>2015-08-29T07:20:55Z</time>
      </trkpt>
      <trkpt lat="43.0881" lon="-0.48673">
        <ele>998.95</ele>
        <time>2015-08-29T07:21:05Z</time>
      </trkpt>
      <trkpt lat="43.08831" lon="-0.48638">
        <ele>1000.39</ele>
        <time>2015-08-29T07:21:17Z</time>
      </trkpt>
      <trkpt lat="43.08834" lon="-0.48606">
        <ele>1000.39</ele>
        <time>2015-08-29T07:21:29Z</time>
      </trkpt>
      <trkpt lat="43.08827" lon="-0.48573">
        <ele>1002.79</ele>
        <time>2015-08-29T07:21:42Z</time>
      </trkpt>
      <trkpt lat="43.08815" lon="-0.4854">
        <ele>1003.75</ele>
        <time>2015-08-29T07:21:56Z</time>
      </trkpt>
      <trkpt lat="43.08798" lon="-0.48502">
        <ele>1005.68</ele>
        <time>2015-08-29T07:22:10Z</time>
      </trkpt>
      <trkpt lat="43.08792" lon="-0.48488">
        <ele>1004.72</ele>
        <time>2015-08-29T07:22:16Z</time>
      </trkpt>
      <trkpt lat="43.08776" lon="-0.48463">
        <ele>1007.6</ele>
        <time>2015-08-29T07:22:29Z</time>
      </trkpt>
      <trkpt lat="43.08762" lon="-0.48429">
        <ele>1011.44</ele>
        <time>2015-08-29T07:22:43Z</time>
      </trkpt>
      <trkpt lat="43.08754" lon="-0.4841">
        <ele>1012.41</ele>
        <time>2015-08-29T07:22:51Z</time>
      </trkpt>
      <trkpt lat="43.08748" lon="-0.48399">
        <ele>1013.85</ele>
        <time>2015-08-29T07:22:56Z</time>
      </trkpt>
      <trkpt lat="43.08737" lon="-0.48361">
        <ele>1018.65</ele>
        <time>2015-08-29T07:23:12Z</time>
      </trkpt>
      <trkpt lat="43.08732" lon="-0.4833">
        <ele>1022.5</ele>
        <time>2015-08-29T07:23:25Z</time>
      </trkpt>
      <trkpt lat="43.08725" lon="-0.48288">
        <ele>1026.34</ele>
        <time>2015-08-29T07:23:39Z</time>
      </trkpt>
      <trkpt lat="43.087" lon="-0.48249">
        <ele>1032.11</ele>
        <time>2015-08-29T07:23:53Z</time>
      </trkpt>
      <trkpt lat="43.08675" lon="-0.48236">
        <ele>1027.79</ele>
        <time>2015-08-29T07:24:07Z</time>
      </trkpt>
      <trkpt lat="43.08658" lon="-0.48209">
        <ele>1031.15</ele>
        <time>2015-08-29T07:24:20Z</time>
      </trkpt>
      <trkpt lat="43.08652" lon="-0.48182">
        <ele>1035</ele>
        <time>2015-08-29T07:24:28Z</time>
      </trkpt>
      <trkpt lat="43.08661" lon="-0.48175">
        <ele>1037.4</ele>
        <time>2015-08-29T07:24:33Z</time>
      </trkpt>
      <trkpt lat="43.08677" lon="-0.48154">
        <ele>1041.73</ele>
        <time>2015-08-29T07:24:45Z</time>
      </trkpt>
      <trkpt lat="43.08684" lon="-0.48114">
        <ele>1041.25</ele>
        <time>2015-08-29T07:24:58Z</time>
      </trkpt>
      <trkpt lat="43.08685" lon="-0.48076">
        <ele>1041.73</ele>
        <time>2015-08-29T07:25:11Z</time>
      </trkpt>
      <trkpt lat="43.08672" lon="-0.48049">
        <ele>1039.8</ele>
        <time>2015-08-29T07:25:24Z</time>
      </trkpt>
      <trkpt lat="43.08651" lon="-0.48021">
        <ele>1038.84</ele>
        <time>2015-08-29T07:25:39Z</time>
      </trkpt>
      <trkpt lat="43.08625" lon="-0.47987">
        <ele>1038.36</ele>
        <time>2015-08-29T07:25:54Z</time>
      </trkpt>
      <trkpt lat="43.08604" lon="-0.47961">
        <ele>1041.73</ele>
        <time>2015-08-29T07:26:08Z</time>
      </trkpt>
      <trkpt lat="43.0859" lon="-0.47939">
        <ele>1045.09</ele>
        <time>2015-08-29T07:26:21Z</time>
      </trkpt>
      <trkpt lat="43.08576" lon="-0.47905">
        <ele>1051.82</ele>
        <time>2015-08-29T07:26:34Z</time>
      </trkpt>
      <trkpt lat="43.0857" lon="-0.47891">
        <ele>1052.3</ele>
        <time>2015-08-29T07:26:40Z</time>
      </trkpt>
      <trkpt lat="43.08553" lon="-0.47863">
        <ele>1056.63</ele>
        <time>2015-08-29T07:26:53Z</time>
      </trkpt>
      <trkpt lat="43.08541" lon="-0.47836">
        <ele>1059.99</ele>
        <time>2015-08-29T07:27:03Z</time>
      </trkpt>
      <trkpt lat="43.08527" lon="-0.47793">
        <ele>1062.87</ele>
        <time>2015-08-29T07:27:17Z</time>
      </trkpt>
      <trkpt lat="43.08521" lon="-0.47766">
        <ele>1066.72</ele>
        <time>2015-08-29T07:27:28Z</time>
      </trkpt>
      <trkpt lat="43.0851" lon="-0.47722">
        <ele>1069.12</ele>
        <time>2015-08-29T07:27:43Z</time>
      </trkpt>
      <trkpt lat="43.08501" lon="-0.47684">
        <ele>1069.12</ele>
        <time>2015-08-29T07:27:56Z</time>
      </trkpt>
      <trkpt lat="43.08491" lon="-0.4765">
        <ele>1068.16</ele>
        <time>2015-08-29T07:28:10Z</time>
      </trkpt>
      <trkpt lat="43.08482" lon="-0.47616">
        <ele>1070.08</ele>
        <time>2015-08-29T07:28:24Z</time>
      </trkpt>
      <trkpt lat="43.08476" lon="-0.47581">
        <ele>1073.45</ele>
        <time>2015-08-29T07:28:38Z</time>
      </trkpt>
      <trkpt lat="43.08479" lon="-0.47552">
        <ele>1071.53</ele>
        <time>2015-08-29T07:28:48Z</time>
      </trkpt>
      <trkpt lat="43.08485" lon="-0.47518">
        <ele>1066.72</ele>
        <time>2015-08-29T07:29:00Z</time>
      </trkpt>
      <trkpt lat="43.08496" lon="-0.47473">
        <ele>1062.39</ele>
        <time>2015-08-29T07:29:14Z</time>
      </trkpt>
      <trkpt lat="43.08508" lon="-0.47436">
        <ele>1057.59</ele>
        <time>2015-08-29T07:29:29Z</time>
      </trkpt>
      <trkpt lat="43.0851" lon="-0.47434">
        <ele>1058.07</ele>
        <time>2015-08-29T07:29:31Z</time>
      </trkpt>
      <trkpt lat="43.08511" lon="-0.47437">
        <ele>1059.03</ele>
        <time>2015-08-29T07:29:34Z</time>
      </trkpt>
      <trkpt lat="43.08506" lon="-0.47444">
        <ele>1058.55</ele>
        <time>2015-08-29T07:29:41Z</time>
      </trkpt>
      <trkpt lat="43.085" lon="-0.47435">
        <ele>1058.07</ele>
        <time>2015-08-29T07:29:54Z</time>
      </trkpt>
      <trkpt lat="43.08499" lon="-0.47435">
        <ele>1058.07</ele>
        <time>2015-08-29T07:30:00Z</time>
      </trkpt>
      <trkpt lat="43.085" lon="-0.47436">
        <ele>1058.07</ele>
        <time>2015-08-29T07:30:03Z</time>
      </trkpt>
      <trkpt lat="43.08503" lon="-0.47444">
        <ele>1057.11</ele>
        <time>2015-08-29T07:30:14Z</time>
      </trkpt>
      <trkpt lat="43.08503" lon="-0.47443">
        <ele>1057.11</ele>
        <time>2015-08-29T07:30:15Z</time>
      </trkpt>
      <trkpt lat="43.08502" lon="-0.47436">
        <ele>1056.15</ele>
        <time>2015-08-29T07:30:23Z</time>
      </trkpt>
      <trkpt lat="43.085" lon="-0.47437">
        <ele>1056.63</ele>
        <time>2015-08-29T07:30:37Z</time>
      </trkpt>
      <trkpt lat="43.085" lon="-0.47436">
        <ele>1057.11</ele>
        <time>2015-08-29T07:30:41Z</time>
      </trkpt>
      <trkpt lat="43.08502" lon="-0.47439">
        <ele>1058.55</ele>
        <time>2015-08-29T07:30:45Z</time>
      </trkpt>
      <trkpt lat="43.08503" lon="-0.47443">
        <ele>1060.47</ele>
        <time>2015-08-29T07:30:56Z</time>
      </trkpt>
      <trkpt lat="43.08502" lon="-0.47438">
        <ele>1062.39</ele>
        <time>2015-08-29T07:31:07Z</time>
      </trkpt>
      <trkpt lat="43.08502" lon="-0.4744">
        <ele>1063.36</ele>
        <time>2015-08-29T07:31:19Z</time>
      </trkpt>
      <trkpt lat="43.08504" lon="-0.4744">
        <ele>1064.32</ele>
        <time>2015-08-29T07:31:40Z</time>
      </trkpt>
      <trkpt lat="43.08504" lon="-0.47446">
        <ele>1063.84</ele>
        <time>2015-08-29T07:31:57Z</time>
      </trkpt>
      <trkpt lat="43.08504" lon="-0.47449">
        <ele>1062.87</ele>
        <time>2015-08-29T07:32:05Z</time>
      </trkpt>
      <trkpt lat="43.08502" lon="-0.47436">
        <ele>1063.84</ele>
        <time>2015-08-29T07:32:15Z</time>
      </trkpt>
      <trkpt lat="43.08504" lon="-0.47437">
        <ele>1063.84</ele>
        <time>2015-08-29T07:32:27Z</time>
      </trkpt>
      <trkpt lat="43.08506" lon="-0.47439">
        <ele>1064.8</ele>
        <time>2015-08-29T07:32:38Z</time>
      </trkpt>
      <trkpt lat="43.08505" lon="-0.47443">
        <ele>1064.32</ele>
        <time>2015-08-29T07:32:51Z</time>
      </trkpt>
      <trkpt lat="43.08504" lon="-0.47442">
        <ele>1064.32</ele>
        <time>2015-08-29T07:32:53Z</time>
      </trkpt>
      <trkpt lat="43.085" lon="-0.47439">
        <ele>1065.76</ele>
        <time>2015-08-29T07:33:05Z</time>
      </trkpt>
      <trkpt lat="43.08504" lon="-0.4744">
        <ele>1067.2</ele>
        <time>2015-08-29T07:33:18Z</time>
      </trkpt>
      <trkpt lat="43.08504" lon="-0.47442">
        <ele>1067.68</ele>
        <time>2015-08-29T07:33:23Z</time>
      </trkpt>
      <trkpt lat="43.08503" lon="-0.47443">
        <ele>1067.68</ele>
        <time>2015-08-29T07:33:31Z</time>
      </trkpt>
      <trkpt lat="43.08498" lon="-0.47433">
        <ele>1069.12</ele>
        <time>2015-08-29T07:33:42Z</time>
      </trkpt>
      <trkpt lat="43.08498" lon="-0.47434">
        <ele>1070.08</ele>
        <time>2015-08-29T07:33:55Z</time>
      </trkpt>
      <trkpt lat="43.08497" lon="-0.47429">
        <ele>1069.6</ele>
        <time>2015-08-29T07:34:09Z</time>
      </trkpt>
      <trkpt lat="43.08498" lon="-0.4743">
        <ele>1070.08</ele>
        <time>2015-08-29T07:34:25Z</time>
      </trkpt>
      <trkpt lat="43.08493" lon="-0.47435">
        <ele>1070.08</ele>
        <time>2015-08-29T07:34:48Z</time>
      </trkpt>
      <trkpt lat="43.08487" lon="-0.47443">
        <ele>1071.05</ele>
        <time>2015-08-29T07:34:58Z</time>
      </trkpt>
      <trkpt lat="43.08471" lon="-0.47474">
        <ele>1068.64</ele>
        <time>2015-08-29T07:35:16Z</time>
      </trkpt>
      <trkpt lat="43.08469" lon="-0.47477">
        <ele>1068.16</ele>
        <time>2015-08-29T07:35:18Z</time>
      </trkpt>
      <trkpt lat="43.08468" lon="-0.47481">
        <ele>1067.68</ele>
        <time>2015-08-29T07:35:20Z</time>
      </trkpt>
      <trkpt lat="43.08465" lon="-0.47489">
        <ele>1067.68</ele>
        <time>2015-08-29T07:35:24Z</time>
      </trkpt>
      <trkpt lat="43.08459" lon="-0.47523">
        <ele>1065.76</ele>
        <time>2015-08-29T07:35:41Z</time>
      </trkpt>
      <trkpt lat="43.08456" lon="-0.47528">
        <ele>1066.24</ele>
        <time>2015-08-29T07:35:44Z</time>
      </trkpt>
      <trkpt lat="43.08447" lon="-0.47547">
        <ele>1067.68</ele>
        <time>2015-08-29T07:35:54Z</time>
      </trkpt>
      <trkpt lat="43.08441" lon="-0.47584">
        <ele>1068.64</ele>
        <time>2015-08-29T07:36:11Z</time>
      </trkpt>
      <trkpt lat="43.08439" lon="-0.47611">
        <ele>1073.93</ele>
        <time>2015-08-29T07:36:24Z</time>
      </trkpt>
      <trkpt lat="43.08438" lon="-0.47639">
        <ele>1077.29</ele>
        <time>2015-08-29T07:36:38Z</time>
      </trkpt>
      <trkpt lat="43.08435" lon="-0.47652">
        <ele>1082.58</ele>
        <time>2015-08-29T07:36:47Z</time>
      </trkpt>
      <trkpt lat="43.08435" lon="-0.47657">
        <ele>1084.02</ele>
        <time>2015-08-29T07:36:50Z</time>
      </trkpt>
      <trkpt lat="43.08431" lon="-0.47696">
        <ele>1088.35</ele>
        <time>2015-08-29T07:37:07Z</time>
      </trkpt>
      <trkpt lat="43.08428" lon="-0.47706">
        <ele>1087.87</ele>
        <time>2015-08-29T07:37:12Z</time>
      </trkpt>
      <trkpt lat="43.08426" lon="-0.4774">
        <ele>1086.91</ele>
        <time>2015-08-29T07:37:27Z</time>
      </trkpt>
      <trkpt lat="43.08426" lon="-0.47776">
        <ele>1088.35</ele>
        <time>2015-08-29T07:37:41Z</time>
      </trkpt>
      <trkpt lat="43.0843" lon="-0.47806">
        <ele>1087.39</ele>
        <time>2015-08-29T07:37:55Z</time>
      </trkpt>
      <trkpt lat="43.08434" lon="-0.47837">
        <ele>1091.23</ele>
        <time>2015-08-29T07:38:08Z</time>
      </trkpt>
      <trkpt lat="43.0844" lon="-0.4788">
        <ele>1091.23</ele>
        <time>2015-08-29T07:38:25Z</time>
      </trkpt>
      <trkpt lat="43.0845" lon="-0.47907">
        <ele>1094.6</ele>
        <time>2015-08-29T07:38:39Z</time>
      </trkpt>
      <trkpt lat="43.0846" lon="-0.47935">
        <ele>1099.4</ele>
        <time>2015-08-29T07:38:53Z</time>
      </trkpt>
      <trkpt lat="43.08459" lon="-0.47964">
        <ele>1102.77</ele>
        <time>2015-08-29T07:39:04Z</time>
      </trkpt>
      <trkpt lat="43.08458" lon="-0.47996">
        <ele>1107.1</ele>
        <time>2015-08-29T07:39:16Z</time>
      </trkpt>
      <trkpt lat="43.08454" lon="-0.48016">
        <ele>1107.1</ele>
        <time>2015-08-29T07:39:24Z</time>
      </trkpt>
      <trkpt lat="43.08432" lon="-0.48022">
        <ele>1108.54</ele>
        <time>2015-08-29T07:39:38Z</time>
      </trkpt>
      <trkpt lat="43.08414" lon="-0.48025">
        <ele>1110.46</ele>
        <time>2015-08-29T07:39:49Z</time>
      </trkpt>
      <trkpt lat="43.08393" lon="-0.48029">
        <ele>1116.23</ele>
        <time>2015-08-29T07:40:01Z</time>
      </trkpt>
      <trkpt lat="43.08369" lon="-0.48037">
        <ele>1120.07</ele>
        <time>2015-08-29T07:40:15Z</time>
      </trkpt>
      <trkpt lat="43.08337" lon="-0.48045">
        <ele>1124.88</ele>
        <time>2015-08-29T07:40:33Z</time>
      </trkpt>
      <trkpt lat="43.08322" lon="-0.48044">
        <ele>1126.32</ele>
        <time>2015-08-29T07:40:41Z</time>
      </trkpt>
      <trkpt lat="43.08304" lon="-0.48055">
        <ele>1126.8</ele>
        <time>2015-08-29T07:40:54Z</time>
      </trkpt>
      <trkpt lat="43.08307" lon="-0.48067">
        <ele>1128.24</ele>
        <time>2015-08-29T07:40:57Z</time>
      </trkpt>
      <trkpt lat="43.0833" lon="-0.48091">
        <ele>1132.09</ele>
        <time>2015-08-29T07:41:10Z</time>
      </trkpt>
      <trkpt lat="43.08345" lon="-0.4811">
        <ele>1133.53</ele>
        <time>2015-08-29T07:41:22Z</time>
      </trkpt>
      <trkpt lat="43.08364" lon="-0.48131">
        <ele>1135.94</ele>
        <time>2015-08-29T07:41:36Z</time>
      </trkpt>
      <trkpt lat="43.08382" lon="-0.48151">
        <ele>1139.3</ele>
        <time>2015-08-29T07:41:50Z</time>
      </trkpt>
      <trkpt lat="43.08398" lon="-0.4818">
        <ele>1142.18</ele>
        <time>2015-08-29T07:42:05Z</time>
      </trkpt>
      <trkpt lat="43.08413" lon="-0.48206">
        <ele>1144.59</ele>
        <time>2015-08-29T07:42:18Z</time>
      </trkpt>
      <trkpt lat="43.08429" lon="-0.48239">
        <ele>1146.99</ele>
        <time>2015-08-29T07:42:34Z</time>
      </trkpt>
      <trkpt lat="43.08435" lon="-0.48275">
        <ele>1150.35</ele>
        <time>2015-08-29T07:42:49Z</time>
      </trkpt>
      <trkpt lat="43.08437" lon="-0.48307">
        <ele>1150.35</ele>
        <time>2015-08-29T07:43:02Z</time>
      </trkpt>
      <trkpt lat="43.08439" lon="-0.48336">
        <ele>1150.84</ele>
        <time>2015-08-29T07:43:14Z</time>
      </trkpt>
      <trkpt lat="43.08442" lon="-0.48361">
        <ele>1153.72</ele>
        <time>2015-08-29T07:43:25Z</time>
      </trkpt>
      <trkpt lat="43.0845" lon="-0.48395">
        <ele>1158.05</ele>
        <time>2015-08-29T07:43:38Z</time>
      </trkpt>
      <trkpt lat="43.08454" lon="-0.48425">
        <ele>1159.97</ele>
        <time>2015-08-29T07:43:51Z</time>
      </trkpt>
      <trkpt lat="43.08454" lon="-0.4843">
        <ele>1159.01</ele>
        <time>2015-08-29T07:43:53Z</time>
      </trkpt>
      <trkpt lat="43.08446" lon="-0.48443">
        <ele>1159.01</ele>
        <time>2015-08-29T07:44:00Z</time>
      </trkpt>
      <trkpt lat="43.08422" lon="-0.48443">
        <ele>1159.97</ele>
        <time>2015-08-29T07:44:15Z</time>
      </trkpt>
      <trkpt lat="43.08404" lon="-0.48419">
        <ele>1160.45</ele>
        <time>2015-08-29T07:44:28Z</time>
      </trkpt>
      <trkpt lat="43.08388" lon="-0.48396">
        <ele>1162.37</ele>
        <time>2015-08-29T07:44:41Z</time>
      </trkpt>
      <trkpt lat="43.08367" lon="-0.4837">
        <ele>1166.22</ele>
        <time>2015-08-29T07:44:56Z</time>
      </trkpt>
      <trkpt lat="43.08349" lon="-0.48336">
        <ele>1169.58</ele>
        <time>2015-08-29T07:45:13Z</time>
      </trkpt>
      <trkpt lat="43.08334" lon="-0.48309">
        <ele>1171.98</ele>
        <time>2015-08-29T07:45:26Z</time>
      </trkpt>
      <trkpt lat="43.08316" lon="-0.48284">
        <ele>1172.95</ele>
        <time>2015-08-29T07:45:39Z</time>
      </trkpt>
      <trkpt lat="43.083" lon="-0.48258">
        <ele>1174.39</ele>
        <time>2015-08-29T07:45:52Z</time>
      </trkpt>
      <trkpt lat="43.08279" lon="-0.48225">
        <ele>1175.35</ele>
        <time>2015-08-29T07:46:09Z</time>
      </trkpt>
      <trkpt lat="43.08248" lon="-0.48205">
        <ele>1177.27</ele>
        <time>2015-08-29T07:46:25Z</time>
      </trkpt>
      <trkpt lat="43.08221" lon="-0.48215">
        <ele>1177.75</ele>
        <time>2015-08-29T07:46:38Z</time>
      </trkpt>
      <trkpt lat="43.08196" lon="-0.48227">
        <ele>1178.71</ele>
        <time>2015-08-29T07:46:51Z</time>
      </trkpt>
      <trkpt lat="43.08167" lon="-0.4824">
        <ele>1181.12</ele>
        <time>2015-08-29T07:47:06Z</time>
      </trkpt>
      <trkpt lat="43.08148" lon="-0.48267">
        <ele>1183.52</ele>
        <time>2015-08-29T07:47:20Z</time>
      </trkpt>
      <trkpt lat="43.08138" lon="-0.48302">
        <ele>1186.4</ele>
        <time>2015-08-29T07:47:34Z</time>
      </trkpt>
      <trkpt lat="43.08136" lon="-0.48355">
        <ele>1186.4</ele>
        <time>2015-08-29T07:47:49Z</time>
      </trkpt>
      <trkpt lat="43.08127" lon="-0.48396">
        <ele>1186.88</ele>
        <time>2015-08-29T07:48:02Z</time>
      </trkpt>
      <trkpt lat="43.08128" lon="-0.48438">
        <ele>1188.81</ele>
        <time>2015-08-29T07:48:15Z</time>
      </trkpt>
      <trkpt lat="43.08127" lon="-0.48472">
        <ele>1188.33</ele>
        <time>2015-08-29T07:48:27Z</time>
      </trkpt>
      <trkpt lat="43.08128" lon="-0.4852">
        <ele>1189.29</ele>
        <time>2015-08-29T07:48:42Z</time>
      </trkpt>
      <trkpt lat="43.08125" lon="-0.48571">
        <ele>1192.65</ele>
        <time>2015-08-29T07:48:58Z</time>
      </trkpt>
      <trkpt lat="43.08111" lon="-0.48615">
        <ele>1194.58</ele>
        <time>2015-08-29T07:49:12Z</time>
      </trkpt>
      <trkpt lat="43.08085" lon="-0.48651">
        <ele>1198.42</ele>
        <time>2015-08-29T07:49:27Z</time>
      </trkpt>
      <trkpt lat="43.08057" lon="-0.48692">
        <ele>1200.34</ele>
        <time>2015-08-29T07:49:44Z</time>
      </trkpt>
      <trkpt lat="43.08042" lon="-0.48735">
        <ele>1201.79</ele>
        <time>2015-08-29T07:49:59Z</time>
      </trkpt>
      <trkpt lat="43.0802" lon="-0.48775">
        <ele>1203.71</ele>
        <time>2015-08-29T07:50:16Z</time>
      </trkpt>
      <trkpt lat="43.08019" lon="-0.48776">
        <ele>1203.71</ele>
        <time>2015-08-29T07:50:17Z</time>
      </trkpt>
      <trkpt lat="43.0798" lon="-0.48771">
        <ele>1204.19</ele>
        <time>2015-08-29T07:50:32Z</time>
      </trkpt>
      <trkpt lat="43.07954" lon="-0.48765">
        <ele>1207.07</ele>
        <time>2015-08-29T07:50:44Z</time>
      </trkpt>
      <trkpt lat="43.07938" lon="-0.4873">
        <ele>1208.51</ele>
        <time>2015-08-29T07:50:58Z</time>
      </trkpt>
      <trkpt lat="43.07927" lon="-0.48688">
        <ele>1211.88</ele>
        <time>2015-08-29T07:51:13Z</time>
      </trkpt>
      <trkpt lat="43.07908" lon="-0.48656">
        <ele>1215.72</ele>
        <time>2015-08-29T07:51:31Z</time>
      </trkpt>
      <trkpt lat="43.07892" lon="-0.48632">
        <ele>1220.05</ele>
        <time>2015-08-29T07:51:46Z</time>
      </trkpt>
      <trkpt lat="43.07869" lon="-0.48612">
        <ele>1224.38</ele>
        <time>2015-08-29T07:52:03Z</time>
      </trkpt>
      <trkpt lat="43.07864" lon="-0.48609">
        <ele>1224.86</ele>
        <time>2015-08-29T07:52:07Z</time>
      </trkpt>
      <trkpt lat="43.07841" lon="-0.48605">
        <ele>1227.74</ele>
        <time>2015-08-29T07:52:23Z</time>
      </trkpt>
      <trkpt lat="43.07815" lon="-0.48592">
        <ele>1231.11</ele>
        <time>2015-08-29T07:52:41Z</time>
      </trkpt>
      <trkpt lat="43.07798" lon="-0.48581">
        <ele>1233.51</ele>
        <time>2015-08-29T07:52:54Z</time>
      </trkpt>
      <trkpt lat="43.07795" lon="-0.48579">
        <ele>1234.47</ele>
        <time>2015-08-29T07:52:56Z</time>
      </trkpt>
      <trkpt lat="43.07783" lon="-0.48575">
        <ele>1235.43</ele>
        <time>2015-08-29T07:53:05Z</time>
      </trkpt>
      <trkpt lat="43.07793" lon="-0.48568">
        <ele>1237.83</ele>
        <time>2015-08-29T07:53:16Z</time>
      </trkpt>
      <trkpt lat="43.07802" lon="-0.48565">
        <ele>1238.32</ele>
        <time>2015-08-29T07:53:22Z</time>
      </trkpt>
      <trkpt lat="43.07823" lon="-0.48556">
        <ele>1240.24</ele>
        <time>2015-08-29T07:53:38Z</time>
      </trkpt>
      <trkpt lat="43.07843" lon="-0.48538">
        <ele>1244.08</ele>
        <time>2015-08-29T07:53:53Z</time>
      </trkpt>
      <trkpt lat="43.0785" lon="-0.48531">
        <ele>1245.53</ele>
        <time>2015-08-29T07:54:00Z</time>
      </trkpt>
      <trkpt lat="43.07867" lon="-0.48514">
        <ele>1247.45</ele>
        <time>2015-08-29T07:54:14Z</time>
      </trkpt>
      <trkpt lat="43.07885" lon="-0.48499">
        <ele>1249.85</ele>
        <time>2015-08-29T07:54:29Z</time>
      </trkpt>
      <trkpt lat="43.07903" lon="-0.48475">
        <ele>1252.74</ele>
        <time>2015-08-29T07:54:46Z</time>
      </trkpt>
      <trkpt lat="43.07921" lon="-0.48445">
        <ele>1256.58</ele>
        <time>2015-08-29T07:55:04Z</time>
      </trkpt>
      <trkpt lat="43.07935" lon="-0.48418">
        <ele>1259.94</ele>
        <time>2015-08-29T07:55:20Z</time>
      </trkpt>
      <trkpt lat="43.07937" lon="-0.4839">
        <ele>1262.35</ele>
        <time>2015-08-29T07:55:34Z</time>
      </trkpt>
      <trkpt lat="43.07922" lon="-0.48358">
        <ele>1261.87</ele>
        <time>2015-08-29T07:55:50Z</time>
      </trkpt>
      <trkpt lat="43.07911" lon="-0.48337">
        <ele>1262.83</ele>
        <time>2015-08-29T07:56:04Z</time>
      </trkpt>
      <trkpt lat="43.0791" lon="-0.48335">
        <ele>1262.83</ele>
        <time>2015-08-29T07:56:05Z</time>
      </trkpt>
      <trkpt lat="43.07901" lon="-0.48322">
        <ele>1262.35</ele>
        <time>2015-08-29T07:56:18Z</time>
      </trkpt>
      <trkpt lat="43.07901" lon="-0.48321">
        <ele>1261.87</ele>
        <time>2015-08-29T07:56:27Z</time>
      </trkpt>
      <trkpt lat="43.07902" lon="-0.48319">
        <ele>1261.87</ele>
        <time>2015-08-29T07:56:29Z</time>
      </trkpt>
      <trkpt lat="43.07901" lon="-0.48317">
        <ele>1261.39</ele>
        <time>2015-08-29T07:56:41Z</time>
      </trkpt>
      <trkpt lat="43.07902" lon="-0.48317">
        <ele>1261.39</ele>
        <time>2015-08-29T07:56:44Z</time>
      </trkpt>
      <trkpt lat="43.07903" lon="-0.48316">
        <ele>1260.91</ele>
        <time>2015-08-29T07:56:46Z</time>
      </trkpt>
      <trkpt lat="43.07906" lon="-0.48317">
        <ele>1260.43</ele>
        <time>2015-08-29T07:56:59Z</time>
      </trkpt>
      <trkpt lat="43.07905" lon="-0.48317">
        <ele>1260.43</ele>
        <time>2015-08-29T07:57:26Z</time>
      </trkpt>
      <trkpt lat="43.07905" lon="-0.48317">
        <ele>1260.43</ele>
        <time>2015-08-29T07:57:50Z</time>
      </trkpt>
      <trkpt lat="43.07905" lon="-0.48317">
        <ele>1259.94</ele>
        <time>2015-08-29T07:58:12Z</time>
      </trkpt>
      <trkpt lat="43.07906" lon="-0.48318">
        <ele>1259.94</ele>
        <time>2015-08-29T07:58:29Z</time>
      </trkpt>
      <trkpt lat="43.07905" lon="-0.48317">
        <ele>1259.94</ele>
        <time>2015-08-29T07:58:47Z</time>
      </trkpt>
      <trkpt lat="43.07904" lon="-0.48316">
        <ele>1258.98</ele>
        <time>2015-08-29T07:59:08Z</time>
      </trkpt>
      <trkpt lat="43.07902" lon="-0.48317">
        <ele>1258.02</ele>
        <time>2015-08-29T07:59:24Z</time>
      </trkpt>
      <trkpt lat="43.07901" lon="-0.48316">
        <ele>1258.5</ele>
        <time>2015-08-29T07:59:35Z</time>
      </trkpt>
      <trkpt lat="43.07901" lon="-0.48316">
        <ele>1258.5</ele>
        <time>2015-08-29T07:59:55Z</time>
      </trkpt>
      <trkpt lat="43.07901" lon="-0.48316">
        <ele>1258.02</ele>
        <time>2015-08-29T08:00:26Z</time>
      </trkpt>
      <trkpt lat="43.079" lon="-0.48317">
        <ele>1258.02</ele>
        <time>2015-08-29T08:00:31Z</time>
      </trkpt>
      <trkpt lat="43.07901" lon="-0.48321">
        <ele>1258.5</ele>
        <time>2015-08-29T08:00:39Z</time>
      </trkpt>
      <trkpt lat="43.07901" lon="-0.48321">
        <ele>1258.5</ele>
        <time>2015-08-29T08:01:13Z</time>
      </trkpt>
      <trkpt lat="43.079" lon="-0.48321">
        <ele>1258.98</ele>
        <time>2015-08-29T08:01:36Z</time>
      </trkpt>
      <trkpt lat="43.07901" lon="-0.48321">
        <ele>1258.98</ele>
        <time>2015-08-29T08:01:47Z</time>
      </trkpt>
      <trkpt lat="43.07902" lon="-0.4832">
        <ele>1258.02</ele>
        <time>2015-08-29T08:02:01Z</time>
      </trkpt>
      <trkpt lat="43.07901" lon="-0.48293">
        <ele>1256.58</ele>
        <time>2015-08-29T08:02:13Z</time>
      </trkpt>
      <trkpt lat="43.0789" lon="-0.48261">
        <ele>1252.74</ele>
        <time>2015-08-29T08:02:22Z</time>
      </trkpt>
      <trkpt lat="43.07882" lon="-0.48229">
        <ele>1248.41</ele>
        <time>2015-08-29T08:02:32Z</time>
      </trkpt>
      <trkpt lat="43.07877" lon="-0.48213">
        <ele>1246.97</ele>
        <time>2015-08-29T08:02:39Z</time>
      </trkpt>
      <trkpt lat="43.07866" lon="-0.48196">
        <ele>1246.01</ele>
        <time>2015-08-29T08:02:48Z</time>
      </trkpt>
      <trkpt lat="43.07856" lon="-0.48183">
        <ele>1247.45</ele>
        <time>2015-08-29T08:02:56Z</time>
      </trkpt>
      <trkpt lat="43.07847" lon="-0.48178">
        <ele>1247.93</ele>
        <time>2015-08-29T08:03:02Z</time>
      </trkpt>
      <trkpt lat="43.07841" lon="-0.48175">
        <ele>1247.93</ele>
        <time>2015-08-29T08:03:06Z</time>
      </trkpt>
      <trkpt lat="43.07825" lon="-0.48155">
        <ele>1247.45</ele>
        <time>2015-08-29T08:03:16Z</time>
      </trkpt>
      <trkpt lat="43.07814" lon="-0.48135">
        <ele>1245.53</ele>
        <time>2015-08-29T08:03:25Z</time>
      </trkpt>
      <trkpt lat="43.0781" lon="-0.48127">
        <ele>1244.56</ele>
        <time>2015-08-29T08:03:28Z</time>
      </trkpt>
      <trkpt lat="43.07807" lon="-0.48126">
        <ele>1243.6</ele>
        <time>2015-08-29T08:03:30Z</time>
      </trkpt>
      <trkpt lat="43.07804" lon="-0.48126">
        <ele>1243.12</ele>
        <time>2015-08-29T08:03:34Z</time>
      </trkpt>
      <trkpt lat="43.07799" lon="-0.48126">
        <ele>1245.04</ele>
        <time>2015-08-29T08:03:45Z</time>
      </trkpt>
      <trkpt lat="43.07798" lon="-0.48126">
        <ele>1245.53</ele>
        <time>2015-08-29T08:04:00Z</time>
      </trkpt>
      <trkpt lat="43.07798" lon="-0.48128">
        <ele>1246.01</ele>
        <time>2015-08-29T08:04:16Z</time>
      </trkpt>
      <trkpt lat="43.07799" lon="-0.48126">
        <ele>1245.53</ele>
        <time>2015-08-29T08:04:29Z</time>
      </trkpt>
      <trkpt lat="43.07798" lon="-0.48125">
        <ele>1245.53</ele>
        <time>2015-08-29T08:04:33Z</time>
      </trkpt>
      <trkpt lat="43.07797" lon="-0.48107">
        <ele>1246.49</ele>
        <time>2015-08-29T08:04:44Z</time>
      </trkpt>
      <trkpt lat="43.07786" lon="-0.481">
        <ele>1246.97</ele>
        <time>2015-08-29T08:05:56Z</time>
      </trkpt>
      <trkpt lat="43.07764" lon="-0.48085">
        <ele>1246.49</ele>
        <time>2015-08-29T08:06:05Z</time>
      </trkpt>
      <trkpt lat="43.07755" lon="-0.48092">
        <ele>1246.97</ele>
        <time>2015-08-29T08:06:08Z</time>
      </trkpt>
      <trkpt lat="43.07749" lon="-0.48109">
        <ele>1249.85</ele>
        <time>2015-08-29T08:06:19Z</time>
      </trkpt>
      <trkpt lat="43.07734" lon="-0.48094">
        <ele>1250.33</ele>
        <time>2015-08-29T08:06:34Z</time>
      </trkpt>
      <trkpt lat="43.0772" lon="-0.48078">
        <ele>1252.25</ele>
        <time>2015-08-29T08:06:47Z</time>
      </trkpt>
      <trkpt lat="43.07711" lon="-0.48056">
        <ele>1254.18</ele>
        <time>2015-08-29T08:06:59Z</time>
      </trkpt>
      <trkpt lat="43.07711" lon="-0.48053">
        <ele>1254.66</ele>
        <time>2015-08-29T08:07:01Z</time>
      </trkpt>
      <trkpt lat="43.07711" lon="-0.48048">
        <ele>1254.66</ele>
        <time>2015-08-29T08:07:04Z</time>
      </trkpt>
      <trkpt lat="43.07705" lon="-0.48043">
        <ele>1255.62</ele>
        <time>2015-08-29T08:07:10Z</time>
      </trkpt>
      <trkpt lat="43.07692" lon="-0.48014">
        <ele>1258.98</ele>
        <time>2015-08-29T08:07:27Z</time>
      </trkpt>
      <trkpt lat="43.07679" lon="-0.47989">
        <ele>1259.46</ele>
        <time>2015-08-29T08:07:39Z</time>
      </trkpt>
      <trkpt lat="43.07677" lon="-0.47984">
        <ele>1258.98</ele>
        <time>2015-08-29T08:07:41Z</time>
      </trkpt>
      <trkpt lat="43.07671" lon="-0.47979">
        <ele>1259.46</ele>
        <time>2015-08-29T08:07:50Z</time>
      </trkpt>
      <trkpt lat="43.07664" lon="-0.47969">
        <ele>1259.46</ele>
        <time>2015-08-29T08:07:56Z</time>
      </trkpt>
      <trkpt lat="43.07653" lon="-0.47963">
        <ele>1258.02</ele>
        <time>2015-08-29T08:08:03Z</time>
      </trkpt>
      <trkpt lat="43.07635" lon="-0.47948">
        <ele>1260.43</ele>
        <time>2015-08-29T08:08:17Z</time>
      </trkpt>
      <trkpt lat="43.07627" lon="-0.47941">
        <ele>1262.83</ele>
        <time>2015-08-29T08:08:25Z</time>
      </trkpt>
      <trkpt lat="43.07622" lon="-0.4794">
        <ele>1263.79</ele>
        <time>2015-08-29T08:08:29Z</time>
      </trkpt>
      <trkpt lat="43.07606" lon="-0.47932">
        <ele>1265.23</ele>
        <time>2015-08-29T08:08:43Z</time>
      </trkpt>
      <trkpt lat="43.07598" lon="-0.47923">
        <ele>1267.16</ele>
        <time>2015-08-29T08:08:56Z</time>
      </trkpt>
      <trkpt lat="43.07598" lon="-0.47923">
        <ele>1267.16</ele>
        <time>2015-08-29T08:08:58Z</time>
      </trkpt>
      <trkpt lat="43.07596" lon="-0.47923">
        <ele>1267.64</ele>
        <time>2015-08-29T08:09:00Z</time>
      </trkpt>
      <trkpt lat="43.07593" lon="-0.47922">
        <ele>1268.12</ele>
        <time>2015-08-29T08:09:03Z</time>
      </trkpt>
      <trkpt lat="43.07592" lon="-0.47921">
        <ele>1268.6</ele>
        <time>2015-08-29T08:09:05Z</time>
      </trkpt>
      <trkpt lat="43.07576" lon="-0.47917">
        <ele>1271.48</ele>
        <time>2015-08-29T08:09:18Z</time>
      </trkpt>
      <trkpt lat="43.0757" lon="-0.47913">
        <ele>1272.92</ele>
        <time>2015-08-29T08:09:23Z</time>
      </trkpt>
      <trkpt lat="43.07563" lon="-0.47909">
        <ele>1273.4</ele>
        <time>2015-08-29T08:09:30Z</time>
      </trkpt>
      <trkpt lat="43.07561" lon="-0.47906">
        <ele>1273.88</ele>
        <time>2015-08-29T08:09:33Z</time>
      </trkpt>
      <trkpt lat="43.07552" lon="-0.47898">
        <ele>1276.77</ele>
        <time>2015-08-29T08:09:47Z</time>
      </trkpt>
      <trkpt lat="43.07549" lon="-0.47895">
        <ele>1276.77</ele>
        <time>2015-08-29T08:09:50Z</time>
      </trkpt>
      <trkpt lat="43.07535" lon="-0.47891">
        <ele>1278.69</ele>
        <time>2015-08-29T08:10:01Z</time>
      </trkpt>
      <trkpt lat="43.07521" lon="-0.47884">
        <ele>1279.65</ele>
        <time>2015-08-29T08:10:14Z</time>
      </trkpt>
      <trkpt lat="43.07519" lon="-0.47884">
        <ele>1279.65</ele>
        <time>2015-08-29T08:10:16Z</time>
      </trkpt>
      <trkpt lat="43.07513" lon="-0.47883">
        <ele>1280.13</ele>
        <time>2015-08-29T08:10:22Z</time>
      </trkpt>
      <trkpt lat="43.07511" lon="-0.47881">
        <ele>1280.13</ele>
        <time>2015-08-29T08:10:24Z</time>
      </trkpt>
      <trkpt lat="43.07518" lon="-0.47871">
        <ele>1281.09</ele>
        <time>2015-08-29T08:10:35Z</time>
      </trkpt>
      <trkpt lat="43.07519" lon="-0.4787">
        <ele>1281.57</ele>
        <time>2015-08-29T08:10:36Z</time>
      </trkpt>
      <trkpt lat="43.07521" lon="-0.47866">
        <ele>1282.54</ele>
        <time>2015-08-29T08:10:40Z</time>
      </trkpt>
      <trkpt lat="43.07527" lon="-0.47858">
        <ele>1283.02</ele>
        <time>2015-08-29T08:10:48Z</time>
      </trkpt>
      <trkpt lat="43.07533" lon="-0.47853">
        <ele>1283.98</ele>
        <time>2015-08-29T08:10:54Z</time>
      </trkpt>
      <trkpt lat="43.07541" lon="-0.4784">
        <ele>1285.9</ele>
        <time>2015-08-29T08:11:05Z</time>
      </trkpt>
      <trkpt lat="43.07542" lon="-0.47831">
        <ele>1286.86</ele>
        <time>2015-08-29T08:11:14Z</time>
      </trkpt>
      <trkpt lat="43.07526" lon="-0.4782">
        <ele>1288.3</ele>
        <time>2015-08-29T08:11:29Z</time>
      </trkpt>
      <trkpt lat="43.07526" lon="-0.47819">
        <ele>1288.78</ele>
        <time>2015-08-29T08:11:42Z</time>
      </trkpt>
      <trkpt lat="43.07526" lon="-0.47819">
        <ele>1287.82</ele>
        <time>2015-08-29T08:12:05Z</time>
      </trkpt>
      <trkpt lat="43.07525" lon="-0.47818">
        <ele>1287.82</ele>
        <time>2015-08-29T08:12:31Z</time>
      </trkpt>
      <trkpt lat="43.07525" lon="-0.47818">
        <ele>1287.82</ele>
        <time>2015-08-29T08:12:43Z</time>
      </trkpt>
      <trkpt lat="43.07527" lon="-0.47828">
        <ele>1287.34</ele>
        <time>2015-08-29T08:12:51Z</time>
      </trkpt>
      <trkpt lat="43.0753" lon="-0.47829">
        <ele>1286.86</ele>
        <time>2015-08-29T08:12:53Z</time>
      </trkpt>
      <trkpt lat="43.07535" lon="-0.47818">
        <ele>1286.86</ele>
        <time>2015-08-29T08:13:02Z</time>
      </trkpt>
      <trkpt lat="43.07531" lon="-0.47811">
        <ele>1287.82</ele>
        <time>2015-08-29T08:13:07Z</time>
      </trkpt>
      <trkpt lat="43.07533" lon="-0.47807">
        <ele>1288.78</ele>
        <time>2015-08-29T08:13:10Z</time>
      </trkpt>
      <trkpt lat="43.07534" lon="-0.47805">
        <ele>1289.75</ele>
        <time>2015-08-29T08:13:12Z</time>
      </trkpt>
      <trkpt lat="43.07536" lon="-0.47799">
        <ele>1290.71</ele>
        <time>2015-08-29T08:13:16Z</time>
      </trkpt>
      <trkpt lat="43.0754" lon="-0.47798">
        <ele>1291.19</ele>
        <time>2015-08-29T08:13:20Z</time>
      </trkpt>
      <trkpt lat="43.07548" lon="-0.47812">
        <ele>1289.75</ele>
        <time>2015-08-29T08:13:28Z</time>
      </trkpt>
      <trkpt lat="43.07559" lon="-0.47823">
        <ele>1287.34</ele>
        <time>2015-08-29T08:13:34Z</time>
      </trkpt>
      <trkpt lat="43.0757" lon="-0.47844">
        <ele>1282.54</ele>
        <time>2015-08-29T08:13:43Z</time>
      </trkpt>
      <trkpt lat="43.07593" lon="-0.47865">
        <ele>1276.77</ele>
        <time>2015-08-29T08:13:56Z</time>
      </trkpt>
      <trkpt lat="43.07601" lon="-0.47868">
        <ele>1275.33</ele>
        <time>2015-08-29T08:14:00Z</time>
      </trkpt>
      <trkpt lat="43.07619" lon="-0.4787">
        <ele>1271.96</ele>
        <time>2015-08-29T08:14:11Z</time>
      </trkpt>
      <trkpt lat="43.07623" lon="-0.47865">
        <ele>1269.56</ele>
        <time>2015-08-29T08:14:22Z</time>
      </trkpt>
      <trkpt lat="43.07623" lon="-0.47865">
        <ele>1269.08</ele>
        <time>2015-08-29T08:14:26Z</time>
      </trkpt>
      <trkpt lat="43.07625" lon="-0.47865">
        <ele>1268.6</ele>
        <time>2015-08-29T08:14:28Z</time>
      </trkpt>
      <trkpt lat="43.07631" lon="-0.47862">
        <ele>1268.6</ele>
        <time>2015-08-29T08:14:34Z</time>
      </trkpt>
      <trkpt lat="43.07635" lon="-0.47859">
        <ele>1268.6</ele>
        <time>2015-08-29T08:14:38Z</time>
      </trkpt>
      <trkpt lat="43.0764" lon="-0.47855">
        <ele>1268.6</ele>
        <time>2015-08-29T08:14:43Z</time>
      </trkpt>
      <trkpt lat="43.07642" lon="-0.47853">
        <ele>1269.08</ele>
        <time>2015-08-29T08:14:52Z</time>
      </trkpt>
      <trkpt lat="43.07643" lon="-0.47852">
        <ele>1269.08</ele>
        <time>2015-08-29T08:14:53Z</time>
      </trkpt>
      <trkpt lat="43.07641" lon="-0.47823">
        <ele>1268.6</ele>
        <time>2015-08-29T08:15:06Z</time>
      </trkpt>
      <trkpt lat="43.07649" lon="-0.47802">
        <ele>1270.52</ele>
        <time>2015-08-29T08:15:18Z</time>
      </trkpt>
      <trkpt lat="43.07651" lon="-0.47799">
        <ele>1271.48</ele>
        <time>2015-08-29T08:15:24Z</time>
      </trkpt>
      <trkpt lat="43.07655" lon="-0.47799">
        <ele>1274.36</ele>
        <time>2015-08-29T08:15:36Z</time>
      </trkpt>
      <trkpt lat="43.07656" lon="-0.478">
        <ele>1275.81</ele>
        <time>2015-08-29T08:15:42Z</time>
      </trkpt>
      <trkpt lat="43.0766" lon="-0.47793">
        <ele>1274.36</ele>
        <time>2015-08-29T08:15:57Z</time>
      </trkpt>
      <trkpt lat="43.07659" lon="-0.47793">
        <ele>1272.44</ele>
        <time>2015-08-29T08:16:10Z</time>
      </trkpt>
      <trkpt lat="43.07673" lon="-0.47778">
        <ele>1273.88</ele>
        <time>2015-08-29T08:16:21Z</time>
      </trkpt>
      <trkpt lat="43.07679" lon="-0.47764">
        <ele>1274.85</ele>
        <time>2015-08-29T08:16:27Z</time>
      </trkpt>
      <trkpt lat="43.07689" lon="-0.47754">
        <ele>1275.33</ele>
        <time>2015-08-29T08:16:37Z</time>
      </trkpt>
      <trkpt lat="43.07697" lon="-0.47755">
        <ele>1277.25</ele>
        <time>2015-08-29T08:16:45Z</time>
      </trkpt>
      <trkpt lat="43.07705" lon="-0.47753">
        <ele>1280.13</ele>
        <time>2015-08-29T08:16:54Z</time>
      </trkpt>
      <trkpt lat="43.07708" lon="-0.47754">
        <ele>1280.61</ele>
        <time>2015-08-29T08:16:56Z</time>
      </trkpt>
      <trkpt lat="43.07711" lon="-0.47754">
        <ele>1281.09</ele>
        <time>2015-08-29T08:17:10Z</time>
      </trkpt>
      <trkpt lat="43.07711" lon="-0.47754">
        <ele>1280.61</ele>
        <time>2015-08-29T08:17:20Z</time>
      </trkpt>
      <trkpt lat="43.07715" lon="-0.47748">
        <ele>1280.13</ele>
        <time>2015-08-29T08:17:23Z</time>
      </trkpt>
      <trkpt lat="43.07718" lon="-0.47736">
        <ele>1278.69</ele>
        <time>2015-08-29T08:17:31Z</time>
      </trkpt>
      <trkpt lat="43.07721" lon="-0.47731">
        <ele>1278.21</ele>
        <time>2015-08-29T08:17:45Z</time>
      </trkpt>
      <trkpt lat="43.07721" lon="-0.47729">
        <ele>1277.73</ele>
        <time>2015-08-29T08:18:06Z</time>
      </trkpt>
      <trkpt lat="43.07721" lon="-0.47729">
        <ele>1276.77</ele>
        <time>2015-08-29T08:18:25Z</time>
      </trkpt>
      <trkpt lat="43.0772" lon="-0.4773">
        <ele>1276.77</ele>
        <time>2015-08-29T08:18:41Z</time>
      </trkpt>
      <trkpt lat="43.07721" lon="-0.4773">
        <ele>1276.77</ele>
        <time>2015-08-29T08:18:59Z</time>
      </trkpt>
      <trkpt lat="43.07723" lon="-0.47729">
        <ele>1276.77</ele>
        <time>2015-08-29T08:19:01Z</time>
      </trkpt>
      <trkpt lat="43.07735" lon="-0.47708">
        <ele>1278.21</ele>
        <time>2015-08-29T08:19:15Z</time>
      </trkpt>
      <trkpt lat="43.07741" lon="-0.47694">
        <ele>1279.65</ele>
        <time>2015-08-29T08:19:24Z</time>
      </trkpt>
      <trkpt lat="43.07742" lon="-0.4769">
        <ele>1279.65</ele>
        <time>2015-08-29T08:19:27Z</time>
      </trkpt>
      <trkpt lat="43.07751" lon="-0.47672">
        <ele>1280.61</ele>
        <time>2015-08-29T08:19:41Z</time>
      </trkpt>
      <trkpt lat="43.07753" lon="-0.47667">
        <ele>1281.09</ele>
        <time>2015-08-29T08:19:44Z</time>
      </trkpt>
      <trkpt lat="43.07755" lon="-0.47657">
        <ele>1280.61</ele>
        <time>2015-08-29T08:19:50Z</time>
      </trkpt>
      <trkpt lat="43.07767" lon="-0.47641">
        <ele>1283.02</ele>
        <time>2015-08-29T08:20:03Z</time>
      </trkpt>
      <trkpt lat="43.0777" lon="-0.47638">
        <ele>1283.5</ele>
        <time>2015-08-29T08:20:06Z</time>
      </trkpt>
      <trkpt lat="43.07772" lon="-0.47626">
        <ele>1284.94</ele>
        <time>2015-08-29T08:20:13Z</time>
      </trkpt>
      <trkpt lat="43.07759" lon="-0.47613">
        <ele>1286.86</ele>
        <time>2015-08-29T08:20:25Z</time>
      </trkpt>
      <trkpt lat="43.07757" lon="-0.47608">
        <ele>1286.86</ele>
        <time>2015-08-29T08:20:29Z</time>
      </trkpt>
      <trkpt lat="43.07751" lon="-0.476">
        <ele>1286.86</ele>
        <time>2015-08-29T08:20:36Z</time>
      </trkpt>
      <trkpt lat="43.07749" lon="-0.4758">
        <ele>1288.78</ele>
        <time>2015-08-29T08:20:49Z</time>
      </trkpt>
      <trkpt lat="43.0774" lon="-0.47583">
        <ele>1290.71</ele>
        <time>2015-08-29T08:20:57Z</time>
      </trkpt>
      <trkpt lat="43.07726" lon="-0.47598">
        <ele>1293.11</ele>
        <time>2015-08-29T08:21:13Z</time>
      </trkpt>
      <trkpt lat="43.0772" lon="-0.47605">
        <ele>1294.07</ele>
        <time>2015-08-29T08:21:19Z</time>
      </trkpt>
      <trkpt lat="43.07717" lon="-0.47607">
        <ele>1294.07</ele>
        <time>2015-08-29T08:21:23Z</time>
      </trkpt>
      <trkpt lat="43.07709" lon="-0.47612">
        <ele>1294.55</ele>
        <time>2015-08-29T08:21:31Z</time>
      </trkpt>
      <trkpt lat="43.07707" lon="-0.47608">
        <ele>1294.07</ele>
        <time>2015-08-29T08:21:35Z</time>
      </trkpt>
      <trkpt lat="43.07704" lon="-0.47584">
        <ele>1298.88</ele>
        <time>2015-08-29T08:21:51Z</time>
      </trkpt>
      <trkpt lat="43.07704" lon="-0.47556">
        <ele>1301.76</ele>
        <time>2015-08-29T08:22:04Z</time>
      </trkpt>
      <trkpt lat="43.07706" lon="-0.47529">
        <ele>1302.24</ele>
        <time>2015-08-29T08:22:17Z</time>
      </trkpt>
      <trkpt lat="43.077" lon="-0.47493">
        <ele>1302.24</ele>
        <time>2015-08-29T08:22:32Z</time>
      </trkpt>
      <trkpt lat="43.07697" lon="-0.47466">
        <ele>1302.24</ele>
        <time>2015-08-29T08:22:43Z</time>
      </trkpt>
      <trkpt lat="43.07694" lon="-0.47426">
        <ele>1302.24</ele>
        <time>2015-08-29T08:22:55Z</time>
      </trkpt>
      <trkpt lat="43.07689" lon="-0.47403">
        <ele>1303.2</ele>
        <time>2015-08-29T08:23:05Z</time>
      </trkpt>
      <trkpt lat="43.0769" lon="-0.47373">
        <ele>1303.69</ele>
        <time>2015-08-29T08:23:18Z</time>
      </trkpt>
      <trkpt lat="43.07681" lon="-0.47357">
        <ele>1304.65</ele>
        <time>2015-08-29T08:23:27Z</time>
      </trkpt>
      <trkpt lat="43.07677" lon="-0.47351">
        <ele>1304.17</ele>
        <time>2015-08-29T08:23:37Z</time>
      </trkpt>
      <trkpt lat="43.07678" lon="-0.47343">
        <ele>1307.05</ele>
        <time>2015-08-29T08:23:49Z</time>
      </trkpt>
      <trkpt lat="43.07681" lon="-0.47339">
        <ele>1310.41</ele>
        <time>2015-08-29T08:23:58Z</time>
      </trkpt>
      <trkpt lat="43.07677" lon="-0.47331">
        <ele>1311.86</ele>
        <time>2015-08-29T08:24:10Z</time>
      </trkpt>
      <trkpt lat="43.07676" lon="-0.4733">
        <ele>1311.86</ele>
        <time>2015-08-29T08:24:37Z</time>
      </trkpt>
      <trkpt lat="43.07674" lon="-0.4732">
        <ele>1311.86</ele>
        <time>2015-08-29T08:24:53Z</time>
      </trkpt>
      <trkpt lat="43.07663" lon="-0.47304">
        <ele>1313.3</ele>
        <time>2015-08-29T08:25:04Z</time>
      </trkpt>
      <trkpt lat="43.07661" lon="-0.473">
        <ele>1314.26</ele>
        <time>2015-08-29T08:25:08Z</time>
      </trkpt>
      <trkpt lat="43.07658" lon="-0.47284">
        <ele>1313.78</ele>
        <time>2015-08-29T08:25:19Z</time>
      </trkpt>
      <trkpt lat="43.07658" lon="-0.47274">
        <ele>1312.34</ele>
        <time>2015-08-29T08:25:22Z</time>
      </trkpt>
      <trkpt lat="43.07652" lon="-0.47268">
        <ele>1311.38</ele>
        <time>2015-08-29T08:25:36Z</time>
      </trkpt>
      <trkpt lat="43.07653" lon="-0.47269">
        <ele>1312.34</ele>
        <time>2015-08-29T08:25:58Z</time>
      </trkpt>
      <trkpt lat="43.07653" lon="-0.47268">
        <ele>1312.82</ele>
        <time>2015-08-29T08:26:23Z</time>
      </trkpt>
      <trkpt lat="43.07653" lon="-0.47269">
        <ele>1312.82</ele>
        <time>2015-08-29T08:26:38Z</time>
      </trkpt>
      <trkpt lat="43.07652" lon="-0.47266">
        <ele>1312.82</ele>
        <time>2015-08-29T08:26:51Z</time>
      </trkpt>
      <trkpt lat="43.07652" lon="-0.47253">
        <ele>1311.86</ele>
        <time>2015-08-29T08:26:55Z</time>
      </trkpt>
      <trkpt lat="43.07655" lon="-0.4722">
        <ele>1310.41</ele>
        <time>2015-08-29T08:27:08Z</time>
      </trkpt>
      <trkpt lat="43.07659" lon="-0.47199">
        <ele>1308.97</ele>
        <time>2015-08-29T08:27:19Z</time>
      </trkpt>
      <trkpt lat="43.07658" lon="-0.47177">
        <ele>1306.57</ele>
        <time>2015-08-29T08:27:29Z</time>
      </trkpt>
      <trkpt lat="43.07662" lon="-0.47151">
        <ele>1302.72</ele>
        <time>2015-08-29T08:27:39Z</time>
      </trkpt>
      <trkpt lat="43.07662" lon="-0.4715">
        <ele>1302.72</ele>
        <time>2015-08-29T08:27:40Z</time>
      </trkpt>
      <trkpt lat="43.07663" lon="-0.47145">
        <ele>1301.76</ele>
        <time>2015-08-29T08:27:49Z</time>
      </trkpt>
      <trkpt lat="43.07664" lon="-0.4714">
        <ele>1299.84</ele>
        <time>2015-08-29T08:27:55Z</time>
      </trkpt>
      <trkpt lat="43.07665" lon="-0.47134">
        <ele>1298.88</ele>
        <time>2015-08-29T08:28:00Z</time>
      </trkpt>
      <trkpt lat="43.07666" lon="-0.47127">
        <ele>1296.96</ele>
        <time>2015-08-29T08:28:06Z</time>
      </trkpt>
      <trkpt lat="43.07665" lon="-0.47124">
        <ele>1295.51</ele>
        <time>2015-08-29T08:28:20Z</time>
      </trkpt>
      <trkpt lat="43.07664" lon="-0.47124">
        <ele>1295.99</ele>
        <time>2015-08-29T08:28:44Z</time>
      </trkpt>
      <trkpt lat="43.07664" lon="-0.47125">
        <ele>1296.48</ele>
        <time>2015-08-29T08:29:04Z</time>
      </trkpt>
      <trkpt lat="43.07666" lon="-0.47125">
        <ele>1296.96</ele>
        <time>2015-08-29T08:29:19Z</time>
      </trkpt>
      <trkpt lat="43.07669" lon="-0.47119">
        <ele>1295.99</ele>
        <time>2015-08-29T08:29:34Z</time>
      </trkpt>
      <trkpt lat="43.07674" lon="-0.47082">
        <ele>1288.3</ele>
        <time>2015-08-29T08:29:46Z</time>
      </trkpt>
      <trkpt lat="43.0768" lon="-0.47072">
        <ele>1285.9</ele>
        <time>2015-08-29T08:29:50Z</time>
      </trkpt>
      <trkpt lat="43.07682" lon="-0.47031">
        <ele>1277.73</ele>
        <time>2015-08-29T08:30:01Z</time>
      </trkpt>
      <trkpt lat="43.07691" lon="-0.46973">
        <ele>1269.08</ele>
        <time>2015-08-29T08:30:14Z</time>
      </trkpt>
      <trkpt lat="43.07692" lon="-0.46936">
        <ele>1263.31</ele>
        <time>2015-08-29T08:30:23Z</time>
      </trkpt>
      <trkpt lat="43.07691" lon="-0.46909">
        <ele>1259.94</ele>
        <time>2015-08-29T08:30:31Z</time>
      </trkpt>
      <trkpt lat="43.07692" lon="-0.46868">
        <ele>1255.62</ele>
        <time>2015-08-29T08:30:41Z</time>
      </trkpt>
      <trkpt lat="43.07694" lon="-0.4684">
        <ele>1251.77</ele>
        <time>2015-08-29T08:30:50Z</time>
      </trkpt>
      <trkpt lat="43.07694" lon="-0.46839">
        <ele>1251.29</ele>
        <time>2015-08-29T08:30:52Z</time>
      </trkpt>
      <trkpt lat="43.07692" lon="-0.46834">
        <ele>1250.33</ele>
        <time>2015-08-29T08:30:54Z</time>
      </trkpt>
      <trkpt lat="43.07692" lon="-0.4683">
        <ele>1249.85</ele>
        <time>2015-08-29T08:30:55Z</time>
      </trkpt>
      <trkpt lat="43.0769" lon="-0.46806">
        <ele>1246.97</ele>
        <time>2015-08-29T08:31:03Z</time>
      </trkpt>
      <trkpt lat="43.0769" lon="-0.46803">
        <ele>1246.49</ele>
        <time>2015-08-29T08:31:04Z</time>
      </trkpt>
      <trkpt lat="43.07689" lon="-0.46799">
        <ele>1246.01</ele>
        <time>2015-08-29T08:31:05Z</time>
      </trkpt>
      <trkpt lat="43.0769" lon="-0.46795">
        <ele>1245.04</ele>
        <time>2015-08-29T08:31:06Z</time>
      </trkpt>
      <trkpt lat="43.0769" lon="-0.46793">
        <ele>1245.04</ele>
        <time>2015-08-29T08:31:07Z</time>
      </trkpt>
      <trkpt lat="43.07691" lon="-0.4679">
        <ele>1244.56</ele>
        <time>2015-08-29T08:31:08Z</time>
      </trkpt>
      <trkpt lat="43.07693" lon="-0.46781">
        <ele>1243.12</ele>
        <time>2015-08-29T08:31:12Z</time>
      </trkpt>
      <trkpt lat="43.07693" lon="-0.46778">
        <ele>1242.64</ele>
        <time>2015-08-29T08:31:13Z</time>
      </trkpt>
      <trkpt lat="43.07694" lon="-0.46739">
        <ele>1238.32</ele>
        <time>2015-08-29T08:31:23Z</time>
      </trkpt>
      <trkpt lat="43.07693" lon="-0.46694">
        <ele>1233.51</ele>
        <time>2015-08-29T08:31:35Z</time>
      </trkpt>
      <trkpt lat="43.07693" lon="-0.46694">
        <ele>1233.51</ele>
        <time>2015-08-29T08:31:44Z</time>
      </trkpt>
      <trkpt lat="43.07693" lon="-0.46694">
        <ele>1234.47</ele>
        <time>2015-08-29T08:31:59Z</time>
      </trkpt>
      <trkpt lat="43.07693" lon="-0.46695">
        <ele>1235.43</ele>
        <time>2015-08-29T08:32:14Z</time>
      </trkpt>
      <trkpt lat="43.07693" lon="-0.46695">
        <ele>1237.35</ele>
        <time>2015-08-29T08:32:30Z</time>
      </trkpt>
      <trkpt lat="43.07692" lon="-0.46696">
        <ele>1237.83</ele>
        <time>2015-08-29T08:32:59Z</time>
      </trkpt>
      <trkpt lat="43.07693" lon="-0.46696">
        <ele>1237.35</ele>
        <time>2015-08-29T08:33:30Z</time>
      </trkpt>
      <trkpt lat="43.07693" lon="-0.46696">
        <ele>1237.35</ele>
        <time>2015-08-29T08:33:56Z</time>
      </trkpt>
      <trkpt lat="43.07693" lon="-0.46695">
        <ele>1237.83</ele>
        <time>2015-08-29T08:34:07Z</time>
      </trkpt>
      <trkpt lat="43.07693" lon="-0.46695">
        <ele>1237.83</ele>
        <time>2015-08-29T08:34:20Z</time>
      </trkpt>
      <trkpt lat="43.07692" lon="-0.46695">
        <ele>1237.83</ele>
        <time>2015-08-29T08:34:40Z</time>
      </trkpt>
      <trkpt lat="43.07692" lon="-0.46692">
        <ele>1237.35</ele>
        <time>2015-08-29T08:34:45Z</time>
      </trkpt>
      <trkpt lat="43.07686" lon="-0.46658">
        <ele>1233.03</ele>
        <time>2015-08-29T08:34:55Z</time>
      </trkpt>
      <trkpt lat="43.07683" lon="-0.46621">
        <ele>1229.18</ele>
        <time>2015-08-29T08:35:04Z</time>
      </trkpt>
      <trkpt lat="43.07683" lon="-0.46603">
        <ele>1227.74</ele>
        <time>2015-08-29T08:35:13Z</time>
      </trkpt>
      <trkpt lat="43.07683" lon="-0.46603">
        <ele>1227.26</ele>
        <time>2015-08-29T08:35:18Z</time>
      </trkpt>
      <trkpt lat="43.07683" lon="-0.46598">
        <ele>1226.78</ele>
        <time>2015-08-29T08:35:21Z</time>
      </trkpt>
      <trkpt lat="43.0768" lon="-0.46582">
        <ele>1223.9</ele>
        <time>2015-08-29T08:35:26Z</time>
      </trkpt>
      <trkpt lat="43.07676" lon="-0.46535">
        <ele>1217.65</ele>
        <time>2015-08-29T08:35:37Z</time>
      </trkpt>
      <trkpt lat="43.07667" lon="-0.46498">
        <ele>1212.84</ele>
        <time>2015-08-29T08:35:47Z</time>
      </trkpt>
      <trkpt lat="43.07645" lon="-0.46471">
        <ele>1209.48</ele>
        <time>2015-08-29T08:35:59Z</time>
      </trkpt>
      <trkpt lat="43.07627" lon="-0.46456">
        <ele>1206.11</ele>
        <time>2015-08-29T08:36:09Z</time>
      </trkpt>
      <trkpt lat="43.07628" lon="-0.46456">
        <ele>1205.63</ele>
        <time>2015-08-29T08:36:20Z</time>
      </trkpt>
      <trkpt lat="43.07627" lon="-0.46454">
        <ele>1206.11</ele>
        <time>2015-08-29T08:36:34Z</time>
      </trkpt>
      <trkpt lat="43.07627" lon="-0.46455">
        <ele>1205.63</ele>
        <time>2015-08-29T08:36:55Z</time>
      </trkpt>
      <trkpt lat="43.07627" lon="-0.46455">
        <ele>1206.11</ele>
        <time>2015-08-29T08:37:11Z</time>
      </trkpt>
      <trkpt lat="43.07627" lon="-0.46455">
        <ele>1206.59</ele>
        <time>2015-08-29T08:37:33Z</time>
      </trkpt>
      <trkpt lat="43.07628" lon="-0.46455">
        <ele>1207.55</ele>
        <time>2015-08-29T08:37:52Z</time>
      </trkpt>
      <trkpt lat="43.07627" lon="-0.46454">
        <ele>1207.55</ele>
        <time>2015-08-29T08:38:19Z</time>
      </trkpt>
      <trkpt lat="43.07627" lon="-0.46455">
        <ele>1208.51</ele>
        <time>2015-08-29T08:38:31Z</time>
      </trkpt>
      <trkpt lat="43.07626" lon="-0.46455">
        <ele>1208.51</ele>
        <time>2015-08-29T08:38:43Z</time>
      </trkpt>
      <trkpt lat="43.07626" lon="-0.46455">
        <ele>1208.03</ele>
        <time>2015-08-29T08:39:06Z</time>
      </trkpt>
      <trkpt lat="43.07626" lon="-0.46455">
        <ele>1208.03</ele>
        <time>2015-08-29T08:39:17Z</time>
      </trkpt>
      <trkpt lat="43.07611" lon="-0.46436">
        <ele>1208.51</ele>
        <time>2015-08-29T08:39:27Z</time>
      </trkpt>
      <trkpt lat="43.0759" lon="-0.46417">
        <ele>1207.07</ele>
        <time>2015-08-29T08:39:37Z</time>
      </trkpt>
      <trkpt lat="43.07565" lon="-0.46392">
        <ele>1205.15</ele>
        <time>2015-08-29T08:39:47Z</time>
      </trkpt>
      <trkpt lat="43.07549" lon="-0.46379">
        <ele>1203.23</ele>
        <time>2015-08-29T08:39:54Z</time>
      </trkpt>
      <trkpt lat="43.07547" lon="-0.46377">
        <ele>1203.23</ele>
        <time>2015-08-29T08:39:55Z</time>
      </trkpt>
      <trkpt lat="43.07521" lon="-0.46355">
        <ele>1199.86</ele>
        <time>2015-08-29T08:40:06Z</time>
      </trkpt>
      <trkpt lat="43.07496" lon="-0.46333">
        <ele>1196.5</ele>
        <time>2015-08-29T08:40:16Z</time>
      </trkpt>
      <trkpt lat="43.0747" lon="-0.46306">
        <ele>1194.09</ele>
        <time>2015-08-29T08:40:26Z</time>
      </trkpt>
      <trkpt lat="43.07456" lon="-0.46292">
        <ele>1194.09</ele>
        <time>2015-08-29T08:40:30Z</time>
      </trkpt>
      <trkpt lat="43.07425" lon="-0.46267">
        <ele>1191.21</ele>
        <time>2015-08-29T08:40:39Z</time>
      </trkpt>
      <trkpt lat="43.07419" lon="-0.46258">
        <ele>1191.21</ele>
        <time>2015-08-29T08:40:41Z</time>
      </trkpt>
      <trkpt lat="43.07417" lon="-0.46253">
        <ele>1190.73</ele>
        <time>2015-08-29T08:40:42Z</time>
      </trkpt>
      <trkpt lat="43.07405" lon="-0.46229">
        <ele>1189.29</ele>
        <time>2015-08-29T08:40:47Z</time>
      </trkpt>
      <trkpt lat="43.07403" lon="-0.46223">
        <ele>1189.29</ele>
        <time>2015-08-29T08:40:48Z</time>
      </trkpt>
      <trkpt lat="43.07402" lon="-0.46217">
        <ele>1189.29</ele>
        <time>2015-08-29T08:40:49Z</time>
      </trkpt>
      <trkpt lat="43.074" lon="-0.46211">
        <ele>1189.29</ele>
        <time>2015-08-29T08:40:50Z</time>
      </trkpt>
      <trkpt lat="43.07399" lon="-0.46206">
        <ele>1189.29</ele>
        <time>2015-08-29T08:40:51Z</time>
      </trkpt>
      <trkpt lat="43.07398" lon="-0.462">
        <ele>1189.29</ele>
        <time>2015-08-29T08:40:52Z</time>
      </trkpt>
      <trkpt lat="43.07397" lon="-0.46195">
        <ele>1188.81</ele>
        <time>2015-08-29T08:40:53Z</time>
      </trkpt>
      <trkpt lat="43.07396" lon="-0.46183">
        <ele>1188.33</ele>
        <time>2015-08-29T08:40:55Z</time>
      </trkpt>
      <trkpt lat="43.07392" lon="-0.46166">
        <ele>1187.85</ele>
        <time>2015-08-29T08:40:58Z</time>
      </trkpt>
      <trkpt lat="43.07391" lon="-0.4616">
        <ele>1187.37</ele>
        <time>2015-08-29T08:40:59Z</time>
      </trkpt>
      <trkpt lat="43.07389" lon="-0.46154">
        <ele>1187.37</ele>
        <time>2015-08-29T08:41:00Z</time>
      </trkpt>
      <trkpt lat="43.07388" lon="-0.46148">
        <ele>1186.88</ele>
        <time>2015-08-29T08:41:01Z</time>
      </trkpt>
      <trkpt lat="43.07387" lon="-0.46143">
        <ele>1186.88</ele>
        <time>2015-08-29T08:41:02Z</time>
      </trkpt>
      <trkpt lat="43.0738" lon="-0.46102">
        <ele>1184.48</ele>
        <time>2015-08-29T08:41:11Z</time>
      </trkpt>
      <trkpt lat="43.07373" lon="-0.46062">
        <ele>1180.64</ele>
        <time>2015-08-29T08:41:20Z</time>
      </trkpt>
      <trkpt lat="43.07366" lon="-0.46029">
        <ele>1175.83</ele>
        <time>2015-08-29T08:41:31Z</time>
      </trkpt>
      <trkpt lat="43.07364" lon="-0.46027">
        <ele>1174.87</ele>
        <time>2015-08-29T08:41:32Z</time>
      </trkpt>
      <trkpt lat="43.07363" lon="-0.46025">
        <ele>1174.39</ele>
        <time>2015-08-29T08:41:33Z</time>
      </trkpt>
      <trkpt lat="43.07362" lon="-0.46021">
        <ele>1173.43</ele>
        <time>2015-08-29T08:41:34Z</time>
      </trkpt>
      <trkpt lat="43.07362" lon="-0.46018">
        <ele>1172.95</ele>
        <time>2015-08-29T08:41:35Z</time>
      </trkpt>
      <trkpt lat="43.07363" lon="-0.46016">
        <ele>1171.98</ele>
        <time>2015-08-29T08:41:36Z</time>
      </trkpt>
      <trkpt lat="43.07364" lon="-0.46013">
        <ele>1171.5</ele>
        <time>2015-08-29T08:41:37Z</time>
      </trkpt>
      <trkpt lat="43.07364" lon="-0.46011">
        <ele>1171.02</ele>
        <time>2015-08-29T08:41:38Z</time>
      </trkpt>
      <trkpt lat="43.07366" lon="-0.46009">
        <ele>1170.54</ele>
        <time>2015-08-29T08:41:39Z</time>
      </trkpt>
      <trkpt lat="43.07367" lon="-0.46005">
        <ele>1170.06</ele>
        <time>2015-08-29T08:41:40Z</time>
      </trkpt>
      <trkpt lat="43.07367" lon="-0.46002">
        <ele>1169.1</ele>
        <time>2015-08-29T08:41:41Z</time>
      </trkpt>
      <trkpt lat="43.07367" lon="-0.45998">
        <ele>1168.62</ele>
        <time>2015-08-29T08:41:42Z</time>
      </trkpt>
      <trkpt lat="43.07367" lon="-0.45995">
        <ele>1168.14</ele>
        <time>2015-08-29T08:41:43Z</time>
      </trkpt>
      <trkpt lat="43.07367" lon="-0.45992">
        <ele>1167.66</ele>
        <time>2015-08-29T08:41:44Z</time>
      </trkpt>
      <trkpt lat="43.07367" lon="-0.45984">
        <ele>1166.7</ele>
        <time>2015-08-29T08:41:46Z</time>
      </trkpt>
      <trkpt lat="43.07368" lon="-0.45981">
        <ele>1166.7</ele>
        <time>2015-08-29T08:41:47Z</time>
      </trkpt>
      <trkpt lat="43.0737" lon="-0.45936">
        <ele>1162.85</ele>
        <time>2015-08-29T08:41:59Z</time>
      </trkpt>
      <trkpt lat="43.07371" lon="-0.45895">
        <ele>1159.01</ele>
        <time>2015-08-29T08:42:09Z</time>
      </trkpt>
      <trkpt lat="43.0737" lon="-0.45891">
        <ele>1158.53</ele>
        <time>2015-08-29T08:42:10Z</time>
      </trkpt>
      <trkpt lat="43.0737" lon="-0.45888">
        <ele>1158.05</ele>
        <time>2015-08-29T08:42:11Z</time>
      </trkpt>
      <trkpt lat="43.07369" lon="-0.45856">
        <ele>1156.12</ele>
        <time>2015-08-29T08:42:21Z</time>
      </trkpt>
      <trkpt lat="43.07368" lon="-0.45853">
        <ele>1155.16</ele>
        <time>2015-08-29T08:42:22Z</time>
      </trkpt>
      <trkpt lat="43.07368" lon="-0.4585">
        <ele>1154.68</ele>
        <time>2015-08-29T08:42:23Z</time>
      </trkpt>
      <trkpt lat="43.07368" lon="-0.45845">
        <ele>1154.2</ele>
        <time>2015-08-29T08:42:24Z</time>
      </trkpt>
      <trkpt lat="43.07369" lon="-0.4584">
        <ele>1154.2</ele>
        <time>2015-08-29T08:42:25Z</time>
      </trkpt>
      <trkpt lat="43.07368" lon="-0.45824">
        <ele>1153.24</ele>
        <time>2015-08-29T08:42:28Z</time>
      </trkpt>
      <trkpt lat="43.07369" lon="-0.45818">
        <ele>1152.76</ele>
        <time>2015-08-29T08:42:29Z</time>
      </trkpt>
      <trkpt lat="43.07369" lon="-0.45799">
        <ele>1151.8</ele>
        <time>2015-08-29T08:42:33Z</time>
      </trkpt>
      <trkpt lat="43.07369" lon="-0.45793">
        <ele>1151.32</ele>
        <time>2015-08-29T08:42:34Z</time>
      </trkpt>
      <trkpt lat="43.07369" lon="-0.45787">
        <ele>1150.84</ele>
        <time>2015-08-29T08:42:35Z</time>
      </trkpt>
      <trkpt lat="43.07369" lon="-0.45759">
        <ele>1148.43</ele>
        <time>2015-08-29T08:42:44Z</time>
      </trkpt>
      <trkpt lat="43.0737" lon="-0.45738">
        <ele>1145.07</ele>
        <time>2015-08-29T08:42:52Z</time>
      </trkpt>
      <trkpt lat="43.07369" lon="-0.45737">
        <ele>1144.59</ele>
        <time>2015-08-29T08:42:53Z</time>
      </trkpt>
      <trkpt lat="43.07368" lon="-0.45734">
        <ele>1144.59</ele>
        <time>2015-08-29T08:42:54Z</time>
      </trkpt>
      <trkpt lat="43.07368" lon="-0.45732">
        <ele>1144.11</ele>
        <time>2015-08-29T08:42:55Z</time>
      </trkpt>
      <trkpt lat="43.07368" lon="-0.45728">
        <ele>1143.63</ele>
        <time>2015-08-29T08:42:56Z</time>
      </trkpt>
      <trkpt lat="43.07368" lon="-0.45725">
        <ele>1143.63</ele>
        <time>2015-08-29T08:42:57Z</time>
      </trkpt>
      <trkpt lat="43.07368" lon="-0.45718">
        <ele>1142.66</ele>
        <time>2015-08-29T08:43:06Z</time>
      </trkpt>
      <trkpt lat="43.07368" lon="-0.45718">
        <ele>1142.18</ele>
        <time>2015-08-29T08:43:28Z</time>
      </trkpt>
      <trkpt lat="43.07368" lon="-0.45719">
        <ele>1142.66</ele>
        <time>2015-08-29T08:43:55Z</time>
      </trkpt>
      <trkpt lat="43.07367" lon="-0.45719">
        <ele>1143.14</ele>
        <time>2015-08-29T08:44:19Z</time>
      </trkpt>
      <trkpt lat="43.07366" lon="-0.45717">
        <ele>1143.14</ele>
        <time>2015-08-29T08:44:38Z</time>
      </trkpt>
      <trkpt lat="43.07365" lon="-0.45717">
        <ele>1143.63</ele>
        <time>2015-08-29T08:44:49Z</time>
      </trkpt>
      <trkpt lat="43.07364" lon="-0.45717">
        <ele>1143.14</ele>
        <time>2015-08-29T08:45:11Z</time>
      </trkpt>
      <trkpt lat="43.07364" lon="-0.45717">
        <ele>1143.14</ele>
        <time>2015-08-29T08:45:13Z</time>
      </trkpt>
      <trkpt lat="43.07364" lon="-0.45715">
        <ele>1143.14</ele>
        <time>2015-08-29T08:45:14Z</time>
      </trkpt>
      <trkpt lat="43.07365" lon="-0.45712">
        <ele>1143.14</ele>
        <time>2015-08-29T08:45:15Z</time>
      </trkpt>
      <trkpt lat="43.07365" lon="-0.45709">
        <ele>1143.14</ele>
        <time>2015-08-29T08:45:16Z</time>
      </trkpt>
      <trkpt lat="43.07364" lon="-0.45706">
        <ele>1142.18</ele>
        <time>2015-08-29T08:45:17Z</time>
      </trkpt>
      <trkpt lat="43.07363" lon="-0.45704">
        <ele>1141.7</ele>
        <time>2015-08-29T08:45:18Z</time>
      </trkpt>
      <trkpt lat="43.07362" lon="-0.45701">
        <ele>1141.22</ele>
        <time>2015-08-29T08:45:19Z</time>
      </trkpt>
      <trkpt lat="43.07361" lon="-0.45696">
        <ele>1141.22</ele>
        <time>2015-08-29T08:45:20Z</time>
      </trkpt>
      <trkpt lat="43.0736" lon="-0.45691">
        <ele>1140.26</ele>
        <time>2015-08-29T08:45:21Z</time>
      </trkpt>
      <trkpt lat="43.07356" lon="-0.45654">
        <ele>1136.42</ele>
        <time>2015-08-29T08:45:30Z</time>
      </trkpt>
      <trkpt lat="43.07352" lon="-0.45619">
        <ele>1131.61</ele>
        <time>2015-08-29T08:45:39Z</time>
      </trkpt>
      <trkpt lat="43.07344" lon="-0.45586">
        <ele>1127.28</ele>
        <time>2015-08-29T08:45:47Z</time>
      </trkpt>
      <trkpt lat="43.07334" lon="-0.45549">
        <ele>1120.55</ele>
        <time>2015-08-29T08:45:58Z</time>
      </trkpt>
      <trkpt lat="43.0733" lon="-0.45538">
        <ele>1119.11</ele>
        <time>2015-08-29T08:46:00Z</time>
      </trkpt>
      <trkpt lat="43.07328" lon="-0.45531">
        <ele>1118.15</ele>
        <time>2015-08-29T08:46:01Z</time>
      </trkpt>
      <trkpt lat="43.07326" lon="-0.45524">
        <ele>1117.19</ele>
        <time>2015-08-29T08:46:02Z</time>
      </trkpt>
      <trkpt lat="43.07325" lon="-0.45518">
        <ele>1116.23</ele>
        <time>2015-08-29T08:46:03Z</time>
      </trkpt>
      <trkpt lat="43.07323" lon="-0.45512">
        <ele>1115.27</ele>
        <time>2015-08-29T08:46:04Z</time>
      </trkpt>
      <trkpt lat="43.07321" lon="-0.45505">
        <ele>1114.79</ele>
        <time>2015-08-29T08:46:05Z</time>
      </trkpt>
      <trkpt lat="43.07319" lon="-0.45499">
        <ele>1113.82</ele>
        <time>2015-08-29T08:46:06Z</time>
      </trkpt>
      <trkpt lat="43.07318" lon="-0.45494">
        <ele>1113.34</ele>
        <time>2015-08-29T08:46:07Z</time>
      </trkpt>
      <trkpt lat="43.07312" lon="-0.45454">
        <ele>1107.58</ele>
        <time>2015-08-29T08:46:18Z</time>
      </trkpt>
      <trkpt lat="43.07312" lon="-0.45444">
        <ele>1107.1</ele>
        <time>2015-08-29T08:46:20Z</time>
      </trkpt>
      <trkpt lat="43.07311" lon="-0.45438">
        <ele>1107.1</ele>
        <time>2015-08-29T08:46:21Z</time>
      </trkpt>
      <trkpt lat="43.0731" lon="-0.45431">
        <ele>1106.61</ele>
        <time>2015-08-29T08:46:22Z</time>
      </trkpt>
      <trkpt lat="43.07304" lon="-0.45412">
        <ele>1105.17</ele>
        <time>2015-08-29T08:46:25Z</time>
      </trkpt>
      <trkpt lat="43.07301" lon="-0.45407">
        <ele>1104.69</ele>
        <time>2015-08-29T08:46:26Z</time>
      </trkpt>
      <trkpt lat="43.07299" lon="-0.45402">
        <ele>1104.21</ele>
        <time>2015-08-29T08:46:27Z</time>
      </trkpt>
      <trkpt lat="43.07296" lon="-0.45397">
        <ele>1104.21</ele>
        <time>2015-08-29T08:46:28Z</time>
      </trkpt>
      <trkpt lat="43.07292" lon="-0.45392">
        <ele>1103.73</ele>
        <time>2015-08-29T08:46:29Z</time>
      </trkpt>
      <trkpt lat="43.07288" lon="-0.45386">
        <ele>1103.73</ele>
        <time>2015-08-29T08:46:30Z</time>
      </trkpt>
      <trkpt lat="43.07285" lon="-0.4538">
        <ele>1103.25</ele>
        <time>2015-08-29T08:46:31Z</time>
      </trkpt>
      <trkpt lat="43.07282" lon="-0.45375">
        <ele>1103.25</ele>
        <time>2015-08-29T08:46:32Z</time>
      </trkpt>
      <trkpt lat="43.07279" lon="-0.4537">
        <ele>1103.25</ele>
        <time>2015-08-29T08:46:33Z</time>
      </trkpt>
      <trkpt lat="43.07276" lon="-0.45366">
        <ele>1103.25</ele>
        <time>2015-08-29T08:46:34Z</time>
      </trkpt>
      <trkpt lat="43.07274" lon="-0.45362">
        <ele>1102.77</ele>
        <time>2015-08-29T08:46:35Z</time>
      </trkpt>
      <trkpt lat="43.07272" lon="-0.45359">
        <ele>1102.77</ele>
        <time>2015-08-29T08:46:36Z</time>
      </trkpt>
      <trkpt lat="43.07255" lon="-0.45323">
        <ele>1103.73</ele>
        <time>2015-08-29T08:46:45Z</time>
      </trkpt>
      <trkpt lat="43.07244" lon="-0.4529">
        <ele>1103.25</ele>
        <time>2015-08-29T08:46:54Z</time>
      </trkpt>
      <trkpt lat="43.07237" lon="-0.4527">
        <ele>1102.29</ele>
        <time>2015-08-29T08:46:58Z</time>
      </trkpt>
      <trkpt lat="43.07236" lon="-0.45265">
        <ele>1102.29</ele>
        <time>2015-08-29T08:46:59Z</time>
      </trkpt>
      <trkpt lat="43.07234" lon="-0.45261">
        <ele>1102.29</ele>
        <time>2015-08-29T08:47:00Z</time>
      </trkpt>
      <trkpt lat="43.07233" lon="-0.45256">
        <ele>1102.29</ele>
        <time>2015-08-29T08:47:01Z</time>
      </trkpt>
      <trkpt lat="43.07232" lon="-0.45252">
        <ele>1101.81</ele>
        <time>2015-08-29T08:47:02Z</time>
      </trkpt>
      <trkpt lat="43.07231" lon="-0.45248">
        <ele>1102.29</ele>
        <time>2015-08-29T08:47:03Z</time>
      </trkpt>
      <trkpt lat="43.07227" lon="-0.4523">
        <ele>1101.33</ele>
        <time>2015-08-29T08:47:07Z</time>
      </trkpt>
      <trkpt lat="43.07223" lon="-0.45217">
        <ele>1099.89</ele>
        <time>2015-08-29T08:47:10Z</time>
      </trkpt>
      <trkpt lat="43.07222" lon="-0.45213">
        <ele>1098.92</ele>
        <time>2015-08-29T08:47:11Z</time>
      </trkpt>
      <trkpt lat="43.07219" lon="-0.45204">
        <ele>1097.48</ele>
        <time>2015-08-29T08:47:13Z</time>
      </trkpt>
      <trkpt lat="43.07218" lon="-0.45199">
        <ele>1097.48</ele>
        <time>2015-08-29T08:47:14Z</time>
      </trkpt>
      <trkpt lat="43.07217" lon="-0.45195">
        <ele>1097</ele>
        <time>2015-08-29T08:47:15Z</time>
      </trkpt>
      <trkpt lat="43.07215" lon="-0.45192">
        <ele>1096.52</ele>
        <time>2015-08-29T08:47:16Z</time>
      </trkpt>
      <trkpt lat="43.07214" lon="-0.45189">
        <ele>1096.04</ele>
        <time>2015-08-29T08:47:17Z</time>
      </trkpt>
      <trkpt lat="43.07212" lon="-0.45186">
        <ele>1095.56</ele>
        <time>2015-08-29T08:47:18Z</time>
      </trkpt>
      <trkpt lat="43.0721" lon="-0.45182">
        <ele>1094.6</ele>
        <time>2015-08-29T08:47:19Z</time>
      </trkpt>
      <trkpt lat="43.07209" lon="-0.45178">
        <ele>1093.64</ele>
        <time>2015-08-29T08:47:20Z</time>
      </trkpt>
      <trkpt lat="43.07201" lon="-0.45144">
        <ele>1089.79</ele>
        <time>2015-08-29T08:47:29Z</time>
      </trkpt>
      <trkpt lat="43.07197" lon="-0.45096">
        <ele>1085.47</ele>
        <time>2015-08-29T08:47:39Z</time>
      </trkpt>
      <trkpt lat="43.07196" lon="-0.45091">
        <ele>1084.99</ele>
        <time>2015-08-29T08:47:40Z</time>
      </trkpt>
      <trkpt lat="43.07197" lon="-0.45072">
        <ele>1084.02</ele>
        <time>2015-08-29T08:47:45Z</time>
      </trkpt>
      <trkpt lat="43.07197" lon="-0.45069">
        <ele>1084.02</ele>
        <time>2015-08-29T08:47:46Z</time>
      </trkpt>
      <trkpt lat="43.07197" lon="-0.45066">
        <ele>1083.54</ele>
        <time>2015-08-29T08:47:47Z</time>
      </trkpt>
      <trkpt lat="43.07197" lon="-0.45063">
        <ele>1083.06</ele>
        <time>2015-08-29T08:47:48Z</time>
      </trkpt>
      <trkpt lat="43.07196" lon="-0.4506">
        <ele>1083.06</ele>
        <time>2015-08-29T08:47:49Z</time>
      </trkpt>
      <trkpt lat="43.07196" lon="-0.45057">
        <ele>1082.58</ele>
        <time>2015-08-29T08:47:50Z</time>
      </trkpt>
      <trkpt lat="43.07196" lon="-0.45052">
        <ele>1081.62</ele>
        <time>2015-08-29T08:47:51Z</time>
      </trkpt>
      <trkpt lat="43.07198" lon="-0.45048">
        <ele>1081.62</ele>
        <time>2015-08-29T08:47:52Z</time>
      </trkpt>
      <trkpt lat="43.07198" lon="-0.45041">
        <ele>1080.66</ele>
        <time>2015-08-29T08:47:54Z</time>
      </trkpt>
      <trkpt lat="43.07196" lon="-0.45038">
        <ele>1080.18</ele>
        <time>2015-08-29T08:47:55Z</time>
      </trkpt>
      <trkpt lat="43.07194" lon="-0.45029">
        <ele>1079.7</ele>
        <time>2015-08-29T08:47:58Z</time>
      </trkpt>
      <trkpt lat="43.07194" lon="-0.45027">
        <ele>1079.22</ele>
        <time>2015-08-29T08:47:59Z</time>
      </trkpt>
      <trkpt lat="43.07193" lon="-0.45025">
        <ele>1078.74</ele>
        <time>2015-08-29T08:48:00Z</time>
      </trkpt>
      <trkpt lat="43.07179" lon="-0.45004">
        <ele>1072.97</ele>
        <time>2015-08-29T08:48:10Z</time>
      </trkpt>
      <trkpt lat="43.07159" lon="-0.44971">
        <ele>1065.76</ele>
        <time>2015-08-29T08:48:22Z</time>
      </trkpt>
      <trkpt lat="43.07158" lon="-0.44969">
        <ele>1064.8</ele>
        <time>2015-08-29T08:48:23Z</time>
      </trkpt>
      <trkpt lat="43.07157" lon="-0.44967">
        <ele>1063.84</ele>
        <time>2015-08-29T08:48:24Z</time>
      </trkpt>
      <trkpt lat="43.07154" lon="-0.44965">
        <ele>1063.36</ele>
        <time>2015-08-29T08:48:25Z</time>
      </trkpt>
      <trkpt lat="43.07152" lon="-0.44963">
        <ele>1062.39</ele>
        <time>2015-08-29T08:48:26Z</time>
      </trkpt>
      <trkpt lat="43.0715" lon="-0.44961">
        <ele>1061.43</ele>
        <time>2015-08-29T08:48:27Z</time>
      </trkpt>
      <trkpt lat="43.07148" lon="-0.44958">
        <ele>1060.47</ele>
        <time>2015-08-29T08:48:28Z</time>
      </trkpt>
      <trkpt lat="43.07147" lon="-0.44956">
        <ele>1059.99</ele>
        <time>2015-08-29T08:48:29Z</time>
      </trkpt>
      <trkpt lat="43.07145" lon="-0.44953">
        <ele>1059.51</ele>
        <time>2015-08-29T08:48:30Z</time>
      </trkpt>
      <trkpt lat="43.07144" lon="-0.44951">
        <ele>1059.03</ele>
        <time>2015-08-29T08:48:31Z</time>
      </trkpt>
      <trkpt lat="43.07142" lon="-0.44948">
        <ele>1058.55</ele>
        <time>2015-08-29T08:48:32Z</time>
      </trkpt>
      <trkpt lat="43.0714" lon="-0.44945">
        <ele>1058.07</ele>
        <time>2015-08-29T08:48:33Z</time>
      </trkpt>
      <trkpt lat="43.07137" lon="-0.44942">
        <ele>1057.11</ele>
        <time>2015-08-29T08:48:34Z</time>
      </trkpt>
      <trkpt lat="43.07135" lon="-0.44939">
        <ele>1056.15</ele>
        <time>2015-08-29T08:48:35Z</time>
      </trkpt>
      <trkpt lat="43.07133" lon="-0.44938">
        <ele>1055.18</ele>
        <time>2015-08-29T08:48:36Z</time>
      </trkpt>
      <trkpt lat="43.07131" lon="-0.44936">
        <ele>1054.22</ele>
        <time>2015-08-29T08:48:37Z</time>
      </trkpt>
      <trkpt lat="43.07128" lon="-0.44934">
        <ele>1053.26</ele>
        <time>2015-08-29T08:48:38Z</time>
      </trkpt>
      <trkpt lat="43.07126" lon="-0.44931">
        <ele>1052.3</ele>
        <time>2015-08-29T08:48:39Z</time>
      </trkpt>
      <trkpt lat="43.07124" lon="-0.44929">
        <ele>1051.34</ele>
        <time>2015-08-29T08:48:40Z</time>
      </trkpt>
      <trkpt lat="43.07123" lon="-0.44927">
        <ele>1050.86</ele>
        <time>2015-08-29T08:48:41Z</time>
      </trkpt>
      <trkpt lat="43.07121" lon="-0.44924">
        <ele>1050.38</ele>
        <time>2015-08-29T08:48:42Z</time>
      </trkpt>
      <trkpt lat="43.07119" lon="-0.44922">
        <ele>1049.9</ele>
        <time>2015-08-29T08:48:43Z</time>
      </trkpt>
      <trkpt lat="43.07102" lon="-0.44903">
        <ele>1043.65</ele>
        <time>2015-08-29T08:48:52Z</time>
      </trkpt>
      <trkpt lat="43.0709" lon="-0.4489">
        <ele>1039.32</ele>
        <time>2015-08-29T08:48:58Z</time>
      </trkpt>
      <trkpt lat="43.07088" lon="-0.44888">
        <ele>1038.36</ele>
        <time>2015-08-29T08:48:59Z</time>
      </trkpt>
      <trkpt lat="43.07086" lon="-0.44885">
        <ele>1037.88</ele>
        <time>2015-08-29T08:49:00Z</time>
      </trkpt>
      <trkpt lat="43.07083" lon="-0.44882">
        <ele>1036.92</ele>
        <time>2015-08-29T08:49:01Z</time>
      </trkpt>
      <trkpt lat="43.07081" lon="-0.44879">
        <ele>1035.96</ele>
        <time>2015-08-29T08:49:02Z</time>
      </trkpt>
      <trkpt lat="43.07071" lon="-0.44871">
        <ele>1034.04</ele>
        <time>2015-08-29T08:49:05Z</time>
      </trkpt>
      <trkpt lat="43.07068" lon="-0.44867">
        <ele>1033.07</ele>
        <time>2015-08-29T08:49:06Z</time>
      </trkpt>
      <trkpt lat="43.07065" lon="-0.44863">
        <ele>1031.63</ele>
        <time>2015-08-29T08:49:07Z</time>
      </trkpt>
      <trkpt lat="43.07062" lon="-0.44859">
        <ele>1030.19</ele>
        <time>2015-08-29T08:49:08Z</time>
      </trkpt>
      <trkpt lat="43.07058" lon="-0.44853">
        <ele>1029.23</ele>
        <time>2015-08-29T08:49:09Z</time>
      </trkpt>
      <trkpt lat="43.07052" lon="-0.44844">
        <ele>1027.31</ele>
        <time>2015-08-29T08:49:11Z</time>
      </trkpt>
      <trkpt lat="43.0705" lon="-0.44844">
        <ele>1026.34</ele>
        <time>2015-08-29T08:49:12Z</time>
      </trkpt>
      <trkpt lat="43.07047" lon="-0.44843">
        <ele>1024.9</ele>
        <time>2015-08-29T08:49:21Z</time>
      </trkpt>
      <trkpt lat="43.07046" lon="-0.44843">
        <ele>1024.42</ele>
        <time>2015-08-29T08:49:43Z</time>
      </trkpt>
      <trkpt lat="43.07046" lon="-0.44843">
        <ele>1024.9</ele>
        <time>2015-08-29T08:50:08Z</time>
      </trkpt>
      <trkpt lat="43.07031" lon="-0.44821">
        <ele>1022.98</ele>
        <time>2015-08-29T08:50:15Z</time>
      </trkpt>
      <trkpt lat="43.07025" lon="-0.44812">
        <ele>1021.06</ele>
        <time>2015-08-29T08:50:17Z</time>
      </trkpt>
      <trkpt lat="43.07022" lon="-0.44807">
        <ele>1020.58</ele>
        <time>2015-08-29T08:50:18Z</time>
      </trkpt>
      <trkpt lat="43.07019" lon="-0.44802">
        <ele>1019.62</ele>
        <time>2015-08-29T08:50:19Z</time>
      </trkpt>
      <trkpt lat="43.07016" lon="-0.44798">
        <ele>1018.65</ele>
        <time>2015-08-29T08:50:20Z</time>
      </trkpt>
      <trkpt lat="43.07013" lon="-0.44795">
        <ele>1018.17</ele>
        <time>2015-08-29T08:50:21Z</time>
      </trkpt>
      <trkpt lat="43.07009" lon="-0.44787">
        <ele>1016.25</ele>
        <time>2015-08-29T08:50:23Z</time>
      </trkpt>
      <trkpt lat="43.07001" lon="-0.44763">
        <ele>1011.93</ele>
        <time>2015-08-29T08:50:28Z</time>
      </trkpt>
      <trkpt lat="43.07" lon="-0.44758">
        <ele>1010.96</ele>
        <time>2015-08-29T08:50:29Z</time>
      </trkpt>
      <trkpt lat="43.07" lon="-0.44754">
        <ele>1010.48</ele>
        <time>2015-08-29T08:50:30Z</time>
      </trkpt>
      <trkpt lat="43.07" lon="-0.4475">
        <ele>1009.52</ele>
        <time>2015-08-29T08:50:31Z</time>
      </trkpt>
      <trkpt lat="43.06999" lon="-0.44747">
        <ele>1009.04</ele>
        <time>2015-08-29T08:50:32Z</time>
      </trkpt>
      <trkpt lat="43.06999" lon="-0.44745">
        <ele>1008.56</ele>
        <time>2015-08-29T08:50:33Z</time>
      </trkpt>
      <trkpt lat="43.06998" lon="-0.44744">
        <ele>1008.08</ele>
        <time>2015-08-29T08:50:34Z</time>
      </trkpt>
      <trkpt lat="43.06994" lon="-0.44739">
        <ele>1006.16</ele>
        <time>2015-08-29T08:50:37Z</time>
      </trkpt>
      <trkpt lat="43.06994" lon="-0.44736">
        <ele>1006.16</ele>
        <time>2015-08-29T08:50:38Z</time>
      </trkpt>
      <trkpt lat="43.06994" lon="-0.44734">
        <ele>1005.68</ele>
        <time>2015-08-29T08:50:39Z</time>
      </trkpt>
      <trkpt lat="43.06992" lon="-0.44733">
        <ele>1004.23</ele>
        <time>2015-08-29T08:50:43Z</time>
      </trkpt>
      <trkpt lat="43.06978" lon="-0.4471">
        <ele>1000.39</ele>
        <time>2015-08-29T08:50:49Z</time>
      </trkpt>
      <trkpt lat="43.06957" lon="-0.44683">
        <ele>993.66</ele>
        <time>2015-08-29T08:50:57Z</time>
      </trkpt>
      <trkpt lat="43.06954" lon="-0.44681">
        <ele>992.7</ele>
        <time>2015-08-29T08:50:58Z</time>
      </trkpt>
      <trkpt lat="43.06953" lon="-0.44678">
        <ele>992.22</ele>
        <time>2015-08-29T08:50:59Z</time>
      </trkpt>
      <trkpt lat="43.06952" lon="-0.44674">
        <ele>991.26</ele>
        <time>2015-08-29T08:51:00Z</time>
      </trkpt>
      <trkpt lat="43.06944" lon="-0.44658">
        <ele>985.97</ele>
        <time>2015-08-29T08:51:05Z</time>
      </trkpt>
      <trkpt lat="43.06943" lon="-0.44653">
        <ele>985.01</ele>
        <time>2015-08-29T08:51:06Z</time>
      </trkpt>
      <trkpt lat="43.06942" lon="-0.44648">
        <ele>983.57</ele>
        <time>2015-08-29T08:51:07Z</time>
      </trkpt>
      <trkpt lat="43.0694" lon="-0.44644">
        <ele>982.6</ele>
        <time>2015-08-29T08:51:08Z</time>
      </trkpt>
      <trkpt lat="43.06938" lon="-0.44641">
        <ele>981.64</ele>
        <time>2015-08-29T08:51:09Z</time>
      </trkpt>
      <trkpt lat="43.06936" lon="-0.44638">
        <ele>980.68</ele>
        <time>2015-08-29T08:51:10Z</time>
      </trkpt>
      <trkpt lat="43.06934" lon="-0.44636">
        <ele>979.72</ele>
        <time>2015-08-29T08:51:11Z</time>
      </trkpt>
      <trkpt lat="43.06932" lon="-0.44635">
        <ele>978.76</ele>
        <time>2015-08-29T08:51:12Z</time>
      </trkpt>
      <trkpt lat="43.0693" lon="-0.44632">
        <ele>977.8</ele>
        <time>2015-08-29T08:51:13Z</time>
      </trkpt>
      <trkpt lat="43.06928" lon="-0.44629">
        <ele>977.32</ele>
        <time>2015-08-29T08:51:14Z</time>
      </trkpt>
      <trkpt lat="43.06924" lon="-0.44625">
        <ele>977.32</ele>
        <time>2015-08-29T08:51:15Z</time>
      </trkpt>
      <trkpt lat="43.06921" lon="-0.4462">
        <ele>977.32</ele>
        <time>2015-08-29T08:51:16Z</time>
      </trkpt>
      <trkpt lat="43.06918" lon="-0.44614">
        <ele>977.32</ele>
        <time>2015-08-29T08:51:17Z</time>
      </trkpt>
      <trkpt lat="43.06915" lon="-0.44609">
        <ele>977.32</ele>
        <time>2015-08-29T08:51:18Z</time>
      </trkpt>
      <trkpt lat="43.06913" lon="-0.44603">
        <ele>977.32</ele>
        <time>2015-08-29T08:51:19Z</time>
      </trkpt>
      <trkpt lat="43.06912" lon="-0.44598">
        <ele>976.84</ele>
        <time>2015-08-29T08:51:20Z</time>
      </trkpt>
      <trkpt lat="43.06894" lon="-0.44582">
        <ele>973.47</ele>
        <time>2015-08-29T08:51:28Z</time>
      </trkpt>
      <trkpt lat="43.06886" lon="-0.44573">
        <ele>972.03</ele>
        <time>2015-08-29T08:51:31Z</time>
      </trkpt>
      <trkpt lat="43.06884" lon="-0.44569">
        <ele>971.55</ele>
        <time>2015-08-29T08:51:32Z</time>
      </trkpt>
      <trkpt lat="43.06881" lon="-0.44556">
        <ele>971.07</ele>
        <time>2015-08-29T08:51:34Z</time>
      </trkpt>
      <trkpt lat="43.06878" lon="-0.44548">
        <ele>970.59</ele>
        <time>2015-08-29T08:51:35Z</time>
      </trkpt>
      <trkpt lat="43.06874" lon="-0.4454">
        <ele>969.63</ele>
        <time>2015-08-29T08:51:36Z</time>
      </trkpt>
      <trkpt lat="43.06869" lon="-0.44534">
        <ele>968.67</ele>
        <time>2015-08-29T08:51:37Z</time>
      </trkpt>
      <trkpt lat="43.06863" lon="-0.44529">
        <ele>968.18</ele>
        <time>2015-08-29T08:51:38Z</time>
      </trkpt>
      <trkpt lat="43.06852" lon="-0.4452">
        <ele>967.22</ele>
        <time>2015-08-29T08:51:40Z</time>
      </trkpt>
      <trkpt lat="43.06847" lon="-0.44517">
        <ele>966.74</ele>
        <time>2015-08-29T08:51:41Z</time>
      </trkpt>
      <trkpt lat="43.06843" lon="-0.44517">
        <ele>966.26</ele>
        <time>2015-08-29T08:51:42Z</time>
      </trkpt>
      <trkpt lat="43.06839" lon="-0.44518">
        <ele>965.3</ele>
        <time>2015-08-29T08:51:43Z</time>
      </trkpt>
      <trkpt lat="43.06834" lon="-0.4452">
        <ele>963.86</ele>
        <time>2015-08-29T08:51:44Z</time>
      </trkpt>
      <trkpt lat="43.06831" lon="-0.44522">
        <ele>962.9</ele>
        <time>2015-08-29T08:51:45Z</time>
      </trkpt>
      <trkpt lat="43.06827" lon="-0.44524">
        <ele>961.94</ele>
        <time>2015-08-29T08:51:46Z</time>
      </trkpt>
      <trkpt lat="43.06795" lon="-0.44532">
        <ele>959.53</ele>
        <time>2015-08-29T08:52:00Z</time>
      </trkpt>
      <trkpt lat="43.06792" lon="-0.44533">
        <ele>959.53</ele>
        <time>2015-08-29T08:52:02Z</time>
      </trkpt>
      <trkpt lat="43.06791" lon="-0.44534">
        <ele>959.05</ele>
        <time>2015-08-29T08:52:03Z</time>
      </trkpt>
      <trkpt lat="43.06789" lon="-0.44535">
        <ele>959.05</ele>
        <time>2015-08-29T08:52:04Z</time>
      </trkpt>
      <trkpt lat="43.06788" lon="-0.44536">
        <ele>959.05</ele>
        <time>2015-08-29T08:52:05Z</time>
      </trkpt>
      <trkpt lat="43.06787" lon="-0.44538">
        <ele>959.05</ele>
        <time>2015-08-29T08:52:06Z</time>
      </trkpt>
      <trkpt lat="43.06786" lon="-0.4454">
        <ele>959.05</ele>
        <time>2015-08-29T08:52:07Z</time>
      </trkpt>
      <trkpt lat="43.06774" lon="-0.44562">
        <ele>961.46</ele>
        <time>2015-08-29T08:52:18Z</time>
      </trkpt>
      <trkpt lat="43.06768" lon="-0.44585">
        <ele>962.9</ele>
        <time>2015-08-29T08:52:30Z</time>
      </trkpt>
      <trkpt lat="43.06767" lon="-0.44589">
        <ele>963.38</ele>
        <time>2015-08-29T08:52:32Z</time>
      </trkpt>
      <trkpt lat="43.06766" lon="-0.4459">
        <ele>963.86</ele>
        <time>2015-08-29T08:52:33Z</time>
      </trkpt>
      <trkpt lat="43.06764" lon="-0.4459">
        <ele>964.34</ele>
        <time>2015-08-29T08:52:34Z</time>
      </trkpt>
      <trkpt lat="43.06762" lon="-0.4459">
        <ele>964.34</ele>
        <time>2015-08-29T08:52:35Z</time>
      </trkpt>
      <trkpt lat="43.0676" lon="-0.4459">
        <ele>964.34</ele>
        <time>2015-08-29T08:52:36Z</time>
      </trkpt>
      <trkpt lat="43.06758" lon="-0.44589">
        <ele>964.34</ele>
        <time>2015-08-29T08:52:37Z</time>
      </trkpt>
      <trkpt lat="43.06757" lon="-0.44588">
        <ele>964.82</ele>
        <time>2015-08-29T08:52:38Z</time>
      </trkpt>
      <trkpt lat="43.06752" lon="-0.44588">
        <ele>965.3</ele>
        <time>2015-08-29T08:52:48Z</time>
      </trkpt>
      <trkpt lat="43.06751" lon="-0.44588">
        <ele>965.3</ele>
        <time>2015-08-29T08:52:50Z</time>
      </trkpt>
      <trkpt lat="43.06749" lon="-0.44589">
        <ele>964.34</ele>
        <time>2015-08-29T08:53:04Z</time>
      </trkpt>
      <trkpt lat="43.0675" lon="-0.4459">
        <ele>962.9</ele>
        <time>2015-08-29T08:53:32Z</time>
      </trkpt>
      <trkpt lat="43.0675" lon="-0.4459">
        <ele>962.42</ele>
        <time>2015-08-29T08:53:56Z</time>
      </trkpt>
      <trkpt lat="43.0675" lon="-0.44591">
        <ele>961.94</ele>
        <time>2015-08-29T08:54:11Z</time>
      </trkpt>
      <trkpt lat="43.0675" lon="-0.44591">
        <ele>961.46</ele>
        <time>2015-08-29T08:54:28Z</time>
      </trkpt>
      <trkpt lat="43.06749" lon="-0.44591">
        <ele>961.94</ele>
        <time>2015-08-29T08:54:46Z</time>
      </trkpt>
      <trkpt lat="43.06749" lon="-0.44591">
        <ele>961.46</ele>
        <time>2015-08-29T08:54:54Z</time>
      </trkpt>
      <trkpt lat="43.06748" lon="-0.44593">
        <ele>961.94</ele>
        <time>2015-08-29T08:54:55Z</time>
      </trkpt>
      <trkpt lat="43.06747" lon="-0.44595">
        <ele>962.42</ele>
        <time>2015-08-29T08:54:56Z</time>
      </trkpt>
      <trkpt lat="43.06746" lon="-0.44597">
        <ele>962.42</ele>
        <time>2015-08-29T08:54:57Z</time>
      </trkpt>
      <trkpt lat="43.06746" lon="-0.446">
        <ele>962.42</ele>
        <time>2015-08-29T08:54:58Z</time>
      </trkpt>
      <trkpt lat="43.06746" lon="-0.44603">
        <ele>962.42</ele>
        <time>2015-08-29T08:54:59Z</time>
      </trkpt>
      <trkpt lat="43.06745" lon="-0.44606">
        <ele>962.42</ele>
        <time>2015-08-29T08:55:00Z</time>
      </trkpt>
      <trkpt lat="43.06743" lon="-0.44609">
        <ele>962.42</ele>
        <time>2015-08-29T08:55:01Z</time>
      </trkpt>
      <trkpt lat="43.06742" lon="-0.44612">
        <ele>962.42</ele>
        <time>2015-08-29T08:55:02Z</time>
      </trkpt>
      <trkpt lat="43.06741" lon="-0.44616">
        <ele>962.42</ele>
        <time>2015-08-29T08:55:03Z</time>
      </trkpt>
      <trkpt lat="43.06741" lon="-0.44619">
        <ele>962.9</ele>
        <time>2015-08-29T08:55:04Z</time>
      </trkpt>
      <trkpt lat="43.06741" lon="-0.44622">
        <ele>962.9</ele>
        <time>2015-08-29T08:55:05Z</time>
      </trkpt>
      <trkpt lat="43.06742" lon="-0.44625">
        <ele>962.42</ele>
        <time>2015-08-29T08:55:06Z</time>
      </trkpt>
      <trkpt lat="43.06742" lon="-0.44628">
        <ele>962.42</ele>
        <time>2015-08-29T08:55:07Z</time>
      </trkpt>
      <trkpt lat="43.06742" lon="-0.44631">
        <ele>962.42</ele>
        <time>2015-08-29T08:55:08Z</time>
      </trkpt>
      <trkpt lat="43.06742" lon="-0.44632">
        <ele>962.42</ele>
        <time>2015-08-29T08:55:09Z</time>
      </trkpt>
      <trkpt lat="43.06742" lon="-0.44634">
        <ele>962.42</ele>
        <time>2015-08-29T08:55:10Z</time>
      </trkpt>
      <trkpt lat="43.06741" lon="-0.44637">
        <ele>962.42</ele>
        <time>2015-08-29T08:55:11Z</time>
      </trkpt>
      <trkpt lat="43.0674" lon="-0.4464">
        <ele>962.42</ele>
        <time>2015-08-29T08:55:12Z</time>
      </trkpt>
      <trkpt lat="43.06738" lon="-0.44643">
        <ele>962.42</ele>
        <time>2015-08-29T08:55:13Z</time>
      </trkpt>
      <trkpt lat="43.06733" lon="-0.44654">
        <ele>963.38</ele>
        <time>2015-08-29T08:55:18Z</time>
      </trkpt>
      <trkpt lat="43.06733" lon="-0.44657">
        <ele>963.38</ele>
        <time>2015-08-29T08:55:19Z</time>
      </trkpt>
      <trkpt lat="43.06733" lon="-0.4466">
        <ele>963.38</ele>
        <time>2015-08-29T08:55:20Z</time>
      </trkpt>
      <trkpt lat="43.06737" lon="-0.44684">
        <ele>962.9</ele>
        <time>2015-08-29T08:55:31Z</time>
      </trkpt>
      <trkpt lat="43.06738" lon="-0.44684">
        <ele>962.9</ele>
        <time>2015-08-29T08:55:32Z</time>
      </trkpt>
      <trkpt lat="43.06738" lon="-0.44685">
        <ele>962.9</ele>
        <time>2015-08-29T08:55:43Z</time>
      </trkpt>
      <trkpt lat="43.06744" lon="-0.44686">
        <ele>962.9</ele>
        <time>2015-08-29T08:55:57Z</time>
      </trkpt>
      <trkpt lat="43.06748" lon="-0.44697">
        <ele>962.42</ele>
        <time>2015-08-29T08:56:03Z</time>
      </trkpt>
      <trkpt lat="43.06749" lon="-0.44734">
        <ele>963.38</ele>
        <time>2015-08-29T08:56:15Z</time>
      </trkpt>
      <trkpt lat="43.06753" lon="-0.44761">
        <ele>961.94</ele>
        <time>2015-08-29T08:56:20Z</time>
      </trkpt>
      <trkpt lat="43.06755" lon="-0.44767">
        <ele>961.46</ele>
        <time>2015-08-29T08:56:21Z</time>
      </trkpt>
      <trkpt lat="43.06756" lon="-0.44774">
        <ele>960.98</ele>
        <time>2015-08-29T08:56:22Z</time>
      </trkpt>
      <trkpt lat="43.06756" lon="-0.44781">
        <ele>960.49</ele>
        <time>2015-08-29T08:56:23Z</time>
      </trkpt>
      <trkpt lat="43.06757" lon="-0.44789">
        <ele>960.01</ele>
        <time>2015-08-29T08:56:24Z</time>
      </trkpt>
      <trkpt lat="43.06757" lon="-0.44798">
        <ele>959.05</ele>
        <time>2015-08-29T08:56:25Z</time>
      </trkpt>
      <trkpt lat="43.06773" lon="-0.44887">
        <ele>952.8</ele>
        <time>2015-08-29T08:56:34Z</time>
      </trkpt>
      <trkpt lat="43.06774" lon="-0.44892">
        <ele>952.32</ele>
        <time>2015-08-29T08:56:35Z</time>
      </trkpt>
      <trkpt lat="43.06775" lon="-0.44895">
        <ele>951.84</ele>
        <time>2015-08-29T08:56:36Z</time>
      </trkpt>
      <trkpt lat="43.06776" lon="-0.44899">
        <ele>951.36</ele>
        <time>2015-08-29T08:56:37Z</time>
      </trkpt>
      <trkpt lat="43.06777" lon="-0.44903">
        <ele>950.88</ele>
        <time>2015-08-29T08:56:38Z</time>
      </trkpt>
      <trkpt lat="43.06777" lon="-0.44906">
        <ele>950.88</ele>
        <time>2015-08-29T08:56:39Z</time>
      </trkpt>
      <trkpt lat="43.06776" lon="-0.4491">
        <ele>950.88</ele>
        <time>2015-08-29T08:56:40Z</time>
      </trkpt>
      <trkpt lat="43.06774" lon="-0.44913">
        <ele>950.4</ele>
        <time>2015-08-29T08:56:41Z</time>
      </trkpt>
      <trkpt lat="43.06773" lon="-0.44922">
        <ele>950.88</ele>
        <time>2015-08-29T08:56:44Z</time>
      </trkpt>
      <trkpt lat="43.0678" lon="-0.44952">
        <ele>948</ele>
        <time>2015-08-29T08:56:53Z</time>
      </trkpt>
      <trkpt lat="43.06783" lon="-0.44983">
        <ele>943.67</ele>
        <time>2015-08-29T08:57:01Z</time>
      </trkpt>
      <trkpt lat="43.06787" lon="-0.45008">
        <ele>937.9</ele>
        <time>2015-08-29T08:57:11Z</time>
      </trkpt>
      <trkpt lat="43.06794" lon="-0.45029">
        <ele>934.54</ele>
        <time>2015-08-29T08:57:17Z</time>
      </trkpt>
      <trkpt lat="43.06796" lon="-0.45034">
        <ele>934.06</ele>
        <time>2015-08-29T08:57:18Z</time>
      </trkpt>
      <trkpt lat="43.06799" lon="-0.4504">
        <ele>933.58</ele>
        <time>2015-08-29T08:57:19Z</time>
      </trkpt>
      <trkpt lat="43.06802" lon="-0.45044">
        <ele>933.1</ele>
        <time>2015-08-29T08:57:20Z</time>
      </trkpt>
      <trkpt lat="43.06806" lon="-0.45049">
        <ele>933.1</ele>
        <time>2015-08-29T08:57:21Z</time>
      </trkpt>
      <trkpt lat="43.06823" lon="-0.45063">
        <ele>931.17</ele>
        <time>2015-08-29T08:57:27Z</time>
      </trkpt>
      <trkpt lat="43.06825" lon="-0.45064">
        <ele>931.17</ele>
        <time>2015-08-29T08:57:28Z</time>
      </trkpt>
      <trkpt lat="43.06827" lon="-0.45065">
        <ele>931.17</ele>
        <time>2015-08-29T08:57:29Z</time>
      </trkpt>
      <trkpt lat="43.0683" lon="-0.45068">
        <ele>931.17</ele>
        <time>2015-08-29T08:57:30Z</time>
      </trkpt>
      <trkpt lat="43.06832" lon="-0.45071">
        <ele>931.17</ele>
        <time>2015-08-29T08:57:31Z</time>
      </trkpt>
      <trkpt lat="43.06833" lon="-0.45074">
        <ele>931.17</ele>
        <time>2015-08-29T08:57:32Z</time>
      </trkpt>
      <trkpt lat="43.06834" lon="-0.45076">
        <ele>930.69</ele>
        <time>2015-08-29T08:57:33Z</time>
      </trkpt>
      <trkpt lat="43.06833" lon="-0.45079">
        <ele>931.17</ele>
        <time>2015-08-29T08:57:34Z</time>
      </trkpt>
      <trkpt lat="43.06833" lon="-0.45082">
        <ele>931.17</ele>
        <time>2015-08-29T08:57:35Z</time>
      </trkpt>
      <trkpt lat="43.06832" lon="-0.45084">
        <ele>930.69</ele>
        <time>2015-08-29T08:57:36Z</time>
      </trkpt>
      <trkpt lat="43.06831" lon="-0.45086">
        <ele>931.17</ele>
        <time>2015-08-29T08:57:37Z</time>
      </trkpt>
      <trkpt lat="43.06821" lon="-0.45105">
        <ele>939.83</ele>
        <time>2015-08-29T08:57:47Z</time>
      </trkpt>
      <trkpt lat="43.06815" lon="-0.45114">
        <ele>941.75</ele>
        <time>2015-08-29T08:57:57Z</time>
      </trkpt>
      <trkpt lat="43.06811" lon="-0.45119">
        <ele>943.19</ele>
        <time>2015-08-29T08:58:01Z</time>
      </trkpt>
      <trkpt lat="43.06811" lon="-0.45135">
        <ele>942.23</ele>
        <time>2015-08-29T08:58:13Z</time>
      </trkpt>
      <trkpt lat="43.0681" lon="-0.4514">
        <ele>943.19</ele>
        <time>2015-08-29T08:58:17Z</time>
      </trkpt>
      <trkpt lat="43.06809" lon="-0.45142">
        <ele>943.19</ele>
        <time>2015-08-29T08:58:18Z</time>
      </trkpt>
      <trkpt lat="43.06809" lon="-0.45148">
        <ele>944.15</ele>
        <time>2015-08-29T08:58:23Z</time>
      </trkpt>
      <trkpt lat="43.0681" lon="-0.4515">
        <ele>943.67</ele>
        <time>2015-08-29T08:58:25Z</time>
      </trkpt>
      <trkpt lat="43.06812" lon="-0.45153">
        <ele>942.23</ele>
        <time>2015-08-29T08:58:37Z</time>
      </trkpt>
      <trkpt lat="43.06813" lon="-0.45154">
        <ele>941.75</ele>
        <time>2015-08-29T08:59:01Z</time>
      </trkpt>
      <trkpt lat="43.06813" lon="-0.45154">
        <ele>941.75</ele>
        <time>2015-08-29T08:59:36Z</time>
      </trkpt>
      <trkpt lat="43.06813" lon="-0.45154">
        <ele>941.27</ele>
        <time>2015-08-29T09:00:00Z</time>
      </trkpt>
      <trkpt lat="43.06812" lon="-0.45155">
        <ele>941.27</ele>
        <time>2015-08-29T09:00:29Z</time>
      </trkpt>
      <trkpt lat="43.06811" lon="-0.45161">
        <ele>941.27</ele>
        <time>2015-08-29T09:00:40Z</time>
      </trkpt>
      <trkpt lat="43.0681" lon="-0.45165">
        <ele>941.75</ele>
        <time>2015-08-29T09:00:44Z</time>
      </trkpt>
      <trkpt lat="43.06809" lon="-0.45166">
        <ele>941.27</ele>
        <time>2015-08-29T09:00:45Z</time>
      </trkpt>
      <trkpt lat="43.06809" lon="-0.45167">
        <ele>941.27</ele>
        <time>2015-08-29T09:00:46Z</time>
      </trkpt>
      <trkpt lat="43.06808" lon="-0.45169">
        <ele>941.27</ele>
        <time>2015-08-29T09:00:47Z</time>
      </trkpt>
      <trkpt lat="43.06808" lon="-0.4518">
        <ele>942.23</ele>
        <time>2015-08-29T09:00:54Z</time>
      </trkpt>
      <trkpt lat="43.06808" lon="-0.45182">
        <ele>942.23</ele>
        <time>2015-08-29T09:00:55Z</time>
      </trkpt>
      <trkpt lat="43.06807" lon="-0.45183">
        <ele>942.23</ele>
        <time>2015-08-29T09:00:56Z</time>
      </trkpt>
      <trkpt lat="43.06807" lon="-0.45185">
        <ele>942.23</ele>
        <time>2015-08-29T09:00:57Z</time>
      </trkpt>
      <trkpt lat="43.06806" lon="-0.45187">
        <ele>942.23</ele>
        <time>2015-08-29T09:00:58Z</time>
      </trkpt>
      <trkpt lat="43.06797" lon="-0.45203">
        <ele>945.11</ele>
        <time>2015-08-29T09:01:10Z</time>
      </trkpt>
      <trkpt lat="43.06797" lon="-0.45205">
        <ele>944.63</ele>
        <time>2015-08-29T09:01:11Z</time>
      </trkpt>
      <trkpt lat="43.06797" lon="-0.45207">
        <ele>944.63</ele>
        <time>2015-08-29T09:01:12Z</time>
      </trkpt>
      <trkpt lat="43.06796" lon="-0.45209">
        <ele>945.11</ele>
        <time>2015-08-29T09:01:13Z</time>
      </trkpt>
      <trkpt lat="43.06796" lon="-0.45211">
        <ele>945.11</ele>
        <time>2015-08-29T09:01:14Z</time>
      </trkpt>
      <trkpt lat="43.06796" lon="-0.45222">
        <ele>947.52</ele>
        <time>2015-08-29T09:01:20Z</time>
      </trkpt>
      <trkpt lat="43.06795" lon="-0.45224">
        <ele>948</ele>
        <time>2015-08-29T09:01:21Z</time>
      </trkpt>
      <trkpt lat="43.06795" lon="-0.45225">
        <ele>948.48</ele>
        <time>2015-08-29T09:01:22Z</time>
      </trkpt>
      <trkpt lat="43.06794" lon="-0.45228">
        <ele>948.96</ele>
        <time>2015-08-29T09:01:24Z</time>
      </trkpt>
      <trkpt lat="43.06793" lon="-0.45229">
        <ele>949.44</ele>
        <time>2015-08-29T09:01:25Z</time>
      </trkpt>
      <trkpt lat="43.06793" lon="-0.45232">
        <ele>949.92</ele>
        <time>2015-08-29T09:01:27Z</time>
      </trkpt>
      <trkpt lat="43.06793" lon="-0.45234">
        <ele>949.92</ele>
        <time>2015-08-29T09:01:28Z</time>
      </trkpt>
      <trkpt lat="43.06793" lon="-0.45236">
        <ele>949.92</ele>
        <time>2015-08-29T09:01:29Z</time>
      </trkpt>
      <trkpt lat="43.06793" lon="-0.45238">
        <ele>949.92</ele>
        <time>2015-08-29T09:01:30Z</time>
      </trkpt>
      <trkpt lat="43.06792" lon="-0.4524">
        <ele>950.4</ele>
        <time>2015-08-29T09:01:31Z</time>
      </trkpt>
      <trkpt lat="43.06792" lon="-0.45241">
        <ele>950.4</ele>
        <time>2015-08-29T09:01:32Z</time>
      </trkpt>
      <trkpt lat="43.0679" lon="-0.45245">
        <ele>950.88</ele>
        <time>2015-08-29T09:01:35Z</time>
      </trkpt>
      <trkpt lat="43.0679" lon="-0.45246">
        <ele>951.36</ele>
        <time>2015-08-29T09:01:36Z</time>
      </trkpt>
      <trkpt lat="43.06789" lon="-0.45248">
        <ele>951.84</ele>
        <time>2015-08-29T09:01:37Z</time>
      </trkpt>
      <trkpt lat="43.06785" lon="-0.45269">
        <ele>954.73</ele>
        <time>2015-08-29T09:01:51Z</time>
      </trkpt>
      <trkpt lat="43.06782" lon="-0.45291">
        <ele>954.25</ele>
        <time>2015-08-29T09:02:04Z</time>
      </trkpt>
      <trkpt lat="43.06782" lon="-0.45297">
        <ele>954.25</ele>
        <time>2015-08-29T09:02:07Z</time>
      </trkpt>
      <trkpt lat="43.06784" lon="-0.45305">
        <ele>954.73</ele>
        <time>2015-08-29T09:02:12Z</time>
      </trkpt>
      <trkpt lat="43.06786" lon="-0.45315">
        <ele>954.25</ele>
        <time>2015-08-29T09:02:19Z</time>
      </trkpt>
      <trkpt lat="43.06787" lon="-0.45317">
        <ele>954.73</ele>
        <time>2015-08-29T09:02:20Z</time>
      </trkpt>
      <trkpt lat="43.06787" lon="-0.45323">
        <ele>955.21</ele>
        <time>2015-08-29T09:02:24Z</time>
      </trkpt>
      <trkpt lat="43.06786" lon="-0.45324">
        <ele>955.21</ele>
        <time>2015-08-29T09:02:25Z</time>
      </trkpt>
      <trkpt lat="43.06786" lon="-0.45324">
        <ele>954.25</ele>
        <time>2015-08-29T09:02:38Z</time>
      </trkpt>
      <trkpt lat="43.06786" lon="-0.45324">
        <ele>954.25</ele>
        <time>2015-08-29T09:02:58Z</time>
      </trkpt>
      <trkpt lat="43.06786" lon="-0.45324">
        <ele>954.25</ele>
        <time>2015-08-29T09:03:16Z</time>
      </trkpt>
      <trkpt lat="43.06787" lon="-0.45327">
        <ele>953.28</ele>
        <time>2015-08-29T09:03:44Z</time>
      </trkpt>
      <trkpt lat="43.06786" lon="-0.45329">
        <ele>953.28</ele>
        <time>2015-08-29T09:04:16Z</time>
      </trkpt>
      <trkpt lat="43.06786" lon="-0.45329">
        <ele>953.28</ele>
        <time>2015-08-29T09:04:42Z</time>
      </trkpt>
      <trkpt lat="43.06786" lon="-0.45329">
        <ele>953.28</ele>
        <time>2015-08-29T09:05:08Z</time>
      </trkpt>
      <trkpt lat="43.06786" lon="-0.45329">
        <ele>953.28</ele>
        <time>2015-08-29T09:05:38Z</time>
      </trkpt>
      <trkpt lat="43.06786" lon="-0.45328">
        <ele>953.28</ele>
        <time>2015-08-29T09:05:51Z</time>
      </trkpt>
      <trkpt lat="43.06787" lon="-0.45329">
        <ele>953.28</ele>
        <time>2015-08-29T09:05:52Z</time>
      </trkpt>
      <trkpt lat="43.06787" lon="-0.45331">
        <ele>953.28</ele>
        <time>2015-08-29T09:05:53Z</time>
      </trkpt>
      <trkpt lat="43.06791" lon="-0.45358">
        <ele>952.8</ele>
        <time>2015-08-29T09:06:04Z</time>
      </trkpt>
      <trkpt lat="43.06796" lon="-0.45367">
        <ele>951.84</ele>
        <time>2015-08-29T09:06:07Z</time>
      </trkpt>
      <trkpt lat="43.06797" lon="-0.4537">
        <ele>951.36</ele>
        <time>2015-08-29T09:06:08Z</time>
      </trkpt>
      <trkpt lat="43.06797" lon="-0.45375">
        <ele>951.36</ele>
        <time>2015-08-29T09:06:09Z</time>
      </trkpt>
      <trkpt lat="43.06797" lon="-0.45378">
        <ele>950.88</ele>
        <time>2015-08-29T09:06:10Z</time>
      </trkpt>
      <trkpt lat="43.06796" lon="-0.45382">
        <ele>950.4</ele>
        <time>2015-08-29T09:06:11Z</time>
      </trkpt>
      <trkpt lat="43.06794" lon="-0.45385">
        <ele>949.92</ele>
        <time>2015-08-29T09:06:12Z</time>
      </trkpt>
      <trkpt lat="43.06793" lon="-0.45389">
        <ele>949.44</ele>
        <time>2015-08-29T09:06:13Z</time>
      </trkpt>
      <trkpt lat="43.06792" lon="-0.45394">
        <ele>948.96</ele>
        <time>2015-08-29T09:06:14Z</time>
      </trkpt>
      <trkpt lat="43.06793" lon="-0.45398">
        <ele>948.96</ele>
        <time>2015-08-29T09:06:15Z</time>
      </trkpt>
      <trkpt lat="43.06795" lon="-0.45403">
        <ele>948.48</ele>
        <time>2015-08-29T09:06:16Z</time>
      </trkpt>
      <trkpt lat="43.06798" lon="-0.45407">
        <ele>948</ele>
        <time>2015-08-29T09:06:17Z</time>
      </trkpt>
      <trkpt lat="43.068" lon="-0.45411">
        <ele>947.52</ele>
        <time>2015-08-29T09:06:18Z</time>
      </trkpt>
      <trkpt lat="43.06802" lon="-0.45414">
        <ele>947.52</ele>
        <time>2015-08-29T09:06:19Z</time>
      </trkpt>
      <trkpt lat="43.06802" lon="-0.45418">
        <ele>947.04</ele>
        <time>2015-08-29T09:06:20Z</time>
      </trkpt>
      <trkpt lat="43.06801" lon="-0.45421">
        <ele>946.56</ele>
        <time>2015-08-29T09:06:21Z</time>
      </trkpt>
      <trkpt lat="43.06801" lon="-0.45425">
        <ele>946.07</ele>
        <time>2015-08-29T09:06:22Z</time>
      </trkpt>
      <trkpt lat="43.06802" lon="-0.45429">
        <ele>945.59</ele>
        <time>2015-08-29T09:06:23Z</time>
      </trkpt>
      <trkpt lat="43.06804" lon="-0.45432">
        <ele>945.11</ele>
        <time>2015-08-29T09:06:24Z</time>
      </trkpt>
      <trkpt lat="43.06806" lon="-0.45436">
        <ele>944.63</ele>
        <time>2015-08-29T09:06:25Z</time>
      </trkpt>
      <trkpt lat="43.06808" lon="-0.45439">
        <ele>944.15</ele>
        <time>2015-08-29T09:06:26Z</time>
      </trkpt>
      <trkpt lat="43.06809" lon="-0.45443">
        <ele>943.67</ele>
        <time>2015-08-29T09:06:27Z</time>
      </trkpt>
      <trkpt lat="43.0681" lon="-0.45448">
        <ele>943.19</ele>
        <time>2015-08-29T09:06:28Z</time>
      </trkpt>
      <trkpt lat="43.06815" lon="-0.45465">
        <ele>942.23</ele>
        <time>2015-08-29T09:06:31Z</time>
      </trkpt>
      <trkpt lat="43.06818" lon="-0.45472">
        <ele>941.75</ele>
        <time>2015-08-29T09:06:32Z</time>
      </trkpt>
      <trkpt lat="43.06822" lon="-0.45478">
        <ele>941.27</ele>
        <time>2015-08-29T09:06:33Z</time>
      </trkpt>
      <trkpt lat="43.06827" lon="-0.45483">
        <ele>940.79</ele>
        <time>2015-08-29T09:06:34Z</time>
      </trkpt>
      <trkpt lat="43.0683" lon="-0.45486">
        <ele>940.31</ele>
        <time>2015-08-29T09:06:35Z</time>
      </trkpt>
      <trkpt lat="43.06843" lon="-0.45517">
        <ele>936.94</ele>
        <time>2015-08-29T09:06:44Z</time>
      </trkpt>
      <trkpt lat="43.06846" lon="-0.45525">
        <ele>935.02</ele>
        <time>2015-08-29T09:06:48Z</time>
      </trkpt>
      <trkpt lat="43.06848" lon="-0.45525">
        <ele>935.02</ele>
        <time>2015-08-29T09:06:49Z</time>
      </trkpt>
      <trkpt lat="43.06855" lon="-0.45525">
        <ele>933.1</ele>
        <time>2015-08-29T09:06:54Z</time>
      </trkpt>
      <trkpt lat="43.06854" lon="-0.45555">
        <ele>930.69</ele>
        <time>2015-08-29T09:07:03Z</time>
      </trkpt>
      <trkpt lat="43.06855" lon="-0.4558">
        <ele>928.29</ele>
        <time>2015-08-29T09:07:08Z</time>
      </trkpt>
      <trkpt lat="43.06856" lon="-0.45597">
        <ele>926.85</ele>
        <time>2015-08-29T09:07:11Z</time>
      </trkpt>
      <trkpt lat="43.06871" lon="-0.45631">
        <ele>923</ele>
        <time>2015-08-29T09:07:19Z</time>
      </trkpt>
      <trkpt lat="43.06872" lon="-0.45636">
        <ele>922.52</ele>
        <time>2015-08-29T09:07:20Z</time>
      </trkpt>
      <trkpt lat="43.06871" lon="-0.45641">
        <ele>922.04</ele>
        <time>2015-08-29T09:07:21Z</time>
      </trkpt>
      <trkpt lat="43.06868" lon="-0.45685">
        <ele>920.6</ele>
        <time>2015-08-29T09:07:32Z</time>
      </trkpt>
      <trkpt lat="43.06868" lon="-0.45732">
        <ele>918.68</ele>
        <time>2015-08-29T09:07:45Z</time>
      </trkpt>
      <trkpt lat="43.06865" lon="-0.45767">
        <ele>919.16</ele>
        <time>2015-08-29T09:07:57Z</time>
      </trkpt>
      <trkpt lat="43.06858" lon="-0.45805">
        <ele>919.64</ele>
        <time>2015-08-29T09:08:10Z</time>
      </trkpt>
      <trkpt lat="43.06847" lon="-0.45848">
        <ele>918.68</ele>
        <time>2015-08-29T09:08:22Z</time>
      </trkpt>
      <trkpt lat="43.06845" lon="-0.45871">
        <ele>920.12</ele>
        <time>2015-08-29T09:08:29Z</time>
      </trkpt>
      <trkpt lat="43.06844" lon="-0.45873">
        <ele>920.12</ele>
        <time>2015-08-29T09:08:30Z</time>
      </trkpt>
      <trkpt lat="43.06843" lon="-0.45876">
        <ele>920.12</ele>
        <time>2015-08-29T09:08:31Z</time>
      </trkpt>
      <trkpt lat="43.06842" lon="-0.4588">
        <ele>920.12</ele>
        <time>2015-08-29T09:08:32Z</time>
      </trkpt>
      <trkpt lat="43.06841" lon="-0.45883">
        <ele>920.12</ele>
        <time>2015-08-29T09:08:33Z</time>
      </trkpt>
      <trkpt lat="43.06824" lon="-0.45917">
        <ele>922.04</ele>
        <time>2015-08-29T09:08:45Z</time>
      </trkpt>
      <trkpt lat="43.0682" lon="-0.4593">
        <ele>923</ele>
        <time>2015-08-29T09:08:49Z</time>
      </trkpt>
      <trkpt lat="43.06819" lon="-0.45931">
        <ele>923.48</ele>
        <time>2015-08-29T09:08:50Z</time>
      </trkpt>
      <trkpt lat="43.06818" lon="-0.45933">
        <ele>923.48</ele>
        <time>2015-08-29T09:08:51Z</time>
      </trkpt>
      <trkpt lat="43.06816" lon="-0.45934">
        <ele>923.48</ele>
        <time>2015-08-29T09:08:52Z</time>
      </trkpt>
      <trkpt lat="43.06815" lon="-0.45936">
        <ele>923.96</ele>
        <time>2015-08-29T09:08:53Z</time>
      </trkpt>
      <trkpt lat="43.06805" lon="-0.45957">
        <ele>926.37</ele>
        <time>2015-08-29T09:09:04Z</time>
      </trkpt>
      <trkpt lat="43.068" lon="-0.45979">
        <ele>927.81</ele>
        <time>2015-08-29T09:09:13Z</time>
      </trkpt>
      <trkpt lat="43.068" lon="-0.45983">
        <ele>927.81</ele>
        <time>2015-08-29T09:09:14Z</time>
      </trkpt>
      <trkpt lat="43.06799" lon="-0.45986">
        <ele>927.33</ele>
        <time>2015-08-29T09:09:15Z</time>
      </trkpt>
      <trkpt lat="43.06798" lon="-0.45989">
        <ele>927.33</ele>
        <time>2015-08-29T09:09:16Z</time>
      </trkpt>
      <trkpt lat="43.06797" lon="-0.45991">
        <ele>927.33</ele>
        <time>2015-08-29T09:09:17Z</time>
      </trkpt>
      <trkpt lat="43.06796" lon="-0.45994">
        <ele>927.81</ele>
        <time>2015-08-29T09:09:18Z</time>
      </trkpt>
      <trkpt lat="43.06795" lon="-0.45997">
        <ele>927.81</ele>
        <time>2015-08-29T09:09:19Z</time>
      </trkpt>
      <trkpt lat="43.06794" lon="-0.46001">
        <ele>927.81</ele>
        <time>2015-08-29T09:09:20Z</time>
      </trkpt>
      <trkpt lat="43.06794" lon="-0.46005">
        <ele>927.81</ele>
        <time>2015-08-29T09:09:21Z</time>
      </trkpt>
      <trkpt lat="43.06793" lon="-0.46009">
        <ele>927.81</ele>
        <time>2015-08-29T09:09:22Z</time>
      </trkpt>
      <trkpt lat="43.06792" lon="-0.46041">
        <ele>927.33</ele>
        <time>2015-08-29T09:09:30Z</time>
      </trkpt>
      <trkpt lat="43.06794" lon="-0.46044">
        <ele>927.33</ele>
        <time>2015-08-29T09:09:31Z</time>
      </trkpt>
      <trkpt lat="43.06794" lon="-0.46048">
        <ele>926.85</ele>
        <time>2015-08-29T09:09:32Z</time>
      </trkpt>
      <trkpt lat="43.06794" lon="-0.46052">
        <ele>926.85</ele>
        <time>2015-08-29T09:09:33Z</time>
      </trkpt>
      <trkpt lat="43.06794" lon="-0.46056">
        <ele>926.37</ele>
        <time>2015-08-29T09:09:34Z</time>
      </trkpt>
      <trkpt lat="43.06794" lon="-0.4606">
        <ele>926.37</ele>
        <time>2015-08-29T09:09:35Z</time>
      </trkpt>
      <trkpt lat="43.06793" lon="-0.46064">
        <ele>925.89</ele>
        <time>2015-08-29T09:09:36Z</time>
      </trkpt>
      <trkpt lat="43.06793" lon="-0.4607">
        <ele>925.41</ele>
        <time>2015-08-29T09:09:37Z</time>
      </trkpt>
      <trkpt lat="43.06793" lon="-0.46075">
        <ele>924.93</ele>
        <time>2015-08-29T09:09:38Z</time>
      </trkpt>
      <trkpt lat="43.0679" lon="-0.46128">
        <ele>922.04</ele>
        <time>2015-08-29T09:09:49Z</time>
      </trkpt>
      <trkpt lat="43.06782" lon="-0.46143">
        <ele>920.6</ele>
        <time>2015-08-29T09:09:53Z</time>
      </trkpt>
      <trkpt lat="43.06779" lon="-0.46147">
        <ele>920.12</ele>
        <time>2015-08-29T09:09:54Z</time>
      </trkpt>
      <trkpt lat="43.06776" lon="-0.46151">
        <ele>919.16</ele>
        <time>2015-08-29T09:09:55Z</time>
      </trkpt>
      <trkpt lat="43.06758" lon="-0.4619">
        <ele>913.39</ele>
        <time>2015-08-29T09:10:04Z</time>
      </trkpt>
      <trkpt lat="43.0675" lon="-0.46207">
        <ele>911.47</ele>
        <time>2015-08-29T09:10:09Z</time>
      </trkpt>
      <trkpt lat="43.06747" lon="-0.46217">
        <ele>910.51</ele>
        <time>2015-08-29T09:10:12Z</time>
      </trkpt>
      <trkpt lat="43.06746" lon="-0.4622">
        <ele>910.51</ele>
        <time>2015-08-29T09:10:13Z</time>
      </trkpt>
      <trkpt lat="43.06745" lon="-0.46223">
        <ele>910.03</ele>
        <time>2015-08-29T09:10:14Z</time>
      </trkpt>
      <trkpt lat="43.06745" lon="-0.46225">
        <ele>910.03</ele>
        <time>2015-08-29T09:10:15Z</time>
      </trkpt>
      <trkpt lat="43.06744" lon="-0.46228">
        <ele>910.03</ele>
        <time>2015-08-29T09:10:16Z</time>
      </trkpt>
      <trkpt lat="43.0674" lon="-0.46245">
        <ele>909.54</ele>
        <time>2015-08-29T09:10:20Z</time>
      </trkpt>
      <trkpt lat="43.0674" lon="-0.46248">
        <ele>909.06</ele>
        <time>2015-08-29T09:10:21Z</time>
      </trkpt>
      <trkpt lat="43.0674" lon="-0.46249">
        <ele>909.06</ele>
        <time>2015-08-29T09:10:22Z</time>
      </trkpt>
      <trkpt lat="43.06739" lon="-0.46252">
        <ele>908.58</ele>
        <time>2015-08-29T09:10:23Z</time>
      </trkpt>
      <trkpt lat="43.06738" lon="-0.46255">
        <ele>908.1</ele>
        <time>2015-08-29T09:10:24Z</time>
      </trkpt>
      <trkpt lat="43.06736" lon="-0.46264">
        <ele>907.14</ele>
        <time>2015-08-29T09:10:26Z</time>
      </trkpt>
      <trkpt lat="43.06736" lon="-0.46269">
        <ele>907.14</ele>
        <time>2015-08-29T09:10:27Z</time>
      </trkpt>
      <trkpt lat="43.06737" lon="-0.46275">
        <ele>907.14</ele>
        <time>2015-08-29T09:10:28Z</time>
      </trkpt>
      <trkpt lat="43.06736" lon="-0.46279">
        <ele>906.66</ele>
        <time>2015-08-29T09:10:29Z</time>
      </trkpt>
      <trkpt lat="43.06736" lon="-0.46283">
        <ele>906.66</ele>
        <time>2015-08-29T09:10:30Z</time>
      </trkpt>
      <trkpt lat="43.06736" lon="-0.463">
        <ele>905.22</ele>
        <time>2015-08-29T09:10:34Z</time>
      </trkpt>
      <trkpt lat="43.06736" lon="-0.46303">
        <ele>904.74</ele>
        <time>2015-08-29T09:10:35Z</time>
      </trkpt>
      <trkpt lat="43.06735" lon="-0.46307">
        <ele>904.26</ele>
        <time>2015-08-29T09:10:36Z</time>
      </trkpt>
      <trkpt lat="43.06736" lon="-0.46311">
        <ele>904.26</ele>
        <time>2015-08-29T09:10:37Z</time>
      </trkpt>
      <trkpt lat="43.06737" lon="-0.46314">
        <ele>904.26</ele>
        <time>2015-08-29T09:10:38Z</time>
      </trkpt>
      <trkpt lat="43.06737" lon="-0.46317">
        <ele>903.78</ele>
        <time>2015-08-29T09:10:39Z</time>
      </trkpt>
      <trkpt lat="43.06737" lon="-0.46319">
        <ele>903.3</ele>
        <time>2015-08-29T09:10:40Z</time>
      </trkpt>
      <trkpt lat="43.06737" lon="-0.46323">
        <ele>903.3</ele>
        <time>2015-08-29T09:10:41Z</time>
      </trkpt>
      <trkpt lat="43.06742" lon="-0.46356">
        <ele>899.93</ele>
        <time>2015-08-29T09:10:51Z</time>
      </trkpt>
      <trkpt lat="43.06742" lon="-0.46393">
        <ele>897.53</ele>
        <time>2015-08-29T09:11:01Z</time>
      </trkpt>
      <trkpt lat="43.06742" lon="-0.46396">
        <ele>897.05</ele>
        <time>2015-08-29T09:11:02Z</time>
      </trkpt>
      <trkpt lat="43.06735" lon="-0.46402">
        <ele>895.61</ele>
        <time>2015-08-29T09:11:07Z</time>
      </trkpt>
      <trkpt lat="43.06716" lon="-0.46402">
        <ele>893.68</ele>
        <time>2015-08-29T09:11:13Z</time>
      </trkpt>
      <trkpt lat="43.06712" lon="-0.46403">
        <ele>893.2</ele>
        <time>2015-08-29T09:11:14Z</time>
      </trkpt>
      <trkpt lat="43.06708" lon="-0.46404">
        <ele>893.2</ele>
        <time>2015-08-29T09:11:15Z</time>
      </trkpt>
      <trkpt lat="43.067" lon="-0.46407">
        <ele>892.24</ele>
        <time>2015-08-29T09:11:17Z</time>
      </trkpt>
      <trkpt lat="43.06696" lon="-0.46408">
        <ele>891.76</ele>
        <time>2015-08-29T09:11:18Z</time>
      </trkpt>
      <trkpt lat="43.06693" lon="-0.46411">
        <ele>891.76</ele>
        <time>2015-08-29T09:11:19Z</time>
      </trkpt>
      <trkpt lat="43.06691" lon="-0.46415">
        <ele>891.76</ele>
        <time>2015-08-29T09:11:20Z</time>
      </trkpt>
      <trkpt lat="43.06691" lon="-0.46418">
        <ele>891.76</ele>
        <time>2015-08-29T09:11:21Z</time>
      </trkpt>
      <trkpt lat="43.06691" lon="-0.46421">
        <ele>891.76</ele>
        <time>2015-08-29T09:11:22Z</time>
      </trkpt>
      <trkpt lat="43.06691" lon="-0.46424">
        <ele>891.76</ele>
        <time>2015-08-29T09:11:23Z</time>
      </trkpt>
      <trkpt lat="43.06688" lon="-0.46427">
        <ele>891.76</ele>
        <time>2015-08-29T09:11:24Z</time>
      </trkpt>
      <trkpt lat="43.06676" lon="-0.46439">
        <ele>890.32</ele>
        <time>2015-08-29T09:11:28Z</time>
      </trkpt>
      <trkpt lat="43.06672" lon="-0.46479">
        <ele>890.32</ele>
        <time>2015-08-29T09:11:38Z</time>
      </trkpt>
      <trkpt lat="43.06679" lon="-0.46525">
        <ele>889.36</ele>
        <time>2015-08-29T09:11:45Z</time>
      </trkpt>
      <trkpt lat="43.06683" lon="-0.46535">
        <ele>889.36</ele>
        <time>2015-08-29T09:11:47Z</time>
      </trkpt>
      <trkpt lat="43.06682" lon="-0.46547">
        <ele>888.88</ele>
        <time>2015-08-29T09:11:52Z</time>
      </trkpt>
      <trkpt lat="43.06661" lon="-0.46538">
        <ele>887.43</ele>
        <time>2015-08-29T09:11:59Z</time>
      </trkpt>
      <trkpt lat="43.06651" lon="-0.46528">
        <ele>886.47</ele>
        <time>2015-08-29T09:12:02Z</time>
      </trkpt>
      <trkpt lat="43.0664" lon="-0.46518">
        <ele>885.51</ele>
        <time>2015-08-29T09:12:05Z</time>
      </trkpt>
      <trkpt lat="43.06629" lon="-0.46516">
        <ele>884.55</ele>
        <time>2015-08-29T09:12:08Z</time>
      </trkpt>
      <trkpt lat="43.06625" lon="-0.46519">
        <ele>883.59</ele>
        <time>2015-08-29T09:12:09Z</time>
      </trkpt>
      <trkpt lat="43.06621" lon="-0.46523">
        <ele>883.11</ele>
        <time>2015-08-29T09:12:10Z</time>
      </trkpt>
      <trkpt lat="43.06618" lon="-0.46528">
        <ele>882.63</ele>
        <time>2015-08-29T09:12:11Z</time>
      </trkpt>
      <trkpt lat="43.06615" lon="-0.46534">
        <ele>882.15</ele>
        <time>2015-08-29T09:12:12Z</time>
      </trkpt>
      <trkpt lat="43.06611" lon="-0.46539">
        <ele>882.15</ele>
        <time>2015-08-29T09:12:13Z</time>
      </trkpt>
      <trkpt lat="43.06608" lon="-0.46544">
        <ele>881.67</ele>
        <time>2015-08-29T09:12:14Z</time>
      </trkpt>
      <trkpt lat="43.06598" lon="-0.46561">
        <ele>881.19</ele>
        <time>2015-08-29T09:12:17Z</time>
      </trkpt>
      <trkpt lat="43.06591" lon="-0.46573">
        <ele>880.22</ele>
        <time>2015-08-29T09:12:19Z</time>
      </trkpt>
      <trkpt lat="43.06585" lon="-0.46586">
        <ele>879.74</ele>
        <time>2015-08-29T09:12:21Z</time>
      </trkpt>
      <trkpt lat="43.06566" lon="-0.46646">
        <ele>877.34</ele>
        <time>2015-08-29T09:12:30Z</time>
      </trkpt>
      <trkpt lat="43.06564" lon="-0.46652">
        <ele>876.86</ele>
        <time>2015-08-29T09:12:31Z</time>
      </trkpt>
      <trkpt lat="43.0655" lon="-0.46698">
        <ele>874.94</ele>
        <time>2015-08-29T09:12:38Z</time>
      </trkpt>
      <trkpt lat="43.06547" lon="-0.46703">
        <ele>874.46</ele>
        <time>2015-08-29T09:12:39Z</time>
      </trkpt>
      <trkpt lat="43.06533" lon="-0.46693">
        <ele>873.5</ele>
        <time>2015-08-29T09:12:44Z</time>
      </trkpt>
      <trkpt lat="43.06532" lon="-0.46688">
        <ele>873.01</ele>
        <time>2015-08-29T09:12:45Z</time>
      </trkpt>
      <trkpt lat="43.06532" lon="-0.46626">
        <ele>875.42</ele>
        <time>2015-08-29T09:13:00Z</time>
      </trkpt>
      <trkpt lat="43.06531" lon="-0.46569">
        <ele>875.9</ele>
        <time>2015-08-29T09:13:15Z</time>
      </trkpt>
      <trkpt lat="43.0652" lon="-0.46529">
        <ele>879.26</ele>
        <time>2015-08-29T09:13:28Z</time>
      </trkpt>
      <trkpt lat="43.06514" lon="-0.46497">
        <ele>881.19</ele>
        <time>2015-08-29T09:13:40Z</time>
      </trkpt>
      <trkpt lat="43.06495" lon="-0.46491">
        <ele>881.67</ele>
        <time>2015-08-29T09:13:52Z</time>
      </trkpt>
      <trkpt lat="43.06468" lon="-0.46488">
        <ele>882.15</ele>
        <time>2015-08-29T09:14:06Z</time>
      </trkpt>
      <trkpt lat="43.06431" lon="-0.46497">
        <ele>882.15</ele>
        <time>2015-08-29T09:14:21Z</time>
      </trkpt>
      <trkpt lat="43.06397" lon="-0.46515">
        <ele>884.07</ele>
        <time>2015-08-29T09:14:36Z</time>
      </trkpt>
      <trkpt lat="43.06361" lon="-0.46524">
        <ele>884.55</ele>
        <time>2015-08-29T09:14:48Z</time>
      </trkpt>
      <trkpt lat="43.06336" lon="-0.46534">
        <ele>883.59</ele>
        <time>2015-08-29T09:14:54Z</time>
      </trkpt>
      <trkpt lat="43.0629" lon="-0.46554">
        <ele>883.59</ele>
        <time>2015-08-29T09:15:07Z</time>
      </trkpt>
      <trkpt lat="43.06249" lon="-0.46583">
        <ele>883.11</ele>
        <time>2015-08-29T09:15:21Z</time>
      </trkpt>
      <trkpt lat="43.06209" lon="-0.46601">
        <ele>884.55</ele>
        <time>2015-08-29T09:15:34Z</time>
      </trkpt>
      <trkpt lat="43.06169" lon="-0.4661">
        <ele>885.51</ele>
        <time>2015-08-29T09:15:47Z</time>
      </trkpt>
      <trkpt lat="43.06124" lon="-0.46594">
        <ele>888.4</ele>
        <time>2015-08-29T09:16:00Z</time>
      </trkpt>
      <trkpt lat="43.06083" lon="-0.46566">
        <ele>891.28</ele>
        <time>2015-08-29T09:16:14Z</time>
      </trkpt>
      <trkpt lat="43.06053" lon="-0.46557">
        <ele>895.61</ele>
        <time>2015-08-29T09:16:26Z</time>
      </trkpt>
      <trkpt lat="43.06021" lon="-0.46555">
        <ele>895.61</ele>
        <time>2015-08-29T09:16:39Z</time>
      </trkpt>
      <trkpt lat="43.05992" lon="-0.46543">
        <ele>894.64</ele>
        <time>2015-08-29T09:16:51Z</time>
      </trkpt>
      <trkpt lat="43.05963" lon="-0.4652">
        <ele>894.64</ele>
        <time>2015-08-29T09:17:05Z</time>
      </trkpt>
      <trkpt lat="43.05947" lon="-0.465">
        <ele>892.24</ele>
        <time>2015-08-29T09:17:11Z</time>
      </trkpt>
      <trkpt lat="43.05945" lon="-0.46495">
        <ele>891.76</ele>
        <time>2015-08-29T09:17:12Z</time>
      </trkpt>
      <trkpt lat="43.0591" lon="-0.4642">
        <ele>885.03</ele>
        <time>2015-08-29T09:17:22Z</time>
      </trkpt>
      <trkpt lat="43.05873" lon="-0.46347">
        <ele>880.22</ele>
        <time>2015-08-29T09:17:29Z</time>
      </trkpt>
      <trkpt lat="43.05862" lon="-0.46316">
        <ele>874.94</ele>
        <time>2015-08-29T09:17:35Z</time>
      </trkpt>
      <trkpt lat="43.05863" lon="-0.46313">
        <ele>873.98</ele>
        <time>2015-08-29T09:17:36Z</time>
      </trkpt>
      <trkpt lat="43.05866" lon="-0.4631">
        <ele>873.5</ele>
        <time>2015-08-29T09:17:37Z</time>
      </trkpt>
      <trkpt lat="43.05869" lon="-0.46307">
        <ele>872.53</ele>
        <time>2015-08-29T09:17:38Z</time>
      </trkpt>
      <trkpt lat="43.05873" lon="-0.46301">
        <ele>872.05</ele>
        <time>2015-08-29T09:17:39Z</time>
      </trkpt>
      <trkpt lat="43.05876" lon="-0.46292">
        <ele>871.09</ele>
        <time>2015-08-29T09:17:40Z</time>
      </trkpt>
      <trkpt lat="43.05878" lon="-0.46282">
        <ele>870.61</ele>
        <time>2015-08-29T09:17:41Z</time>
      </trkpt>
      <trkpt lat="43.05879" lon="-0.46272">
        <ele>869.65</ele>
        <time>2015-08-29T09:17:42Z</time>
      </trkpt>
      <trkpt lat="43.05883" lon="-0.46241">
        <ele>867.25</ele>
        <time>2015-08-29T09:17:45Z</time>
      </trkpt>
      <trkpt lat="43.05888" lon="-0.4622">
        <ele>865.8</ele>
        <time>2015-08-29T09:17:47Z</time>
      </trkpt>
      <trkpt lat="43.05889" lon="-0.46209">
        <ele>865.32</ele>
        <time>2015-08-29T09:17:48Z</time>
      </trkpt>
      <trkpt lat="43.0589" lon="-0.46198">
        <ele>864.84</ele>
        <time>2015-08-29T09:17:49Z</time>
      </trkpt>
      <trkpt lat="43.05892" lon="-0.46189">
        <ele>864.84</ele>
        <time>2015-08-29T09:17:50Z</time>
      </trkpt>
      <trkpt lat="43.05892" lon="-0.46181">
        <ele>864.36</ele>
        <time>2015-08-29T09:17:51Z</time>
      </trkpt>
      <trkpt lat="43.05892" lon="-0.46153">
        <ele>863.4</ele>
        <time>2015-08-29T09:17:55Z</time>
      </trkpt>
      <trkpt lat="43.05886" lon="-0.46123">
        <ele>863.4</ele>
        <time>2015-08-29T09:18:00Z</time>
      </trkpt>
      <trkpt lat="43.05887" lon="-0.46059">
        <ele>859.56</ele>
        <time>2015-08-29T09:18:09Z</time>
      </trkpt>
      <trkpt lat="43.05887" lon="-0.46053">
        <ele>859.08</ele>
        <time>2015-08-29T09:18:10Z</time>
      </trkpt>
      <trkpt lat="43.05887" lon="-0.46035">
        <ele>856.19</ele>
        <time>2015-08-29T09:18:13Z</time>
      </trkpt>
      <trkpt lat="43.05888" lon="-0.46027">
        <ele>855.23</ele>
        <time>2015-08-29T09:18:14Z</time>
      </trkpt>
      <trkpt lat="43.05887" lon="-0.46021">
        <ele>853.79</ele>
        <time>2015-08-29T09:18:15Z</time>
      </trkpt>
      <trkpt lat="43.05885" lon="-0.46015">
        <ele>852.83</ele>
        <time>2015-08-29T09:18:16Z</time>
      </trkpt>
      <trkpt lat="43.05882" lon="-0.46012">
        <ele>851.87</ele>
        <time>2015-08-29T09:18:17Z</time>
      </trkpt>
      <trkpt lat="43.0588" lon="-0.46011">
        <ele>849.94</ele>
        <time>2015-08-29T09:18:21Z</time>
      </trkpt>
      <trkpt lat="43.05879" lon="-0.4601">
        <ele>848.98</ele>
        <time>2015-08-29T09:18:30Z</time>
      </trkpt>
      <trkpt lat="43.05878" lon="-0.46009">
        <ele>848.98</ele>
        <time>2015-08-29T09:18:45Z</time>
      </trkpt>
      <trkpt lat="43.05877" lon="-0.46009">
        <ele>848.98</ele>
        <time>2015-08-29T09:19:08Z</time>
      </trkpt>
      <trkpt lat="43.05876" lon="-0.46009">
        <ele>849.46</ele>
        <time>2015-08-29T09:19:24Z</time>
      </trkpt>
      <trkpt lat="43.05876" lon="-0.46009">
        <ele>849.46</ele>
        <time>2015-08-29T09:19:25Z</time>
      </trkpt>
      <trkpt lat="43.05874" lon="-0.4601">
        <ele>849.46</ele>
        <time>2015-08-29T09:19:26Z</time>
      </trkpt>
      <trkpt lat="43.05872" lon="-0.4601">
        <ele>849.94</ele>
        <time>2015-08-29T09:19:27Z</time>
      </trkpt>
      <trkpt lat="43.0587" lon="-0.46011">
        <ele>850.42</ele>
        <time>2015-08-29T09:19:28Z</time>
      </trkpt>
      <trkpt lat="43.05868" lon="-0.46013">
        <ele>850.42</ele>
        <time>2015-08-29T09:19:29Z</time>
      </trkpt>
      <trkpt lat="43.05866" lon="-0.46014">
        <ele>850.9</ele>
        <time>2015-08-29T09:19:30Z</time>
      </trkpt>
      <trkpt lat="43.05863" lon="-0.46015">
        <ele>850.9</ele>
        <time>2015-08-29T09:19:31Z</time>
      </trkpt>
      <trkpt lat="43.05821" lon="-0.46029">
        <ele>852.35</ele>
        <time>2015-08-29T09:19:44Z</time>
      </trkpt>
      <trkpt lat="43.05793" lon="-0.46041">
        <ele>854.27</ele>
        <time>2015-08-29T09:19:55Z</time>
      </trkpt>
      <trkpt lat="43.05764" lon="-0.46049">
        <ele>857.15</ele>
        <time>2015-08-29T09:20:05Z</time>
      </trkpt>
      <trkpt lat="43.05716" lon="-0.46049">
        <ele>860.04</ele>
        <time>2015-08-29T09:20:19Z</time>
      </trkpt>
      <trkpt lat="43.05682" lon="-0.46056">
        <ele>862.44</ele>
        <time>2015-08-29T09:20:31Z</time>
      </trkpt>
      <trkpt lat="43.05648" lon="-0.46064">
        <ele>864.36</ele>
        <time>2015-08-29T09:20:43Z</time>
      </trkpt>
      <trkpt lat="43.05636" lon="-0.46078">
        <ele>864.36</ele>
        <time>2015-08-29T09:20:48Z</time>
      </trkpt>
      <trkpt lat="43.05635" lon="-0.46083">
        <ele>864.36</ele>
        <time>2015-08-29T09:20:49Z</time>
      </trkpt>
      <trkpt lat="43.05635" lon="-0.46088">
        <ele>864.36</ele>
        <time>2015-08-29T09:20:50Z</time>
      </trkpt>
      <trkpt lat="43.05637" lon="-0.46144">
        <ele>864.36</ele>
        <time>2015-08-29T09:21:03Z</time>
      </trkpt>
      <trkpt lat="43.05623" lon="-0.4618">
        <ele>865.32</ele>
        <time>2015-08-29T09:21:16Z</time>
      </trkpt>
      <trkpt lat="43.05599" lon="-0.46175">
        <ele>865.32</ele>
        <time>2015-08-29T09:21:28Z</time>
      </trkpt>
      <trkpt lat="43.05562" lon="-0.46143">
        <ele>867.25</ele>
        <time>2015-08-29T09:21:45Z</time>
      </trkpt>
      <trkpt lat="43.05526" lon="-0.46116">
        <ele>868.21</ele>
        <time>2015-08-29T09:21:58Z</time>
      </trkpt>
      <trkpt lat="43.05478" lon="-0.46077">
        <ele>868.21</ele>
        <time>2015-08-29T09:22:14Z</time>
      </trkpt>
      <trkpt lat="43.05461" lon="-0.4606">
        <ele>869.17</ele>
        <time>2015-08-29T09:22:20Z</time>
      </trkpt>
      <trkpt lat="43.05421" lon="-0.46016">
        <ele>871.57</ele>
        <time>2015-08-29T09:22:35Z</time>
      </trkpt>
      <trkpt lat="43.05393" lon="-0.46005">
        <ele>871.57</ele>
        <time>2015-08-29T09:22:43Z</time>
      </trkpt>
      <trkpt lat="43.05343" lon="-0.45989">
        <ele>871.57</ele>
        <time>2015-08-29T09:22:56Z</time>
      </trkpt>
      <trkpt lat="43.05299" lon="-0.45971">
        <ele>872.05</ele>
        <time>2015-08-29T09:23:09Z</time>
      </trkpt>
      <trkpt lat="43.05263" lon="-0.45967">
        <ele>876.38</ele>
        <time>2015-08-29T09:23:23Z</time>
      </trkpt>
      <trkpt lat="43.05235" lon="-0.45958">
        <ele>879.74</ele>
        <time>2015-08-29T09:23:35Z</time>
      </trkpt>
      <trkpt lat="43.05209" lon="-0.45939">
        <ele>884.07</ele>
        <time>2015-08-29T09:23:46Z</time>
      </trkpt>
      <trkpt lat="43.05182" lon="-0.4591">
        <ele>889.36</ele>
        <time>2015-08-29T09:23:59Z</time>
      </trkpt>
      <trkpt lat="43.05166" lon="-0.45895">
        <ele>893.2</ele>
        <time>2015-08-29T09:24:12Z</time>
      </trkpt>
      <trkpt lat="43.05139" lon="-0.45897">
        <ele>894.64</ele>
        <time>2015-08-29T09:24:23Z</time>
      </trkpt>
      <trkpt lat="43.05112" lon="-0.45916">
        <ele>898.97</ele>
        <time>2015-08-29T09:24:38Z</time>
      </trkpt>
      <trkpt lat="43.05109" lon="-0.4592">
        <ele>899.93</ele>
        <time>2015-08-29T09:24:40Z</time>
      </trkpt>
      <trkpt lat="43.05107" lon="-0.45922">
        <ele>899.93</ele>
        <time>2015-08-29T09:24:41Z</time>
      </trkpt>
      <trkpt lat="43.05096" lon="-0.45937">
        <ele>900.89</ele>
        <time>2015-08-29T09:24:49Z</time>
      </trkpt>
      <trkpt lat="43.05072" lon="-0.45961">
        <ele>902.33</ele>
        <time>2015-08-29T09:25:04Z</time>
      </trkpt>
      <trkpt lat="43.0505" lon="-0.45983">
        <ele>901.85</ele>
        <time>2015-08-29T09:25:17Z</time>
      </trkpt>
      <trkpt lat="43.05022" lon="-0.46007">
        <ele>902.33</ele>
        <time>2015-08-29T09:25:31Z</time>
      </trkpt>
      <trkpt lat="43.04989" lon="-0.46038">
        <ele>900.89</ele>
        <time>2015-08-29T09:25:38Z</time>
      </trkpt>
      <trkpt lat="43.04958" lon="-0.46074">
        <ele>899.45</ele>
        <time>2015-08-29T09:25:44Z</time>
      </trkpt>
      <trkpt lat="43.04953" lon="-0.46082">
        <ele>898.97</ele>
        <time>2015-08-29T09:25:45Z</time>
      </trkpt>
      <trkpt lat="43.04948" lon="-0.46091">
        <ele>898.01</ele>
        <time>2015-08-29T09:25:46Z</time>
      </trkpt>
      <trkpt lat="43.04943" lon="-0.46101">
        <ele>897.53</ele>
        <time>2015-08-29T09:25:47Z</time>
      </trkpt>
      <trkpt lat="43.0494" lon="-0.4611">
        <ele>897.53</ele>
        <time>2015-08-29T09:25:48Z</time>
      </trkpt>
      <trkpt lat="43.04936" lon="-0.46116">
        <ele>896.57</ele>
        <time>2015-08-29T09:25:49Z</time>
      </trkpt>
      <trkpt lat="43.0493" lon="-0.4612">
        <ele>896.09</ele>
        <time>2015-08-29T09:25:50Z</time>
      </trkpt>
      <trkpt lat="43.04924" lon="-0.46121">
        <ele>895.61</ele>
        <time>2015-08-29T09:25:51Z</time>
      </trkpt>
      <trkpt lat="43.04917" lon="-0.46122">
        <ele>895.12</ele>
        <time>2015-08-29T09:25:52Z</time>
      </trkpt>
      <trkpt lat="43.04911" lon="-0.46122">
        <ele>894.16</ele>
        <time>2015-08-29T09:25:53Z</time>
      </trkpt>
      <trkpt lat="43.04904" lon="-0.46123">
        <ele>893.68</ele>
        <time>2015-08-29T09:25:54Z</time>
      </trkpt>
      <trkpt lat="43.04872" lon="-0.4613">
        <ele>890.8</ele>
        <time>2015-08-29T09:26:00Z</time>
      </trkpt>
      <trkpt lat="43.04871" lon="-0.46128">
        <ele>890.8</ele>
        <time>2015-08-29T09:26:01Z</time>
      </trkpt>
      <trkpt lat="43.04871" lon="-0.46129">
        <ele>889.36</ele>
        <time>2015-08-29T09:26:14Z</time>
      </trkpt>
      <trkpt lat="43.04869" lon="-0.46126">
        <ele>888.4</ele>
        <time>2015-08-29T09:26:27Z</time>
      </trkpt>
      <trkpt lat="43.04869" lon="-0.46127">
        <ele>888.4</ele>
        <time>2015-08-29T09:26:42Z</time>
      </trkpt>
      <trkpt lat="43.0487" lon="-0.46126">
        <ele>889.36</ele>
        <time>2015-08-29T09:26:58Z</time>
      </trkpt>
      <trkpt lat="43.04868" lon="-0.46123">
        <ele>887.91</ele>
        <time>2015-08-29T09:27:10Z</time>
      </trkpt>
      <trkpt lat="43.04866" lon="-0.46124">
        <ele>886.47</ele>
        <time>2015-08-29T09:27:25Z</time>
      </trkpt>
      <trkpt lat="43.04864" lon="-0.46124">
        <ele>887.43</ele>
        <time>2015-08-29T09:27:49Z</time>
      </trkpt>
      <trkpt lat="43.04864" lon="-0.46123">
        <ele>887.43</ele>
        <time>2015-08-29T09:28:05Z</time>
      </trkpt>
      <trkpt lat="43.04865" lon="-0.46122">
        <ele>886.95</ele>
        <time>2015-08-29T09:28:30Z</time>
      </trkpt>
      <trkpt lat="43.04864" lon="-0.46121">
        <ele>886.47</ele>
        <time>2015-08-29T09:28:35Z</time>
      </trkpt>
      <trkpt lat="43.04862" lon="-0.46121">
        <ele>886.47</ele>
        <time>2015-08-29T09:28:36Z</time>
      </trkpt>
      <trkpt lat="43.04861" lon="-0.4612">
        <ele>885.99</ele>
        <time>2015-08-29T09:28:37Z</time>
      </trkpt>
      <trkpt lat="43.04858" lon="-0.4612">
        <ele>885.99</ele>
        <time>2015-08-29T09:28:38Z</time>
      </trkpt>
      <trkpt lat="43.04856" lon="-0.46119">
        <ele>885.51</ele>
        <time>2015-08-29T09:28:39Z</time>
      </trkpt>
      <trkpt lat="43.04845" lon="-0.46116">
        <ele>885.51</ele>
        <time>2015-08-29T09:28:44Z</time>
      </trkpt>
      <trkpt lat="43.04813" lon="-0.46126">
        <ele>886.47</ele>
        <time>2015-08-29T09:28:55Z</time>
      </trkpt>
      <trkpt lat="43.04803" lon="-0.46125">
        <ele>885.99</ele>
        <time>2015-08-29T09:29:00Z</time>
      </trkpt>
      <trkpt lat="43.04803" lon="-0.46123">
        <ele>885.99</ele>
        <time>2015-08-29T09:29:01Z</time>
      </trkpt>
      <trkpt lat="43.04808" lon="-0.46111">
        <ele>885.03</ele>
        <time>2015-08-29T09:29:05Z</time>
      </trkpt>
      <trkpt lat="43.04818" lon="-0.46092">
        <ele>884.55</ele>
        <time>2015-08-29T09:29:11Z</time>
      </trkpt>
      <trkpt lat="43.04848" lon="-0.4604">
        <ele>881.19</ele>
        <time>2015-08-29T09:29:22Z</time>
      </trkpt>
      <trkpt lat="43.04852" lon="-0.46029">
        <ele>880.22</ele>
        <time>2015-08-29T09:29:24Z</time>
      </trkpt>
      <trkpt lat="43.04866" lon="-0.46023">
        <ele>877.82</ele>
        <time>2015-08-29T09:29:28Z</time>
      </trkpt>
      <trkpt lat="43.04879" lon="-0.46025">
        <ele>874.94</ele>
        <time>2015-08-29T09:29:31Z</time>
      </trkpt>
      <trkpt lat="43.04901" lon="-0.46011">
        <ele>872.05</ele>
        <time>2015-08-29T09:29:36Z</time>
      </trkpt>
      <trkpt lat="43.04912" lon="-0.45983">
        <ele>868.69</ele>
        <time>2015-08-29T09:29:45Z</time>
      </trkpt>
      <trkpt lat="43.04913" lon="-0.45955">
        <ele>866.77</ele>
        <time>2015-08-29T09:29:50Z</time>
      </trkpt>
      <trkpt lat="43.04939" lon="-0.45902">
        <ele>863.4</ele>
        <time>2015-08-29T09:30:01Z</time>
      </trkpt>
      <trkpt lat="43.04952" lon="-0.45879">
        <ele>862.44</ele>
        <time>2015-08-29T09:30:05Z</time>
      </trkpt>
      <trkpt lat="43.04965" lon="-0.45855">
        <ele>862.44</ele>
        <time>2015-08-29T09:30:09Z</time>
      </trkpt>
      <trkpt lat="43.04989" lon="-0.45802">
        <ele>859.08</ele>
        <time>2015-08-29T09:30:19Z</time>
      </trkpt>
      <trkpt lat="43.05013" lon="-0.45778">
        <ele>857.63</ele>
        <time>2015-08-29T09:30:27Z</time>
      </trkpt>
      <trkpt lat="43.05023" lon="-0.45756">
        <ele>858.59</ele>
        <time>2015-08-29T09:30:35Z</time>
      </trkpt>
      <trkpt lat="43.05026" lon="-0.45752">
        <ele>856.19</ele>
        <time>2015-08-29T09:30:44Z</time>
      </trkpt>
      <trkpt lat="43.05027" lon="-0.45748">
        <ele>856.19</ele>
        <time>2015-08-29T09:30:45Z</time>
      </trkpt>
      <trkpt lat="43.05027" lon="-0.45743">
        <ele>856.19</ele>
        <time>2015-08-29T09:30:46Z</time>
      </trkpt>
      <trkpt lat="43.05028" lon="-0.45737">
        <ele>856.19</ele>
        <time>2015-08-29T09:30:47Z</time>
      </trkpt>
      <trkpt lat="43.05028" lon="-0.45731">
        <ele>856.19</ele>
        <time>2015-08-29T09:30:48Z</time>
      </trkpt>
      <trkpt lat="43.05028" lon="-0.45725">
        <ele>856.67</ele>
        <time>2015-08-29T09:30:49Z</time>
      </trkpt>
      <trkpt lat="43.0503" lon="-0.45718">
        <ele>856.19</ele>
        <time>2015-08-29T09:30:51Z</time>
      </trkpt>
      <trkpt lat="43.05029" lon="-0.45712">
        <ele>852.83</ele>
        <time>2015-08-29T09:30:54Z</time>
      </trkpt>
      <trkpt lat="43.05018" lon="-0.45722">
        <ele>844.18</ele>
        <time>2015-08-29T09:30:59Z</time>
      </trkpt>
      <trkpt lat="43.05014" lon="-0.45724">
        <ele>842.25</ele>
        <time>2015-08-29T09:31:00Z</time>
      </trkpt>
      <trkpt lat="43.0501" lon="-0.45725">
        <ele>840.33</ele>
        <time>2015-08-29T09:31:01Z</time>
      </trkpt>
      <trkpt lat="43.04998" lon="-0.45723">
        <ele>825.91</ele>
        <time>2015-08-29T09:31:08Z</time>
      </trkpt>
      <trkpt lat="43.05006" lon="-0.45721">
        <ele>823.03</ele>
        <time>2015-08-29T09:31:13Z</time>
      </trkpt>
      <trkpt lat="43.0503" lon="-0.45682">
        <ele>822.06</ele>
        <time>2015-08-29T09:31:23Z</time>
      </trkpt>
      <trkpt lat="43.05069" lon="-0.45641">
        <ele>820.14</ele>
        <time>2015-08-29T09:31:32Z</time>
      </trkpt>
      <trkpt lat="43.05074" lon="-0.45638">
        <ele>819.66</ele>
        <time>2015-08-29T09:31:33Z</time>
      </trkpt>
      <trkpt lat="43.05079" lon="-0.45635">
        <ele>818.22</ele>
        <time>2015-08-29T09:31:34Z</time>
      </trkpt>
      <trkpt lat="43.05096" lon="-0.45631">
        <ele>816.3</ele>
        <time>2015-08-29T09:31:37Z</time>
      </trkpt>
      <trkpt lat="43.051" lon="-0.45628">
        <ele>816.3</ele>
        <time>2015-08-29T09:31:38Z</time>
      </trkpt>
      <trkpt lat="43.05105" lon="-0.45624">
        <ele>815.82</ele>
        <time>2015-08-29T09:31:39Z</time>
      </trkpt>
      <trkpt lat="43.05108" lon="-0.45619">
        <ele>815.82</ele>
        <time>2015-08-29T09:31:40Z</time>
      </trkpt>
      <trkpt lat="43.05112" lon="-0.45613">
        <ele>815.82</ele>
        <time>2015-08-29T09:31:41Z</time>
      </trkpt>
      <trkpt lat="43.05116" lon="-0.45606">
        <ele>815.34</ele>
        <time>2015-08-29T09:31:42Z</time>
      </trkpt>
      <trkpt lat="43.0512" lon="-0.45597">
        <ele>815.34</ele>
        <time>2015-08-29T09:31:43Z</time>
      </trkpt>
      <trkpt lat="43.05139" lon="-0.45558">
        <ele>811.97</ele>
        <time>2015-08-29T09:31:49Z</time>
      </trkpt>
      <trkpt lat="43.05144" lon="-0.45553">
        <ele>811.01</ele>
        <time>2015-08-29T09:31:50Z</time>
      </trkpt>
      <trkpt lat="43.0515" lon="-0.45549">
        <ele>810.05</ele>
        <time>2015-08-29T09:31:51Z</time>
      </trkpt>
      <trkpt lat="43.05157" lon="-0.45545">
        <ele>810.05</ele>
        <time>2015-08-29T09:31:52Z</time>
      </trkpt>
      <trkpt lat="43.05163" lon="-0.45542">
        <ele>809.57</ele>
        <time>2015-08-29T09:31:53Z</time>
      </trkpt>
      <trkpt lat="43.0517" lon="-0.4554">
        <ele>809.57</ele>
        <time>2015-08-29T09:31:54Z</time>
      </trkpt>
      <trkpt lat="43.05176" lon="-0.45536">
        <ele>808.13</ele>
        <time>2015-08-29T09:31:55Z</time>
      </trkpt>
      <trkpt lat="43.0518" lon="-0.45532">
        <ele>807.64</ele>
        <time>2015-08-29T09:31:56Z</time>
      </trkpt>
      <trkpt lat="43.05185" lon="-0.45528">
        <ele>807.16</ele>
        <time>2015-08-29T09:31:57Z</time>
      </trkpt>
      <trkpt lat="43.05191" lon="-0.45524">
        <ele>806.2</ele>
        <time>2015-08-29T09:31:58Z</time>
      </trkpt>
      <trkpt lat="43.05195" lon="-0.45521">
        <ele>805.72</ele>
        <time>2015-08-29T09:31:59Z</time>
      </trkpt>
      <trkpt lat="43.052" lon="-0.45519">
        <ele>805.24</ele>
        <time>2015-08-29T09:32:00Z</time>
      </trkpt>
      <trkpt lat="43.05204" lon="-0.45516">
        <ele>805.24</ele>
        <time>2015-08-29T09:32:01Z</time>
      </trkpt>
      <trkpt lat="43.05208" lon="-0.45513">
        <ele>804.76</ele>
        <time>2015-08-29T09:32:02Z</time>
      </trkpt>
      <trkpt lat="43.05212" lon="-0.45511">
        <ele>804.28</ele>
        <time>2015-08-29T09:32:03Z</time>
      </trkpt>
      <trkpt lat="43.05216" lon="-0.4551">
        <ele>803.8</ele>
        <time>2015-08-29T09:32:04Z</time>
      </trkpt>
      <trkpt lat="43.05219" lon="-0.45509">
        <ele>803.8</ele>
        <time>2015-08-29T09:32:05Z</time>
      </trkpt>
      <trkpt lat="43.05223" lon="-0.4551">
        <ele>802.84</ele>
        <time>2015-08-29T09:32:06Z</time>
      </trkpt>
      <trkpt lat="43.05227" lon="-0.4551">
        <ele>802.36</ele>
        <time>2015-08-29T09:32:07Z</time>
      </trkpt>
      <trkpt lat="43.05232" lon="-0.45509">
        <ele>801.88</ele>
        <time>2015-08-29T09:32:08Z</time>
      </trkpt>
      <trkpt lat="43.05237" lon="-0.45509">
        <ele>801.4</ele>
        <time>2015-08-29T09:32:09Z</time>
      </trkpt>
      <trkpt lat="43.05242" lon="-0.45508">
        <ele>801.4</ele>
        <time>2015-08-29T09:32:10Z</time>
      </trkpt>
      <trkpt lat="43.05248" lon="-0.45507">
        <ele>801.4</ele>
        <time>2015-08-29T09:32:11Z</time>
      </trkpt>
      <trkpt lat="43.05252" lon="-0.45506">
        <ele>801.4</ele>
        <time>2015-08-29T09:32:12Z</time>
      </trkpt>
      <trkpt lat="43.05267" lon="-0.45499">
        <ele>800.44</ele>
        <time>2015-08-29T09:32:15Z</time>
      </trkpt>
      <trkpt lat="43.05273" lon="-0.45496">
        <ele>799.47</ele>
        <time>2015-08-29T09:32:16Z</time>
      </trkpt>
      <trkpt lat="43.05279" lon="-0.45492">
        <ele>798.03</ele>
        <time>2015-08-29T09:32:17Z</time>
      </trkpt>
      <trkpt lat="43.05284" lon="-0.45487">
        <ele>796.59</ele>
        <time>2015-08-29T09:32:18Z</time>
      </trkpt>
      <trkpt lat="43.05288" lon="-0.45481">
        <ele>796.11</ele>
        <time>2015-08-29T09:32:19Z</time>
      </trkpt>
      <trkpt lat="43.05294" lon="-0.45477">
        <ele>793.71</ele>
        <time>2015-08-29T09:32:20Z</time>
      </trkpt>
      <trkpt lat="43.05299" lon="-0.45472">
        <ele>792.26</ele>
        <time>2015-08-29T09:32:21Z</time>
      </trkpt>
      <trkpt lat="43.05311" lon="-0.45467">
        <ele>790.34</ele>
        <time>2015-08-29T09:32:23Z</time>
      </trkpt>
      <trkpt lat="43.05346" lon="-0.45462">
        <ele>777.84</ele>
        <time>2015-08-29T09:32:27Z</time>
      </trkpt>
      <trkpt lat="43.05355" lon="-0.45458">
        <ele>774</ele>
        <time>2015-08-29T09:32:28Z</time>
      </trkpt>
      <trkpt lat="43.05361" lon="-0.4545">
        <ele>774</ele>
        <time>2015-08-29T09:32:29Z</time>
      </trkpt>
      <trkpt lat="43.05382" lon="-0.45429">
        <ele>769.19</ele>
        <time>2015-08-29T09:32:32Z</time>
      </trkpt>
      <trkpt lat="43.05391" lon="-0.45423">
        <ele>767.27</ele>
        <time>2015-08-29T09:32:33Z</time>
      </trkpt>
      <trkpt lat="43.05435" lon="-0.45391">
        <ele>759.58</ele>
        <time>2015-08-29T09:32:38Z</time>
      </trkpt>
      <trkpt lat="43.05492" lon="-0.45356">
        <ele>751.41</ele>
        <time>2015-08-29T09:32:45Z</time>
      </trkpt>
      <trkpt lat="43.05551" lon="-0.45295">
        <ele>742.28</ele>
        <time>2015-08-29T09:32:53Z</time>
      </trkpt>
      <trkpt lat="43.05556" lon="-0.45287">
        <ele>741.31</ele>
        <time>2015-08-29T09:32:54Z</time>
      </trkpt>
      <trkpt lat="43.0556" lon="-0.45277">
        <ele>740.35</ele>
        <time>2015-08-29T09:32:55Z</time>
      </trkpt>
      <trkpt lat="43.05562" lon="-0.45268">
        <ele>739.87</ele>
        <time>2015-08-29T09:32:56Z</time>
      </trkpt>
      <trkpt lat="43.05572" lon="-0.45201">
        <ele>736.03</ele>
        <time>2015-08-29T09:33:06Z</time>
      </trkpt>
      <trkpt lat="43.05602" lon="-0.4517">
        <ele>731.7</ele>
        <time>2015-08-29T09:33:17Z</time>
      </trkpt>
      <trkpt lat="43.05654" lon="-0.45145">
        <ele>727.37</ele>
        <time>2015-08-29T09:33:25Z</time>
      </trkpt>
      <trkpt lat="43.0566" lon="-0.45143">
        <ele>726.89</ele>
        <time>2015-08-29T09:33:26Z</time>
      </trkpt>
      <trkpt lat="43.05665" lon="-0.45141">
        <ele>726.89</ele>
        <time>2015-08-29T09:33:27Z</time>
      </trkpt>
      <trkpt lat="43.05668" lon="-0.45138">
        <ele>726.89</ele>
        <time>2015-08-29T09:33:28Z</time>
      </trkpt>
      <trkpt lat="43.05673" lon="-0.4513">
        <ele>725.93</ele>
        <time>2015-08-29T09:33:36Z</time>
      </trkpt>
      <trkpt lat="43.05673" lon="-0.45129">
        <ele>725.45</ele>
        <time>2015-08-29T09:33:38Z</time>
      </trkpt>
      <trkpt lat="43.05674" lon="-0.45128">
        <ele>725.45</ele>
        <time>2015-08-29T09:33:39Z</time>
      </trkpt>
      <trkpt lat="43.05674" lon="-0.45125">
        <ele>725.45</ele>
        <time>2015-08-29T09:33:40Z</time>
      </trkpt>
      <trkpt lat="43.05673" lon="-0.45122">
        <ele>725.45</ele>
        <time>2015-08-29T09:33:41Z</time>
      </trkpt>
      <trkpt lat="43.05674" lon="-0.45118">
        <ele>725.45</ele>
        <time>2015-08-29T09:33:42Z</time>
      </trkpt>
      <trkpt lat="43.05674" lon="-0.45114">
        <ele>724.97</ele>
        <time>2015-08-29T09:33:43Z</time>
      </trkpt>
      <trkpt lat="43.05663" lon="-0.45065">
        <ele>724.49</ele>
        <time>2015-08-29T09:33:54Z</time>
      </trkpt>
      <trkpt lat="43.0566" lon="-0.45055">
        <ele>724.01</ele>
        <time>2015-08-29T09:33:56Z</time>
      </trkpt>
      <trkpt lat="43.05659" lon="-0.45049">
        <ele>724.01</ele>
        <time>2015-08-29T09:33:57Z</time>
      </trkpt>
      <trkpt lat="43.05661" lon="-0.45036">
        <ele>723.53</ele>
        <time>2015-08-29T09:33:59Z</time>
      </trkpt>
      <trkpt lat="43.05663" lon="-0.45015">
        <ele>723.05</ele>
        <time>2015-08-29T09:34:02Z</time>
      </trkpt>
      <trkpt lat="43.05671" lon="-0.44969">
        <ele>720.65</ele>
        <time>2015-08-29T09:34:12Z</time>
      </trkpt>
      <trkpt lat="43.05672" lon="-0.44968">
        <ele>720.16</ele>
        <time>2015-08-29T09:34:23Z</time>
      </trkpt>
      <trkpt lat="43.05672" lon="-0.44968">
        <ele>718.24</ele>
        <time>2015-08-29T09:34:36Z</time>
      </trkpt>
      <trkpt lat="43.0567" lon="-0.44967">
        <ele>715.84</ele>
        <time>2015-08-29T09:34:51Z</time>
      </trkpt>
      <trkpt lat="43.05669" lon="-0.44967">
        <ele>713.92</ele>
        <time>2015-08-29T09:35:11Z</time>
      </trkpt>
      <trkpt lat="43.05668" lon="-0.44966">
        <ele>713.44</ele>
        <time>2015-08-29T09:35:25Z</time>
      </trkpt>
      <trkpt lat="43.05668" lon="-0.44967">
        <ele>711.99</ele>
        <time>2015-08-29T09:35:37Z</time>
      </trkpt>
      <trkpt lat="43.05669" lon="-0.44969">
        <ele>707.67</ele>
        <time>2015-08-29T09:35:56Z</time>
      </trkpt>
      <trkpt lat="43.0567" lon="-0.44969">
        <ele>708.15</ele>
        <time>2015-08-29T09:36:11Z</time>
      </trkpt>
      <trkpt lat="43.05671" lon="-0.44967">
        <ele>707.19</ele>
        <time>2015-08-29T09:36:19Z</time>
      </trkpt>
      <trkpt lat="43.05672" lon="-0.44968">
        <ele>705.75</ele>
        <time>2015-08-29T09:36:42Z</time>
      </trkpt>
      <trkpt lat="43.05675" lon="-0.44967">
        <ele>705.75</ele>
        <time>2015-08-29T09:36:44Z</time>
      </trkpt>
      <trkpt lat="43.05676" lon="-0.44966">
        <ele>705.75</ele>
        <time>2015-08-29T09:36:45Z</time>
      </trkpt>
      <trkpt lat="43.05677" lon="-0.44965">
        <ele>705.75</ele>
        <time>2015-08-29T09:36:46Z</time>
      </trkpt>
      <trkpt lat="43.05679" lon="-0.44963">
        <ele>705.75</ele>
        <time>2015-08-29T09:36:47Z</time>
      </trkpt>
      <trkpt lat="43.0568" lon="-0.44962">
        <ele>705.75</ele>
        <time>2015-08-29T09:36:48Z</time>
      </trkpt>
      <trkpt lat="43.05682" lon="-0.44962">
        <ele>705.75</ele>
        <time>2015-08-29T09:36:49Z</time>
      </trkpt>
      <trkpt lat="43.05685" lon="-0.44962">
        <ele>705.75</ele>
        <time>2015-08-29T09:36:50Z</time>
      </trkpt>
      <trkpt lat="43.05689" lon="-0.44961">
        <ele>705.26</ele>
        <time>2015-08-29T09:36:51Z</time>
      </trkpt>
      <trkpt lat="43.05693" lon="-0.4496">
        <ele>705.26</ele>
        <time>2015-08-29T09:36:52Z</time>
      </trkpt>
      <trkpt lat="43.0571" lon="-0.44958">
        <ele>703.82</ele>
        <time>2015-08-29T09:36:55Z</time>
      </trkpt>
      <trkpt lat="43.05723" lon="-0.44957">
        <ele>703.82</ele>
        <time>2015-08-29T09:36:57Z</time>
      </trkpt>
      <trkpt lat="43.0573" lon="-0.4496">
        <ele>703.34</ele>
        <time>2015-08-29T09:36:58Z</time>
      </trkpt>
      <trkpt lat="43.05737" lon="-0.44965">
        <ele>703.34</ele>
        <time>2015-08-29T09:36:59Z</time>
      </trkpt>
      <trkpt lat="43.05743" lon="-0.4497">
        <ele>703.34</ele>
        <time>2015-08-29T09:37:00Z</time>
      </trkpt>
      <trkpt lat="43.05749" lon="-0.44972">
        <ele>702.86</ele>
        <time>2015-08-29T09:37:01Z</time>
      </trkpt>
      <trkpt lat="43.05755" lon="-0.44972">
        <ele>702.38</ele>
        <time>2015-08-29T09:37:02Z</time>
      </trkpt>
      <trkpt lat="43.05762" lon="-0.44971">
        <ele>702.38</ele>
        <time>2015-08-29T09:37:03Z</time>
      </trkpt>
      <trkpt lat="43.05769" lon="-0.44969">
        <ele>702.38</ele>
        <time>2015-08-29T09:37:04Z</time>
      </trkpt>
      <trkpt lat="43.0578" lon="-0.44966">
        <ele>701.9</ele>
        <time>2015-08-29T09:37:06Z</time>
      </trkpt>
      <trkpt lat="43.05799" lon="-0.44961">
        <ele>701.42</ele>
        <time>2015-08-29T09:37:10Z</time>
      </trkpt>
      <trkpt lat="43.05808" lon="-0.44954">
        <ele>700.94</ele>
        <time>2015-08-29T09:37:12Z</time>
      </trkpt>
      <trkpt lat="43.05813" lon="-0.44949">
        <ele>700.94</ele>
        <time>2015-08-29T09:37:13Z</time>
      </trkpt>
      <trkpt lat="43.05818" lon="-0.44945">
        <ele>700.46</ele>
        <time>2015-08-29T09:37:14Z</time>
      </trkpt>
      <trkpt lat="43.0585" lon="-0.44912">
        <ele>698.05</ele>
        <time>2015-08-29T09:37:21Z</time>
      </trkpt>
      <trkpt lat="43.05852" lon="-0.44905">
        <ele>697.57</ele>
        <time>2015-08-29T09:37:22Z</time>
      </trkpt>
      <trkpt lat="43.05857" lon="-0.44889">
        <ele>695.65</ele>
        <time>2015-08-29T09:37:24Z</time>
      </trkpt>
      <trkpt lat="43.05868" lon="-0.44871">
        <ele>693.25</ele>
        <time>2015-08-29T09:37:29Z</time>
      </trkpt>
      <trkpt lat="43.05872" lon="-0.44872">
        <ele>692.29</ele>
        <time>2015-08-29T09:37:30Z</time>
      </trkpt>
      <trkpt lat="43.05877" lon="-0.44873">
        <ele>691.81</ele>
        <time>2015-08-29T09:37:31Z</time>
      </trkpt>
      <trkpt lat="43.05881" lon="-0.44873">
        <ele>691.33</ele>
        <time>2015-08-29T09:37:32Z</time>
      </trkpt>
      <trkpt lat="43.05887" lon="-0.44875">
        <ele>690.36</ele>
        <time>2015-08-29T09:37:33Z</time>
      </trkpt>
      <trkpt lat="43.05892" lon="-0.44876">
        <ele>690.36</ele>
        <time>2015-08-29T09:37:34Z</time>
      </trkpt>
      <trkpt lat="43.05898" lon="-0.44875">
        <ele>689.88</ele>
        <time>2015-08-29T09:37:35Z</time>
      </trkpt>
      <trkpt lat="43.05903" lon="-0.44874">
        <ele>689.4</ele>
        <time>2015-08-29T09:37:36Z</time>
      </trkpt>
      <trkpt lat="43.05907" lon="-0.44871">
        <ele>688.44</ele>
        <time>2015-08-29T09:37:37Z</time>
      </trkpt>
      <trkpt lat="43.05908" lon="-0.44867">
        <ele>687.96</ele>
        <time>2015-08-29T09:37:38Z</time>
      </trkpt>
      <trkpt lat="43.05909" lon="-0.44863">
        <ele>686.04</ele>
        <time>2015-08-29T09:37:39Z</time>
      </trkpt>
      <trkpt lat="43.05909" lon="-0.44858">
        <ele>685.08</ele>
        <time>2015-08-29T09:37:40Z</time>
      </trkpt>
      <trkpt lat="43.0591" lon="-0.44853">
        <ele>684.6</ele>
        <time>2015-08-29T09:37:41Z</time>
      </trkpt>
      <trkpt lat="43.05912" lon="-0.44848">
        <ele>683.63</ele>
        <time>2015-08-29T09:37:42Z</time>
      </trkpt>
      <trkpt lat="43.05914" lon="-0.44843">
        <ele>683.15</ele>
        <time>2015-08-29T09:37:43Z</time>
      </trkpt>
      <trkpt lat="43.05915" lon="-0.44837">
        <ele>682.67</ele>
        <time>2015-08-29T09:37:44Z</time>
      </trkpt>
      <trkpt lat="43.05917" lon="-0.44829">
        <ele>682.19</ele>
        <time>2015-08-29T09:37:45Z</time>
      </trkpt>
      <trkpt lat="43.05918" lon="-0.44823">
        <ele>681.71</ele>
        <time>2015-08-29T09:37:46Z</time>
      </trkpt>
      <trkpt lat="43.05921" lon="-0.4482">
        <ele>681.71</ele>
        <time>2015-08-29T09:37:47Z</time>
      </trkpt>
      <trkpt lat="43.05925" lon="-0.44818">
        <ele>681.23</ele>
        <time>2015-08-29T09:37:48Z</time>
      </trkpt>
      <trkpt lat="43.05929" lon="-0.44817">
        <ele>681.23</ele>
        <time>2015-08-29T09:37:49Z</time>
      </trkpt>
      <trkpt lat="43.06005" lon="-0.44804">
        <ele>675.46</ele>
        <time>2015-08-29T09:38:04Z</time>
      </trkpt>
      <trkpt lat="43.0601" lon="-0.44805">
        <ele>674.98</ele>
        <time>2015-08-29T09:38:05Z</time>
      </trkpt>
      <trkpt lat="43.06015" lon="-0.44808">
        <ele>674.5</ele>
        <time>2015-08-29T09:38:06Z</time>
      </trkpt>
      <trkpt lat="43.06019" lon="-0.44813">
        <ele>673.54</ele>
        <time>2015-08-29T09:38:07Z</time>
      </trkpt>
      <trkpt lat="43.06024" lon="-0.4482">
        <ele>673.06</ele>
        <time>2015-08-29T09:38:08Z</time>
      </trkpt>
      <trkpt lat="43.06033" lon="-0.44832">
        <ele>672.1</ele>
        <time>2015-08-29T09:38:10Z</time>
      </trkpt>
      <trkpt lat="43.06039" lon="-0.44836">
        <ele>671.14</ele>
        <time>2015-08-29T09:38:11Z</time>
      </trkpt>
      <trkpt lat="43.06043" lon="-0.44838">
        <ele>670.66</ele>
        <time>2015-08-29T09:38:12Z</time>
      </trkpt>
      <trkpt lat="43.06047" lon="-0.44838">
        <ele>669.7</ele>
        <time>2015-08-29T09:38:13Z</time>
      </trkpt>
      <trkpt lat="43.06049" lon="-0.44833">
        <ele>669.7</ele>
        <time>2015-08-29T09:38:14Z</time>
      </trkpt>
      <trkpt lat="43.0605" lon="-0.44828">
        <ele>668.73</ele>
        <time>2015-08-29T09:38:15Z</time>
      </trkpt>
      <trkpt lat="43.0605" lon="-0.44822">
        <ele>668.25</ele>
        <time>2015-08-29T09:38:16Z</time>
      </trkpt>
      <trkpt lat="43.0605" lon="-0.44817">
        <ele>667.77</ele>
        <time>2015-08-29T09:38:17Z</time>
      </trkpt>
      <trkpt lat="43.06051" lon="-0.44809">
        <ele>667.29</ele>
        <time>2015-08-29T09:38:18Z</time>
      </trkpt>
      <trkpt lat="43.06054" lon="-0.44799">
        <ele>667.77</ele>
        <time>2015-08-29T09:38:19Z</time>
      </trkpt>
      <trkpt lat="43.06057" lon="-0.44791">
        <ele>667.77</ele>
        <time>2015-08-29T09:38:20Z</time>
      </trkpt>
      <trkpt lat="43.06061" lon="-0.44785">
        <ele>667.29</ele>
        <time>2015-08-29T09:38:21Z</time>
      </trkpt>
      <trkpt lat="43.06065" lon="-0.44779">
        <ele>666.81</ele>
        <time>2015-08-29T09:38:22Z</time>
      </trkpt>
      <trkpt lat="43.06069" lon="-0.44774">
        <ele>666.81</ele>
        <time>2015-08-29T09:38:23Z</time>
      </trkpt>
      <trkpt lat="43.06073" lon="-0.4477">
        <ele>666.33</ele>
        <time>2015-08-29T09:38:24Z</time>
      </trkpt>
      <trkpt lat="43.06081" lon="-0.44762">
        <ele>666.33</ele>
        <time>2015-08-29T09:38:26Z</time>
      </trkpt>
      <trkpt lat="43.06107" lon="-0.44744">
        <ele>665.85</ele>
        <time>2015-08-29T09:38:32Z</time>
      </trkpt>
      <trkpt lat="43.06111" lon="-0.4474">
        <ele>665.85</ele>
        <time>2015-08-29T09:38:33Z</time>
      </trkpt>
      <trkpt lat="43.06114" lon="-0.44735">
        <ele>665.85</ele>
        <time>2015-08-29T09:38:34Z</time>
      </trkpt>
      <trkpt lat="43.06116" lon="-0.44729">
        <ele>665.85</ele>
        <time>2015-08-29T09:38:35Z</time>
      </trkpt>
      <trkpt lat="43.06134" lon="-0.44678">
        <ele>664.89</ele>
        <time>2015-08-29T09:38:44Z</time>
      </trkpt>
      <trkpt lat="43.06134" lon="-0.44672">
        <ele>664.89</ele>
        <time>2015-08-29T09:38:45Z</time>
      </trkpt>
      <trkpt lat="43.06128" lon="-0.44665">
        <ele>664.41</ele>
        <time>2015-08-29T09:38:47Z</time>
      </trkpt>
      <trkpt lat="43.06125" lon="-0.44659">
        <ele>664.41</ele>
        <time>2015-08-29T09:38:48Z</time>
      </trkpt>
      <trkpt lat="43.06125" lon="-0.44652">
        <ele>663.93</ele>
        <time>2015-08-29T09:38:49Z</time>
      </trkpt>
      <trkpt lat="43.06125" lon="-0.44644">
        <ele>663.93</ele>
        <time>2015-08-29T09:38:50Z</time>
      </trkpt>
      <trkpt lat="43.06126" lon="-0.44635">
        <ele>663.93</ele>
        <time>2015-08-29T09:38:51Z</time>
      </trkpt>
      <trkpt lat="43.06128" lon="-0.44626">
        <ele>663.93</ele>
        <time>2015-08-29T09:38:52Z</time>
      </trkpt>
      <trkpt lat="43.0613" lon="-0.44617">
        <ele>663.45</ele>
        <time>2015-08-29T09:38:53Z</time>
      </trkpt>
      <trkpt lat="43.06132" lon="-0.44608">
        <ele>663.45</ele>
        <time>2015-08-29T09:38:54Z</time>
      </trkpt>
      <trkpt lat="43.06133" lon="-0.44598">
        <ele>663.45</ele>
        <time>2015-08-29T09:38:55Z</time>
      </trkpt>
      <trkpt lat="43.06131" lon="-0.44588">
        <ele>662.97</ele>
        <time>2015-08-29T09:38:56Z</time>
      </trkpt>
      <trkpt lat="43.06127" lon="-0.44581">
        <ele>662.49</ele>
        <time>2015-08-29T09:38:57Z</time>
      </trkpt>
      <trkpt lat="43.06122" lon="-0.44574">
        <ele>662.49</ele>
        <time>2015-08-29T09:38:58Z</time>
      </trkpt>
      <trkpt lat="43.06113" lon="-0.44561">
        <ele>662.01</ele>
        <time>2015-08-29T09:39:00Z</time>
      </trkpt>
      <trkpt lat="43.0611" lon="-0.44552">
        <ele>661.52</ele>
        <time>2015-08-29T09:39:01Z</time>
      </trkpt>
      <trkpt lat="43.0611" lon="-0.44542">
        <ele>661.04</ele>
        <time>2015-08-29T09:39:02Z</time>
      </trkpt>
      <trkpt lat="43.06111" lon="-0.44532">
        <ele>661.04</ele>
        <time>2015-08-29T09:39:03Z</time>
      </trkpt>
      <trkpt lat="43.06112" lon="-0.44521">
        <ele>660.56</ele>
        <time>2015-08-29T09:39:04Z</time>
      </trkpt>
      <trkpt lat="43.06118" lon="-0.44466">
        <ele>658.64</ele>
        <time>2015-08-29T09:39:09Z</time>
      </trkpt>
      <trkpt lat="43.06117" lon="-0.44458">
        <ele>658.16</ele>
        <time>2015-08-29T09:39:10Z</time>
      </trkpt>
      <trkpt lat="43.06115" lon="-0.44451">
        <ele>657.68</ele>
        <time>2015-08-29T09:39:11Z</time>
      </trkpt>
      <trkpt lat="43.06111" lon="-0.44447">
        <ele>656.72</ele>
        <time>2015-08-29T09:39:12Z</time>
      </trkpt>
      <trkpt lat="43.06107" lon="-0.44445">
        <ele>656.24</ele>
        <time>2015-08-29T09:39:13Z</time>
      </trkpt>
      <trkpt lat="43.06103" lon="-0.44446">
        <ele>655.28</ele>
        <time>2015-08-29T09:39:14Z</time>
      </trkpt>
      <trkpt lat="43.06099" lon="-0.4445">
        <ele>654.31</ele>
        <time>2015-08-29T09:39:15Z</time>
      </trkpt>
      <trkpt lat="43.06095" lon="-0.44455">
        <ele>653.83</ele>
        <time>2015-08-29T09:39:16Z</time>
      </trkpt>
      <trkpt lat="43.06092" lon="-0.44462">
        <ele>652.87</ele>
        <time>2015-08-29T09:39:17Z</time>
      </trkpt>
      <trkpt lat="43.06089" lon="-0.4447">
        <ele>651.91</ele>
        <time>2015-08-29T09:39:18Z</time>
      </trkpt>
      <trkpt lat="43.06076" lon="-0.44501">
        <ele>648.55</ele>
        <time>2015-08-29T09:39:22Z</time>
      </trkpt>
      <trkpt lat="43.06071" lon="-0.44505">
        <ele>647.59</ele>
        <time>2015-08-29T09:39:23Z</time>
      </trkpt>
      <trkpt lat="43.06066" lon="-0.44506">
        <ele>646.62</ele>
        <time>2015-08-29T09:39:24Z</time>
      </trkpt>
      <trkpt lat="43.06061" lon="-0.44504">
        <ele>646.14</ele>
        <time>2015-08-29T09:39:25Z</time>
      </trkpt>
      <trkpt lat="43.06058" lon="-0.44498">
        <ele>644.22</ele>
        <time>2015-08-29T09:39:26Z</time>
      </trkpt>
      <trkpt lat="43.06057" lon="-0.4449">
        <ele>643.26</ele>
        <time>2015-08-29T09:39:27Z</time>
      </trkpt>
      <trkpt lat="43.06058" lon="-0.44481">
        <ele>642.3</ele>
        <time>2015-08-29T09:39:28Z</time>
      </trkpt>
      <trkpt lat="43.06059" lon="-0.44471">
        <ele>641.34</ele>
        <time>2015-08-29T09:39:29Z</time>
      </trkpt>
      <trkpt lat="43.0606" lon="-0.4446">
        <ele>640.38</ele>
        <time>2015-08-29T09:39:30Z</time>
      </trkpt>
      <trkpt lat="43.06061" lon="-0.44449">
        <ele>638.93</ele>
        <time>2015-08-29T09:39:31Z</time>
      </trkpt>
      <trkpt lat="43.0606" lon="-0.44436">
        <ele>637.97</ele>
        <time>2015-08-29T09:39:32Z</time>
      </trkpt>
      <trkpt lat="43.06059" lon="-0.44361">
        <ele>631.24</ele>
        <time>2015-08-29T09:39:37Z</time>
      </trkpt>
      <trkpt lat="43.06058" lon="-0.44345">
        <ele>630.28</ele>
        <time>2015-08-29T09:39:38Z</time>
      </trkpt>
      <trkpt lat="43.06055" lon="-0.44328">
        <ele>628.36</ele>
        <time>2015-08-29T09:39:39Z</time>
      </trkpt>
      <trkpt lat="43.06047" lon="-0.44295">
        <ele>624.99</ele>
        <time>2015-08-29T09:39:41Z</time>
      </trkpt>
      <trkpt lat="43.06045" lon="-0.44277">
        <ele>623.07</ele>
        <time>2015-08-29T09:39:42Z</time>
      </trkpt>
      <trkpt lat="43.06046" lon="-0.4426">
        <ele>621.63</ele>
        <time>2015-08-29T09:39:43Z</time>
      </trkpt>
      <trkpt lat="43.06048" lon="-0.44242">
        <ele>619.71</ele>
        <time>2015-08-29T09:39:44Z</time>
      </trkpt>
      <trkpt lat="43.06051" lon="-0.44223">
        <ele>617.78</ele>
        <time>2015-08-29T09:39:45Z</time>
      </trkpt>
      <trkpt lat="43.06052" lon="-0.44204">
        <ele>616.34</ele>
        <time>2015-08-29T09:39:46Z</time>
      </trkpt>
      <trkpt lat="43.06052" lon="-0.44185">
        <ele>614.9</ele>
        <time>2015-08-29T09:39:47Z</time>
      </trkpt>
      <trkpt lat="43.06054" lon="-0.44126">
        <ele>609.61</ele>
        <time>2015-08-29T09:39:50Z</time>
      </trkpt>
      <trkpt lat="43.06052" lon="-0.44107">
        <ele>608.17</ele>
        <time>2015-08-29T09:39:51Z</time>
      </trkpt>
      <trkpt lat="43.06049" lon="-0.44087">
        <ele>606.25</ele>
        <time>2015-08-29T09:39:52Z</time>
      </trkpt>
      <trkpt lat="43.06045" lon="-0.44067">
        <ele>603.85</ele>
        <time>2015-08-29T09:39:53Z</time>
      </trkpt>
      <trkpt lat="43.0604" lon="-0.44047">
        <ele>601.92</ele>
        <time>2015-08-29T09:39:54Z</time>
      </trkpt>
      <trkpt lat="43.06037" lon="-0.44026">
        <ele>599.52</ele>
        <time>2015-08-29T09:39:55Z</time>
      </trkpt>
      <trkpt lat="43.06037" lon="-0.44005">
        <ele>597.12</ele>
        <time>2015-08-29T09:39:56Z</time>
      </trkpt>
      <trkpt lat="43.06038" lon="-0.43985">
        <ele>595.19</ele>
        <time>2015-08-29T09:39:57Z</time>
      </trkpt>
      <trkpt lat="43.0604" lon="-0.43965">
        <ele>593.75</ele>
        <time>2015-08-29T09:39:58Z</time>
      </trkpt>
      <trkpt lat="43.06043" lon="-0.43947">
        <ele>591.83</ele>
        <time>2015-08-29T09:39:59Z</time>
      </trkpt>
      <trkpt lat="43.06049" lon="-0.4393">
        <ele>590.39</ele>
        <time>2015-08-29T09:40:00Z</time>
      </trkpt>
      <trkpt lat="43.06056" lon="-0.43916">
        <ele>588.95</ele>
        <time>2015-08-29T09:40:01Z</time>
      </trkpt>
      <trkpt lat="43.06066" lon="-0.43904">
        <ele>587.5</ele>
        <time>2015-08-29T09:40:02Z</time>
      </trkpt>
      <trkpt lat="43.06076" lon="-0.43893">
        <ele>586.06</ele>
        <time>2015-08-29T09:40:03Z</time>
      </trkpt>
      <trkpt lat="43.06088" lon="-0.43882">
        <ele>584.62</ele>
        <time>2015-08-29T09:40:04Z</time>
      </trkpt>
      <trkpt lat="43.06165" lon="-0.43794">
        <ele>572.6</ele>
        <time>2015-08-29T09:40:12Z</time>
      </trkpt>
      <trkpt lat="43.06191" lon="-0.43759">
        <ele>571.64</ele>
        <time>2015-08-29T09:40:15Z</time>
      </trkpt>
      <trkpt lat="43.06208" lon="-0.43741">
        <ele>571.64</ele>
        <time>2015-08-29T09:40:17Z</time>
      </trkpt>
      <trkpt lat="43.06215" lon="-0.43731">
        <ele>571.64</ele>
        <time>2015-08-29T09:40:18Z</time>
      </trkpt>
      <trkpt lat="43.06263" lon="-0.43636">
        <ele>570.68</ele>
        <time>2015-08-29T09:40:28Z</time>
      </trkpt>
      <trkpt lat="43.0627" lon="-0.43628">
        <ele>570.68</ele>
        <time>2015-08-29T09:40:29Z</time>
      </trkpt>
      <trkpt lat="43.06277" lon="-0.43621">
        <ele>570.68</ele>
        <time>2015-08-29T09:40:30Z</time>
      </trkpt>
      <trkpt lat="43.06284" lon="-0.43614">
        <ele>570.68</ele>
        <time>2015-08-29T09:40:31Z</time>
      </trkpt>
      <trkpt lat="43.06337" lon="-0.43584">
        <ele>570.68</ele>
        <time>2015-08-29T09:40:37Z</time>
      </trkpt>
      <trkpt lat="43.06345" lon="-0.43577">
        <ele>570.68</ele>
        <time>2015-08-29T09:40:38Z</time>
      </trkpt>
      <trkpt lat="43.06353" lon="-0.4357">
        <ele>570.68</ele>
        <time>2015-08-29T09:40:39Z</time>
      </trkpt>
      <trkpt lat="43.06351" lon="-0.43564">
        <ele>570.2</ele>
        <time>2015-08-29T09:40:40Z</time>
      </trkpt>
      <trkpt lat="43.06346" lon="-0.43559">
        <ele>570.2</ele>
        <time>2015-08-29T09:40:41Z</time>
      </trkpt>
      <trkpt lat="43.06341" lon="-0.43555">
        <ele>569.72</ele>
        <time>2015-08-29T09:40:42Z</time>
      </trkpt>
      <trkpt lat="43.06335" lon="-0.43552">
        <ele>569.72</ele>
        <time>2015-08-29T09:40:43Z</time>
      </trkpt>
      <trkpt lat="43.0633" lon="-0.43549">
        <ele>569.72</ele>
        <time>2015-08-29T09:40:44Z</time>
      </trkpt>
      <trkpt lat="43.06325" lon="-0.43544">
        <ele>569.24</ele>
        <time>2015-08-29T09:40:45Z</time>
      </trkpt>
      <trkpt lat="43.06321" lon="-0.43539">
        <ele>568.76</ele>
        <time>2015-08-29T09:40:46Z</time>
      </trkpt>
      <trkpt lat="43.0632" lon="-0.43533">
        <ele>568.76</ele>
        <time>2015-08-29T09:40:47Z</time>
      </trkpt>
      <trkpt lat="43.0632" lon="-0.43527">
        <ele>568.28</ele>
        <time>2015-08-29T09:40:48Z</time>
      </trkpt>
      <trkpt lat="43.0632" lon="-0.43521">
        <ele>568.28</ele>
        <time>2015-08-29T09:40:49Z</time>
      </trkpt>
      <trkpt lat="43.06321" lon="-0.43517">
        <ele>567.8</ele>
        <time>2015-08-29T09:40:50Z</time>
      </trkpt>
      <trkpt lat="43.06322" lon="-0.43514">
        <ele>567.8</ele>
        <time>2015-08-29T09:40:51Z</time>
      </trkpt>
      <trkpt lat="43.06323" lon="-0.43512">
        <ele>567.32</ele>
        <time>2015-08-29T09:40:52Z</time>
      </trkpt>
      <trkpt lat="43.06324" lon="-0.43515">
        <ele>564.43</ele>
        <time>2015-08-29T09:41:01Z</time>
      </trkpt>
      <trkpt lat="43.06322" lon="-0.43516">
        <ele>561.07</ele>
        <time>2015-08-29T09:41:19Z</time>
      </trkpt>
      <trkpt lat="43.06323" lon="-0.4351">
        <ele>561.07</ele>
        <time>2015-08-29T09:41:22Z</time>
      </trkpt>
      <trkpt lat="43.06324" lon="-0.43508">
        <ele>561.55</ele>
        <time>2015-08-29T09:41:23Z</time>
      </trkpt>
      <trkpt lat="43.06326" lon="-0.43505">
        <ele>561.55</ele>
        <time>2015-08-29T09:41:24Z</time>
      </trkpt>
      <trkpt lat="43.06327" lon="-0.43502">
        <ele>561.55</ele>
        <time>2015-08-29T09:41:25Z</time>
      </trkpt>
      <trkpt lat="43.06329" lon="-0.43499">
        <ele>561.55</ele>
        <time>2015-08-29T09:41:26Z</time>
      </trkpt>
      <trkpt lat="43.0633" lon="-0.43495">
        <ele>562.03</ele>
        <time>2015-08-29T09:41:27Z</time>
      </trkpt>
      <trkpt lat="43.06331" lon="-0.4349">
        <ele>562.03</ele>
        <time>2015-08-29T09:41:28Z</time>
      </trkpt>
      <trkpt lat="43.06349" lon="-0.43441">
        <ele>563.95</ele>
        <time>2015-08-29T09:41:37Z</time>
      </trkpt>
      <trkpt lat="43.06352" lon="-0.43436">
        <ele>563.95</ele>
        <time>2015-08-29T09:41:38Z</time>
      </trkpt>
      <trkpt lat="43.06369" lon="-0.43413">
        <ele>564.91</ele>
        <time>2015-08-29T09:41:43Z</time>
      </trkpt>
      <trkpt lat="43.06372" lon="-0.43407">
        <ele>564.91</ele>
        <time>2015-08-29T09:41:44Z</time>
      </trkpt>
      <trkpt lat="43.0638" lon="-0.43388">
        <ele>565.39</ele>
        <time>2015-08-29T09:41:47Z</time>
      </trkpt>
      <trkpt lat="43.06382" lon="-0.4338">
        <ele>564.91</ele>
        <time>2015-08-29T09:41:48Z</time>
      </trkpt>
      <trkpt lat="43.06386" lon="-0.43361">
        <ele>564.43</ele>
        <time>2015-08-29T09:41:50Z</time>
      </trkpt>
      <trkpt lat="43.06389" lon="-0.43351">
        <ele>564.43</ele>
        <time>2015-08-29T09:41:51Z</time>
      </trkpt>
      <trkpt lat="43.06399" lon="-0.43316">
        <ele>563.47</ele>
        <time>2015-08-29T09:41:54Z</time>
      </trkpt>
      <trkpt lat="43.06401" lon="-0.43302">
        <ele>562.99</ele>
        <time>2015-08-29T09:41:55Z</time>
      </trkpt>
      <trkpt lat="43.06402" lon="-0.43288">
        <ele>562.99</ele>
        <time>2015-08-29T09:41:56Z</time>
      </trkpt>
      <trkpt lat="43.06402" lon="-0.43253">
        <ele>562.03</ele>
        <time>2015-08-29T09:41:59Z</time>
      </trkpt>
      <trkpt lat="43.06405" lon="-0.43244">
        <ele>562.03</ele>
        <time>2015-08-29T09:42:00Z</time>
      </trkpt>
      <trkpt lat="43.06409" lon="-0.43236">
        <ele>562.03</ele>
        <time>2015-08-29T09:42:01Z</time>
      </trkpt>
      <trkpt lat="43.06415" lon="-0.43231">
        <ele>561.55</ele>
        <time>2015-08-29T09:42:02Z</time>
      </trkpt>
      <trkpt lat="43.06429" lon="-0.4322">
        <ele>561.55</ele>
        <time>2015-08-29T09:42:04Z</time>
      </trkpt>
      <trkpt lat="43.06435" lon="-0.43212">
        <ele>561.07</ele>
        <time>2015-08-29T09:42:05Z</time>
      </trkpt>
      <trkpt lat="43.0644" lon="-0.43203">
        <ele>561.07</ele>
        <time>2015-08-29T09:42:06Z</time>
      </trkpt>
      <trkpt lat="43.06458" lon="-0.43175">
        <ele>560.59</ele>
        <time>2015-08-29T09:42:09Z</time>
      </trkpt>
      <trkpt lat="43.06465" lon="-0.43167">
        <ele>560.59</ele>
        <time>2015-08-29T09:42:10Z</time>
      </trkpt>
      <trkpt lat="43.06489" lon="-0.43143">
        <ele>559.62</ele>
        <time>2015-08-29T09:42:14Z</time>
      </trkpt>
      <trkpt lat="43.06538" lon="-0.43084">
        <ele>558.66</ele>
        <time>2015-08-29T09:42:23Z</time>
      </trkpt>
      <trkpt lat="43.06578" lon="-0.43017">
        <ele>557.7</ele>
        <time>2015-08-29T09:42:31Z</time>
      </trkpt>
      <trkpt lat="43.06581" lon="-0.43006">
        <ele>557.22</ele>
        <time>2015-08-29T09:42:33Z</time>
      </trkpt>
      <trkpt lat="43.0658" lon="-0.43002">
        <ele>557.22</ele>
        <time>2015-08-29T09:42:34Z</time>
      </trkpt>
      <trkpt lat="43.06576" lon="-0.43">
        <ele>556.74</ele>
        <time>2015-08-29T09:42:35Z</time>
      </trkpt>
      <trkpt lat="43.06572" lon="-0.43">
        <ele>556.74</ele>
        <time>2015-08-29T09:42:36Z</time>
      </trkpt>
      <trkpt lat="43.06568" lon="-0.43002">
        <ele>556.74</ele>
        <time>2015-08-29T09:42:37Z</time>
      </trkpt>
      <trkpt lat="43.06525" lon="-0.43041">
        <ele>554.34</ele>
        <time>2015-08-29T09:42:47Z</time>
      </trkpt>
      <trkpt lat="43.06513" lon="-0.43047">
        <ele>553.86</ele>
        <time>2015-08-29T09:42:49Z</time>
      </trkpt>
      <trkpt lat="43.06507" lon="-0.43046">
        <ele>553.38</ele>
        <time>2015-08-29T09:42:50Z</time>
      </trkpt>
      <trkpt lat="43.06503" lon="-0.43043">
        <ele>553.38</ele>
        <time>2015-08-29T09:42:51Z</time>
      </trkpt>
      <trkpt lat="43.065" lon="-0.43038">
        <ele>552.9</ele>
        <time>2015-08-29T09:42:52Z</time>
      </trkpt>
      <trkpt lat="43.06498" lon="-0.43033">
        <ele>552.9</ele>
        <time>2015-08-29T09:42:53Z</time>
      </trkpt>
      <trkpt lat="43.06498" lon="-0.43028">
        <ele>552.41</ele>
        <time>2015-08-29T09:42:54Z</time>
      </trkpt>
      <trkpt lat="43.06499" lon="-0.43023">
        <ele>551.93</ele>
        <time>2015-08-29T09:42:55Z</time>
      </trkpt>
      <trkpt lat="43.06504" lon="-0.43024">
        <ele>548.57</ele>
        <time>2015-08-29T09:43:03Z</time>
      </trkpt>
      <trkpt lat="43.06508" lon="-0.43027">
        <ele>542.8</ele>
        <time>2015-08-29T09:43:15Z</time>
      </trkpt>
      <trkpt lat="43.06509" lon="-0.43025">
        <ele>542.32</ele>
        <time>2015-08-29T09:43:16Z</time>
      </trkpt>
      <trkpt lat="43.06512" lon="-0.43022">
        <ele>541.84</ele>
        <time>2015-08-29T09:43:17Z</time>
      </trkpt>
      <trkpt lat="43.06514" lon="-0.43019">
        <ele>541.36</ele>
        <time>2015-08-29T09:43:18Z</time>
      </trkpt>
      <trkpt lat="43.06517" lon="-0.43013">
        <ele>541.36</ele>
        <time>2015-08-29T09:43:19Z</time>
      </trkpt>
      <trkpt lat="43.06521" lon="-0.43007">
        <ele>540.88</ele>
        <time>2015-08-29T09:43:20Z</time>
      </trkpt>
      <trkpt lat="43.06525" lon="-0.43001">
        <ele>540.4</ele>
        <time>2015-08-29T09:43:21Z</time>
      </trkpt>
      <trkpt lat="43.06531" lon="-0.42996">
        <ele>540.4</ele>
        <time>2015-08-29T09:43:22Z</time>
      </trkpt>
      <trkpt lat="43.0658" lon="-0.42936">
        <ele>538.48</ele>
        <time>2015-08-29T09:43:30Z</time>
      </trkpt>
      <trkpt lat="43.0662" lon="-0.42869">
        <ele>537.99</ele>
        <time>2015-08-29T09:43:39Z</time>
      </trkpt>
      <trkpt lat="43.06614" lon="-0.42828">
        <ele>537.51</ele>
        <time>2015-08-29T09:43:42Z</time>
      </trkpt>
      <trkpt lat="43.06618" lon="-0.42806">
        <ele>537.03</ele>
        <time>2015-08-29T09:43:44Z</time>
      </trkpt>
      <trkpt lat="43.06621" lon="-0.42795">
        <ele>537.03</ele>
        <time>2015-08-29T09:43:45Z</time>
      </trkpt>
      <trkpt lat="43.06628" lon="-0.42774">
        <ele>536.55</ele>
        <time>2015-08-29T09:43:47Z</time>
      </trkpt>
      <trkpt lat="43.0664" lon="-0.42731">
        <ele>536.55</ele>
        <time>2015-08-29T09:43:51Z</time>
      </trkpt>
      <trkpt lat="43.06644" lon="-0.42721">
        <ele>536.55</ele>
        <time>2015-08-29T09:43:52Z</time>
      </trkpt>
      <trkpt lat="43.06649" lon="-0.42711">
        <ele>536.55</ele>
        <time>2015-08-29T09:43:53Z</time>
      </trkpt>
      <trkpt lat="43.06677" lon="-0.42676">
        <ele>536.55</ele>
        <time>2015-08-29T09:43:57Z</time>
      </trkpt>
      <trkpt lat="43.06695" lon="-0.42646">
        <ele>536.07</ele>
        <time>2015-08-29T09:44:00Z</time>
      </trkpt>
      <trkpt lat="43.06708" lon="-0.42633">
        <ele>536.07</ele>
        <time>2015-08-29T09:44:02Z</time>
      </trkpt>
      <trkpt lat="43.06728" lon="-0.42617">
        <ele>535.59</ele>
        <time>2015-08-29T09:44:05Z</time>
      </trkpt>
      <trkpt lat="43.06743" lon="-0.42591">
        <ele>535.59</ele>
        <time>2015-08-29T09:44:08Z</time>
      </trkpt>
      <trkpt lat="43.06746" lon="-0.4258">
        <ele>535.59</ele>
        <time>2015-08-29T09:44:09Z</time>
      </trkpt>
      <trkpt lat="43.06789" lon="-0.42483">
        <ele>533.67</ele>
        <time>2015-08-29T09:44:19Z</time>
      </trkpt>
      <trkpt lat="43.06794" lon="-0.42478">
        <ele>533.19</ele>
        <time>2015-08-29T09:44:20Z</time>
      </trkpt>
      <trkpt lat="43.068" lon="-0.42476">
        <ele>532.71</ele>
        <time>2015-08-29T09:44:21Z</time>
      </trkpt>
      <trkpt lat="43.06805" lon="-0.42475">
        <ele>532.71</ele>
        <time>2015-08-29T09:44:22Z</time>
      </trkpt>
      <trkpt lat="43.06812" lon="-0.42475">
        <ele>532.71</ele>
        <time>2015-08-29T09:44:23Z</time>
      </trkpt>
      <trkpt lat="43.06827" lon="-0.42478">
        <ele>531.27</ele>
        <time>2015-08-29T09:44:25Z</time>
      </trkpt>
      <trkpt lat="43.06834" lon="-0.42476">
        <ele>531.27</ele>
        <time>2015-08-29T09:44:26Z</time>
      </trkpt>
      <trkpt lat="43.06844" lon="-0.42468">
        <ele>530.79</ele>
        <time>2015-08-29T09:44:28Z</time>
      </trkpt>
      <trkpt lat="43.06847" lon="-0.42462">
        <ele>530.3</ele>
        <time>2015-08-29T09:44:29Z</time>
      </trkpt>
      <trkpt lat="43.06847" lon="-0.42455">
        <ele>530.3</ele>
        <time>2015-08-29T09:44:30Z</time>
      </trkpt>
      <trkpt lat="43.06845" lon="-0.4245">
        <ele>529.34</ele>
        <time>2015-08-29T09:44:31Z</time>
      </trkpt>
      <trkpt lat="43.06841" lon="-0.42446">
        <ele>528.86</ele>
        <time>2015-08-29T09:44:32Z</time>
      </trkpt>
      <trkpt lat="43.06835" lon="-0.42445">
        <ele>527.9</ele>
        <time>2015-08-29T09:44:33Z</time>
      </trkpt>
      <trkpt lat="43.0683" lon="-0.42445">
        <ele>527.9</ele>
        <time>2015-08-29T09:44:34Z</time>
      </trkpt>
      <trkpt lat="43.06825" lon="-0.42444">
        <ele>527.42</ele>
        <time>2015-08-29T09:44:35Z</time>
      </trkpt>
      <trkpt lat="43.06821" lon="-0.42441">
        <ele>526.94</ele>
        <time>2015-08-29T09:44:36Z</time>
      </trkpt>
      <trkpt lat="43.06819" lon="-0.42436">
        <ele>525.98</ele>
        <time>2015-08-29T09:44:37Z</time>
      </trkpt>
      <trkpt lat="43.06818" lon="-0.42431">
        <ele>525.5</ele>
        <time>2015-08-29T09:44:38Z</time>
      </trkpt>
      <trkpt lat="43.0682" lon="-0.42425">
        <ele>525.02</ele>
        <time>2015-08-29T09:44:39Z</time>
      </trkpt>
      <trkpt lat="43.06822" lon="-0.42419">
        <ele>524.54</ele>
        <time>2015-08-29T09:44:40Z</time>
      </trkpt>
      <trkpt lat="43.06825" lon="-0.42415">
        <ele>524.54</ele>
        <time>2015-08-29T09:44:41Z</time>
      </trkpt>
      <trkpt lat="43.06874" lon="-0.42394">
        <ele>516.85</ele>
        <time>2015-08-29T09:44:51Z</time>
      </trkpt>
      <trkpt lat="43.06876" lon="-0.42392">
        <ele>511.08</ele>
        <time>2015-08-29T09:45:01Z</time>
      </trkpt>
      <trkpt lat="43.0688" lon="-0.42389">
        <ele>497.62</ele>
        <time>2015-08-29T09:45:25Z</time>
      </trkpt>
      <trkpt lat="43.06882" lon="-0.42389">
        <ele>496.66</ele>
        <time>2015-08-29T09:45:26Z</time>
      </trkpt>
      <trkpt lat="43.06884" lon="-0.42389">
        <ele>495.7</ele>
        <time>2015-08-29T09:45:27Z</time>
      </trkpt>
      <trkpt lat="43.06945" lon="-0.42377">
        <ele>482.24</ele>
        <time>2015-08-29T09:45:40Z</time>
      </trkpt>
      <trkpt lat="43.07016" lon="-0.42351">
        <ele>475.03</ele>
        <time>2015-08-29T09:45:55Z</time>
      </trkpt>
      <trkpt lat="43.0702" lon="-0.42348">
        <ele>474.55</ele>
        <time>2015-08-29T09:45:56Z</time>
      </trkpt>
      <trkpt lat="43.07046" lon="-0.42331">
        <ele>472.14</ele>
        <time>2015-08-29T09:46:02Z</time>
      </trkpt>
      <trkpt lat="43.07106" lon="-0.42285">
        <ele>469.74</ele>
        <time>2015-08-29T09:46:17Z</time>
      </trkpt>
      <trkpt lat="43.07108" lon="-0.42281">
        <ele>469.74</ele>
        <time>2015-08-29T09:46:18Z</time>
      </trkpt>
      <trkpt lat="43.0711" lon="-0.42276">
        <ele>469.26</ele>
        <time>2015-08-29T09:46:19Z</time>
      </trkpt>
      <trkpt lat="43.07111" lon="-0.4227">
        <ele>468.78</ele>
        <time>2015-08-29T09:46:20Z</time>
      </trkpt>
      <trkpt lat="43.07114" lon="-0.42266">
        <ele>468.3</ele>
        <time>2015-08-29T09:46:21Z</time>
      </trkpt>
      <trkpt lat="43.07117" lon="-0.42263">
        <ele>468.3</ele>
        <time>2015-08-29T09:46:22Z</time>
      </trkpt>
      <trkpt lat="43.07121" lon="-0.4226">
        <ele>467.82</ele>
        <time>2015-08-29T09:46:23Z</time>
      </trkpt>
      <trkpt lat="43.07125" lon="-0.42256">
        <ele>467.82</ele>
        <time>2015-08-29T09:46:24Z</time>
      </trkpt>
      <trkpt lat="43.07184" lon="-0.42208">
        <ele>463.97</ele>
        <time>2015-08-29T09:46:37Z</time>
      </trkpt>
      <trkpt lat="43.07264" lon="-0.42149">
        <ele>461.09</ele>
        <time>2015-08-29T09:46:53Z</time>
      </trkpt>
      <trkpt lat="43.07349" lon="-0.42125">
        <ele>457.24</ele>
        <time>2015-08-29T09:47:08Z</time>
      </trkpt>
      <trkpt lat="43.07429" lon="-0.42132">
        <ele>454.84</ele>
        <time>2015-08-29T09:47:22Z</time>
      </trkpt>
      <trkpt lat="43.07519" lon="-0.42152">
        <ele>451.96</ele>
        <time>2015-08-29T09:47:38Z</time>
      </trkpt>
      <trkpt lat="43.07591" lon="-0.42167">
        <ele>450.52</ele>
        <time>2015-08-29T09:47:51Z</time>
      </trkpt>
      <trkpt lat="43.07659" lon="-0.42171">
        <ele>449.55</ele>
        <time>2015-08-29T09:48:03Z</time>
      </trkpt>
      <trkpt lat="43.07665" lon="-0.42171">
        <ele>449.55</ele>
        <time>2015-08-29T09:48:04Z</time>
      </trkpt>
      <trkpt lat="43.0767" lon="-0.42171">
        <ele>449.55</ele>
        <time>2015-08-29T09:48:05Z</time>
      </trkpt>
      <trkpt lat="43.07682" lon="-0.4217">
        <ele>449.55</ele>
        <time>2015-08-29T09:48:07Z</time>
      </trkpt>
      <trkpt lat="43.07688" lon="-0.42169">
        <ele>449.55</ele>
        <time>2015-08-29T09:48:08Z</time>
      </trkpt>
      <trkpt lat="43.07705" lon="-0.42167">
        <ele>449.55</ele>
        <time>2015-08-29T09:48:11Z</time>
      </trkpt>
      <trkpt lat="43.07792" lon="-0.42157">
        <ele>448.11</ele>
        <time>2015-08-29T09:48:26Z</time>
      </trkpt>
      <trkpt lat="43.0788" lon="-0.42149">
        <ele>447.15</ele>
        <time>2015-08-29T09:48:42Z</time>
      </trkpt>
      <trkpt lat="43.07904" lon="-0.42147">
        <ele>446.19</ele>
        <time>2015-08-29T09:48:46Z</time>
      </trkpt>
      <trkpt lat="43.0791" lon="-0.42147">
        <ele>445.71</ele>
        <time>2015-08-29T09:48:47Z</time>
      </trkpt>
      <trkpt lat="43.07965" lon="-0.42141">
        <ele>442.82</ele>
        <time>2015-08-29T09:48:57Z</time>
      </trkpt>
      <trkpt lat="43.07969" lon="-0.42142">
        <ele>442.82</ele>
        <time>2015-08-29T09:48:58Z</time>
      </trkpt>
      <trkpt lat="43.07972" lon="-0.42144">
        <ele>442.34</ele>
        <time>2015-08-29T09:48:59Z</time>
      </trkpt>
      <trkpt lat="43.07973" lon="-0.42146">
        <ele>441.86</ele>
        <time>2015-08-29T09:49:00Z</time>
      </trkpt>
      <trkpt lat="43.07975" lon="-0.42148">
        <ele>441.38</ele>
        <time>2015-08-29T09:49:01Z</time>
      </trkpt>
      <trkpt lat="43.07979" lon="-0.42152">
        <ele>440.42</ele>
        <time>2015-08-29T09:49:04Z</time>
      </trkpt>
      <trkpt lat="43.07979" lon="-0.4216">
        <ele>431.29</ele>
        <time>2015-08-29T09:50:23Z</time>
      </trkpt>
      <trkpt lat="43.0798" lon="-0.4217">
        <ele>431.77</ele>
        <time>2015-08-29T09:50:38Z</time>
      </trkpt>
      <trkpt lat="43.07984" lon="-0.42178">
        <ele>435.13</ele>
        <time>2015-08-29T09:50:54Z</time>
      </trkpt>
      <trkpt lat="43.07991" lon="-0.4219">
        <ele>438.02</ele>
        <time>2015-08-29T09:51:07Z</time>
      </trkpt>
      <trkpt lat="43.07995" lon="-0.42195">
        <ele>441.86</ele>
        <time>2015-08-29T09:51:25Z</time>
      </trkpt>
      <trkpt lat="43.08" lon="-0.422">
        <ele>446.19</ele>
        <time>2015-08-29T09:51:40Z</time>
      </trkpt>
      <trkpt lat="43.08012" lon="-0.42213">
        <ele>448.11</ele>
        <time>2015-08-29T09:51:56Z</time>
      </trkpt>
      <trkpt lat="43.0802" lon="-0.42235">
        <ele>451.48</ele>
        <time>2015-08-29T09:52:06Z</time>
      </trkpt>
      <trkpt lat="43.08021" lon="-0.42256">
        <ele>455.8</ele>
        <time>2015-08-29T09:52:16Z</time>
      </trkpt>
      <trkpt lat="43.08023" lon="-0.42259">
        <ele>455.8</ele>
        <time>2015-08-29T09:52:18Z</time>
      </trkpt>
      <trkpt lat="43.08031" lon="-0.42276">
        <ele>457.72</ele>
        <time>2015-08-29T09:52:26Z</time>
      </trkpt>
      <trkpt lat="43.08033" lon="-0.42286">
        <ele>458.21</ele>
        <time>2015-08-29T09:52:31Z</time>
      </trkpt>
      <trkpt lat="43.08041" lon="-0.42301">
        <ele>457.24</ele>
        <time>2015-08-29T09:52:39Z</time>
      </trkpt>
      <trkpt lat="43.08063" lon="-0.42322">
        <ele>456.76</ele>
        <time>2015-08-29T09:52:52Z</time>
      </trkpt>
      <trkpt lat="43.08076" lon="-0.42335">
        <ele>457.24</ele>
        <time>2015-08-29T09:52:58Z</time>
      </trkpt>
      <trkpt lat="43.08081" lon="-0.42349">
        <ele>456.76</ele>
        <time>2015-08-29T09:53:02Z</time>
      </trkpt>
      <trkpt lat="43.08087" lon="-0.42366">
        <ele>456.28</ele>
        <time>2015-08-29T09:53:08Z</time>
      </trkpt>
      <trkpt lat="43.08088" lon="-0.42401">
        <ele>453.88</ele>
        <time>2015-08-29T09:53:18Z</time>
      </trkpt>
      <trkpt lat="43.08087" lon="-0.42408">
        <ele>453.4</ele>
        <time>2015-08-29T09:53:20Z</time>
      </trkpt>
      <trkpt lat="43.08101" lon="-0.42434">
        <ele>452.92</ele>
        <time>2015-08-29T09:53:27Z</time>
      </trkpt>
      <trkpt lat="43.08101" lon="-0.42441">
        <ele>452.92</ele>
        <time>2015-08-29T09:53:30Z</time>
      </trkpt>
      <trkpt lat="43.08081" lon="-0.42454">
        <ele>453.4</ele>
        <time>2015-08-29T09:53:40Z</time>
      </trkpt>
      <trkpt lat="43.0808" lon="-0.4246">
        <ele>452.92</ele>
        <time>2015-08-29T09:53:42Z</time>
      </trkpt>
      <trkpt lat="43.0807" lon="-0.42493">
        <ele>452.92</ele>
        <time>2015-08-29T09:53:51Z</time>
      </trkpt>
      <trkpt lat="43.08066" lon="-0.42501">
        <ele>453.4</ele>
        <time>2015-08-29T09:53:55Z</time>
      </trkpt>
      <trkpt lat="43.08065" lon="-0.42512">
        <ele>454.36</ele>
        <time>2015-08-29T09:54:08Z</time>
      </trkpt>
      <trkpt lat="43.08068" lon="-0.42523">
        <ele>453.88</ele>
        <time>2015-08-29T09:54:23Z</time>
      </trkpt>
      <trkpt lat="43.08078" lon="-0.42539">
        <ele>452.92</ele>
        <time>2015-08-29T09:54:28Z</time>
      </trkpt>
      <trkpt lat="43.08106" lon="-0.42589">
        <ele>452.92</ele>
        <time>2015-08-29T09:54:41Z</time>
      </trkpt>
      <trkpt lat="43.08127" lon="-0.42635">
        <ele>452.44</ele>
        <time>2015-08-29T09:54:51Z</time>
      </trkpt>
      <trkpt lat="43.08129" lon="-0.42641">
        <ele>452.92</ele>
        <time>2015-08-29T09:55:06Z</time>
      </trkpt>
      <trkpt lat="43.08131" lon="-0.42644">
        <ele>452.92</ele>
        <time>2015-08-29T09:55:08Z</time>
      </trkpt>
      <trkpt lat="43.08135" lon="-0.42652">
        <ele>454.36</ele>
        <time>2015-08-29T09:55:13Z</time>
      </trkpt>
      <trkpt lat="43.08138" lon="-0.42669">
        <ele>456.76</ele>
        <time>2015-08-29T09:55:19Z</time>
      </trkpt>
      <trkpt lat="43.08138" lon="-0.42678">
        <ele>459.17</ele>
        <time>2015-08-29T09:55:23Z</time>
      </trkpt>
      <trkpt lat="43.08141" lon="-0.4269">
        <ele>463.97</ele>
        <time>2015-08-29T09:55:30Z</time>
      </trkpt>
      <trkpt lat="43.08142" lon="-0.42696">
        <ele>465.42</ele>
        <time>2015-08-29T09:55:33Z</time>
      </trkpt>
      <trkpt lat="43.08137" lon="-0.42731">
        <ele>473.59</ele>
        <time>2015-08-29T09:55:45Z</time>
      </trkpt>
      <trkpt lat="43.08136" lon="-0.42742">
        <ele>474.07</ele>
        <time>2015-08-29T09:55:49Z</time>
      </trkpt>
      <trkpt lat="43.08141" lon="-0.42751">
        <ele>473.59</ele>
        <time>2015-08-29T09:55:50Z</time>
      </trkpt>
      <trkpt lat="43.08155" lon="-0.42783">
        <ele>472.63</ele>
        <time>2015-08-29T09:55:55Z</time>
      </trkpt>
      <trkpt lat="43.08157" lon="-0.42788">
        <ele>472.63</ele>
        <time>2015-08-29T09:55:56Z</time>
      </trkpt>
      <trkpt lat="43.08159" lon="-0.42793">
        <ele>472.63</ele>
        <time>2015-08-29T09:55:57Z</time>
      </trkpt>
      <trkpt lat="43.08162" lon="-0.42798">
        <ele>472.63</ele>
        <time>2015-08-29T09:55:58Z</time>
      </trkpt>
      <trkpt lat="43.08166" lon="-0.42801">
        <ele>472.63</ele>
        <time>2015-08-29T09:55:59Z</time>
      </trkpt>
      <trkpt lat="43.0817" lon="-0.42805">
        <ele>472.63</ele>
        <time>2015-08-29T09:56:00Z</time>
      </trkpt>
      <trkpt lat="43.08198" lon="-0.42829">
        <ele>472.14</ele>
        <time>2015-08-29T09:56:09Z</time>
      </trkpt>
      <trkpt lat="43.08221" lon="-0.42842">
        <ele>472.14</ele>
        <time>2015-08-29T09:56:15Z</time>
      </trkpt>
      <trkpt lat="43.08226" lon="-0.42846">
        <ele>472.63</ele>
        <time>2015-08-29T09:56:16Z</time>
      </trkpt>
      <trkpt lat="43.08229" lon="-0.4285">
        <ele>473.11</ele>
        <time>2015-08-29T09:56:17Z</time>
      </trkpt>
      <trkpt lat="43.08232" lon="-0.42855">
        <ele>473.11</ele>
        <time>2015-08-29T09:56:18Z</time>
      </trkpt>
      <trkpt lat="43.08234" lon="-0.42861">
        <ele>472.63</ele>
        <time>2015-08-29T09:56:19Z</time>
      </trkpt>
      <trkpt lat="43.08236" lon="-0.42867">
        <ele>472.63</ele>
        <time>2015-08-29T09:56:20Z</time>
      </trkpt>
      <trkpt lat="43.08236" lon="-0.42874">
        <ele>472.63</ele>
        <time>2015-08-29T09:56:21Z</time>
      </trkpt>
      <trkpt lat="43.08237" lon="-0.4288">
        <ele>472.63</ele>
        <time>2015-08-29T09:56:22Z</time>
      </trkpt>
      <trkpt lat="43.08247" lon="-0.42931">
        <ele>468.78</ele>
        <time>2015-08-29T09:56:33Z</time>
      </trkpt>
      <trkpt lat="43.08271" lon="-0.42954">
        <ele>464.45</ele>
        <time>2015-08-29T09:56:43Z</time>
      </trkpt>
      <trkpt lat="43.08293" lon="-0.42975">
        <ele>461.57</ele>
        <time>2015-08-29T09:56:54Z</time>
      </trkpt>
      <trkpt lat="43.08293" lon="-0.42978">
        <ele>461.57</ele>
        <time>2015-08-29T09:56:55Z</time>
      </trkpt>
      <trkpt lat="43.08306" lon="-0.43015">
        <ele>459.65</ele>
        <time>2015-08-29T09:57:08Z</time>
      </trkpt>
      <trkpt lat="43.08317" lon="-0.43045">
        <ele>460.61</ele>
        <time>2015-08-29T09:57:20Z</time>
      </trkpt>
      <trkpt lat="43.08326" lon="-0.43081">
        <ele>460.13</ele>
        <time>2015-08-29T09:57:35Z</time>
      </trkpt>
      <trkpt lat="43.08327" lon="-0.43083">
        <ele>460.61</ele>
        <time>2015-08-29T09:57:36Z</time>
      </trkpt>
      <trkpt lat="43.08328" lon="-0.43085">
        <ele>460.61</ele>
        <time>2015-08-29T09:57:37Z</time>
      </trkpt>
      <trkpt lat="43.08329" lon="-0.43087">
        <ele>460.61</ele>
        <time>2015-08-29T09:57:38Z</time>
      </trkpt>
      <trkpt lat="43.0833" lon="-0.43089">
        <ele>460.61</ele>
        <time>2015-08-29T09:57:39Z</time>
      </trkpt>
      <trkpt lat="43.08345" lon="-0.43119">
        <ele>462.53</ele>
        <time>2015-08-29T09:57:50Z</time>
      </trkpt>
      <trkpt lat="43.08363" lon="-0.43163">
        <ele>459.17</ele>
        <time>2015-08-29T09:58:00Z</time>
      </trkpt>
      <trkpt lat="43.08366" lon="-0.43167">
        <ele>459.65</ele>
        <time>2015-08-29T09:58:01Z</time>
      </trkpt>
      <trkpt lat="43.08369" lon="-0.43172">
        <ele>459.65</ele>
        <time>2015-08-29T09:58:02Z</time>
      </trkpt>
      <trkpt lat="43.08377" lon="-0.43186">
        <ele>459.17</ele>
        <time>2015-08-29T09:58:04Z</time>
      </trkpt>
      <trkpt lat="43.08386" lon="-0.43216">
        <ele>458.69</ele>
        <time>2015-08-29T09:58:07Z</time>
      </trkpt>
      <trkpt lat="43.08389" lon="-0.43225">
        <ele>458.69</ele>
        <time>2015-08-29T09:58:08Z</time>
      </trkpt>
      <trkpt lat="43.0841" lon="-0.43297">
        <ele>457.24</ele>
        <time>2015-08-29T09:58:18Z</time>
      </trkpt>
      <trkpt lat="43.08414" lon="-0.43341">
        <ele>454.36</ele>
        <time>2015-08-29T09:58:29Z</time>
      </trkpt>
      <trkpt lat="43.08426" lon="-0.43399">
        <ele>453.88</ele>
        <time>2015-08-29T09:58:40Z</time>
      </trkpt>
      <trkpt lat="43.08431" lon="-0.43423">
        <ele>452.92</ele>
        <time>2015-08-29T09:58:49Z</time>
      </trkpt>
      <trkpt lat="43.08432" lon="-0.43426">
        <ele>452.44</ele>
        <time>2015-08-29T09:58:59Z</time>
      </trkpt>
      <trkpt lat="43.08432" lon="-0.43426">
        <ele>451.48</ele>
        <time>2015-08-29T09:59:14Z</time>
      </trkpt>
      <trkpt lat="43.08433" lon="-0.43429">
        <ele>451.48</ele>
        <time>2015-08-29T09:59:19Z</time>
      </trkpt>
      <trkpt lat="43.08433" lon="-0.43431">
        <ele>451.48</ele>
        <time>2015-08-29T09:59:20Z</time>
      </trkpt>
      <trkpt lat="43.08433" lon="-0.43434">
        <ele>451.48</ele>
        <time>2015-08-29T09:59:21Z</time>
      </trkpt>
      <trkpt lat="43.0844" lon="-0.43465">
        <ele>451.48</ele>
        <time>2015-08-29T09:59:33Z</time>
      </trkpt>
      <trkpt lat="43.08457" lon="-0.43503">
        <ele>449.07</ele>
        <time>2015-08-29T09:59:44Z</time>
      </trkpt>
      <trkpt lat="43.08491" lon="-0.43516">
        <ele>447.15</ele>
        <time>2015-08-29T09:59:54Z</time>
      </trkpt>
      <trkpt lat="43.08505" lon="-0.43555">
        <ele>446.67</ele>
        <time>2015-08-29T10:00:04Z</time>
      </trkpt>
      <trkpt lat="43.08532" lon="-0.43617">
        <ele>444.75</ele>
        <time>2015-08-29T10:00:19Z</time>
      </trkpt>
      <trkpt lat="43.08544" lon="-0.43642">
        <ele>443.79</ele>
        <time>2015-08-29T10:00:25Z</time>
      </trkpt>
      <trkpt lat="43.08562" lon="-0.43648">
        <ele>443.79</ele>
        <time>2015-08-29T10:00:30Z</time>
      </trkpt>
      <trkpt lat="43.08579" lon="-0.43649">
        <ele>442.82</ele>
        <time>2015-08-29T10:00:34Z</time>
      </trkpt>
      <trkpt lat="43.08613" lon="-0.43642">
        <ele>442.82</ele>
        <time>2015-08-29T10:00:41Z</time>
      </trkpt>
      <trkpt lat="43.08617" lon="-0.4364">
        <ele>442.82</ele>
        <time>2015-08-29T10:00:42Z</time>
      </trkpt>
      <trkpt lat="43.08621" lon="-0.43638">
        <ele>442.34</ele>
        <time>2015-08-29T10:00:43Z</time>
      </trkpt>
      <trkpt lat="43.08646" lon="-0.43619">
        <ele>441.86</ele>
        <time>2015-08-29T10:00:49Z</time>
      </trkpt>
      <trkpt lat="43.0866" lon="-0.43604">
        <ele>441.38</ele>
        <time>2015-08-29T10:00:53Z</time>
      </trkpt>
      <trkpt lat="43.08663" lon="-0.43601">
        <ele>440.9</ele>
        <time>2015-08-29T10:00:54Z</time>
      </trkpt>
      <trkpt lat="43.08667" lon="-0.43599">
        <ele>440.9</ele>
        <time>2015-08-29T10:00:55Z</time>
      </trkpt>
      <trkpt lat="43.08671" lon="-0.43597">
        <ele>440.42</ele>
        <time>2015-08-29T10:00:56Z</time>
      </trkpt>
      <trkpt lat="43.08675" lon="-0.43596">
        <ele>440.42</ele>
        <time>2015-08-29T10:00:57Z</time>
      </trkpt>
      <trkpt lat="43.0874" lon="-0.43551">
        <ele>439.94</ele>
        <time>2015-08-29T10:01:13Z</time>
      </trkpt>
      <trkpt lat="43.08747" lon="-0.43545">
        <ele>439.46</ele>
        <time>2015-08-29T10:01:15Z</time>
      </trkpt>
      <trkpt lat="43.088" lon="-0.4351">
        <ele>438.98</ele>
        <time>2015-08-29T10:01:28Z</time>
      </trkpt>
      <trkpt lat="43.08804" lon="-0.43509">
        <ele>438.98</ele>
        <time>2015-08-29T10:01:29Z</time>
      </trkpt>
      <trkpt lat="43.08808" lon="-0.43508">
        <ele>438.98</ele>
        <time>2015-08-29T10:01:30Z</time>
      </trkpt>
      <trkpt lat="43.08812" lon="-0.43509">
        <ele>438.5</ele>
        <time>2015-08-29T10:01:31Z</time>
      </trkpt>
      <trkpt lat="43.08815" lon="-0.43512">
        <ele>438.98</ele>
        <time>2015-08-29T10:01:32Z</time>
      </trkpt>
      <trkpt lat="43.08817" lon="-0.43517">
        <ele>438.98</ele>
        <time>2015-08-29T10:01:33Z</time>
      </trkpt>
      <trkpt lat="43.08817" lon="-0.43522">
        <ele>438.98</ele>
        <time>2015-08-29T10:01:34Z</time>
      </trkpt>
      <trkpt lat="43.08817" lon="-0.43526">
        <ele>438.98</ele>
        <time>2015-08-29T10:01:35Z</time>
      </trkpt>
      <trkpt lat="43.08817" lon="-0.43531">
        <ele>438.98</ele>
        <time>2015-08-29T10:01:36Z</time>
      </trkpt>
      <trkpt lat="43.08817" lon="-0.43535">
        <ele>438.98</ele>
        <time>2015-08-29T10:01:37Z</time>
      </trkpt>
      <trkpt lat="43.08816" lon="-0.4354">
        <ele>438.98</ele>
        <time>2015-08-29T10:01:38Z</time>
      </trkpt>
      <trkpt lat="43.08814" lon="-0.43566">
        <ele>437.54</ele>
        <time>2015-08-29T10:01:43Z</time>
      </trkpt>
      <trkpt lat="43.08787" lon="-0.43651">
        <ele>435.13</ele>
        <time>2015-08-29T10:01:59Z</time>
      </trkpt>
      <trkpt lat="43.08766" lon="-0.43741">
        <ele>436.58</ele>
        <time>2015-08-29T10:02:15Z</time>
      </trkpt>
      <trkpt lat="43.08743" lon="-0.43852">
        <ele>437.06</ele>
        <time>2015-08-29T10:02:33Z</time>
      </trkpt>
      <trkpt lat="43.08717" lon="-0.43957">
        <ele>437.54</ele>
        <time>2015-08-29T10:02:49Z</time>
      </trkpt>
      <trkpt lat="43.08691" lon="-0.44044">
        <ele>438.5</ele>
        <time>2015-08-29T10:03:03Z</time>
      </trkpt>
      <trkpt lat="43.08657" lon="-0.44165">
        <ele>438.5</ele>
        <time>2015-08-29T10:03:21Z</time>
      </trkpt>
      <trkpt lat="43.08642" lon="-0.44209">
        <ele>437.54</ele>
        <time>2015-08-29T10:03:28Z</time>
      </trkpt>
      <trkpt lat="43.08616" lon="-0.44304">
        <ele>436.58</ele>
        <time>2015-08-29T10:03:43Z</time>
      </trkpt>
      <trkpt lat="43.0861" lon="-0.44363">
        <ele>436.58</ele>
        <time>2015-08-29T10:03:53Z</time>
      </trkpt>
      <trkpt lat="43.08623" lon="-0.44407">
        <ele>436.1</ele>
        <time>2015-08-29T10:04:00Z</time>
      </trkpt>
      <trkpt lat="43.08625" lon="-0.44413">
        <ele>436.1</ele>
        <time>2015-08-29T10:04:01Z</time>
      </trkpt>
      <trkpt lat="43.08627" lon="-0.4442">
        <ele>436.1</ele>
        <time>2015-08-29T10:04:02Z</time>
      </trkpt>
      <trkpt lat="43.08629" lon="-0.44426">
        <ele>436.1</ele>
        <time>2015-08-29T10:04:03Z</time>
      </trkpt>
      <trkpt lat="43.08632" lon="-0.44431">
        <ele>436.1</ele>
        <time>2015-08-29T10:04:04Z</time>
      </trkpt>
      <trkpt lat="43.08635" lon="-0.44437">
        <ele>436.1</ele>
        <time>2015-08-29T10:04:05Z</time>
      </trkpt>
      <trkpt lat="43.08639" lon="-0.44442">
        <ele>436.1</ele>
        <time>2015-08-29T10:04:06Z</time>
      </trkpt>
      <trkpt lat="43.08642" lon="-0.44447">
        <ele>435.61</ele>
        <time>2015-08-29T10:04:07Z</time>
      </trkpt>
      <trkpt lat="43.08663" lon="-0.44479">
        <ele>436.58</ele>
        <time>2015-08-29T10:04:13Z</time>
      </trkpt>
      <trkpt lat="43.08668" lon="-0.44483">
        <ele>436.58</ele>
        <time>2015-08-29T10:04:14Z</time>
      </trkpt>
      <trkpt lat="43.08673" lon="-0.44485">
        <ele>436.58</ele>
        <time>2015-08-29T10:04:15Z</time>
      </trkpt>
      <trkpt lat="43.08691" lon="-0.44494">
        <ele>436.58</ele>
        <time>2015-08-29T10:04:19Z</time>
      </trkpt>
      <trkpt lat="43.08696" lon="-0.44498">
        <ele>437.06</ele>
        <time>2015-08-29T10:04:20Z</time>
      </trkpt>
      <trkpt lat="43.08699" lon="-0.44503">
        <ele>437.06</ele>
        <time>2015-08-29T10:04:21Z</time>
      </trkpt>
      <trkpt lat="43.08706" lon="-0.44515">
        <ele>437.06</ele>
        <time>2015-08-29T10:04:23Z</time>
      </trkpt>
      <trkpt lat="43.08708" lon="-0.44523">
        <ele>437.06</ele>
        <time>2015-08-29T10:04:25Z</time>
      </trkpt>
      <trkpt lat="43.08707" lon="-0.44526">
        <ele>437.06</ele>
        <time>2015-08-29T10:04:26Z</time>
      </trkpt>
      <trkpt lat="43.08707" lon="-0.44573">
        <ele>438.5</ele>
        <time>2015-08-29T10:04:36Z</time>
      </trkpt>
      <trkpt lat="43.08709" lon="-0.44578">
        <ele>438.5</ele>
        <time>2015-08-29T10:04:37Z</time>
      </trkpt>
      <trkpt lat="43.08711" lon="-0.44582">
        <ele>438.5</ele>
        <time>2015-08-29T10:04:38Z</time>
      </trkpt>
      <trkpt lat="43.08715" lon="-0.44585">
        <ele>438.5</ele>
        <time>2015-08-29T10:04:39Z</time>
      </trkpt>
      <trkpt lat="43.08719" lon="-0.44589">
        <ele>438.98</ele>
        <time>2015-08-29T10:04:40Z</time>
      </trkpt>
      <trkpt lat="43.08722" lon="-0.44593">
        <ele>438.98</ele>
        <time>2015-08-29T10:04:41Z</time>
      </trkpt>
      <trkpt lat="43.08727" lon="-0.44596">
        <ele>438.98</ele>
        <time>2015-08-29T10:04:42Z</time>
      </trkpt>
      <trkpt lat="43.08731" lon="-0.446">
        <ele>438.98</ele>
        <time>2015-08-29T10:04:43Z</time>
      </trkpt>
      <trkpt lat="43.08736" lon="-0.44603">
        <ele>438.98</ele>
        <time>2015-08-29T10:04:44Z</time>
      </trkpt>
      <trkpt lat="43.08748" lon="-0.44614">
        <ele>438.98</ele>
        <time>2015-08-29T10:04:47Z</time>
      </trkpt>
      <trkpt lat="43.08752" lon="-0.44618">
        <ele>438.98</ele>
        <time>2015-08-29T10:04:48Z</time>
      </trkpt>
      <trkpt lat="43.08754" lon="-0.44623">
        <ele>439.46</ele>
        <time>2015-08-29T10:04:49Z</time>
      </trkpt>
      <trkpt lat="43.08756" lon="-0.44628">
        <ele>439.46</ele>
        <time>2015-08-29T10:04:50Z</time>
      </trkpt>
      <trkpt lat="43.08756" lon="-0.44633">
        <ele>439.46</ele>
        <time>2015-08-29T10:04:51Z</time>
      </trkpt>
      <trkpt lat="43.08756" lon="-0.44639">
        <ele>439.46</ele>
        <time>2015-08-29T10:04:52Z</time>
      </trkpt>
      <trkpt lat="43.08757" lon="-0.44682">
        <ele>439.94</ele>
        <time>2015-08-29T10:04:59Z</time>
      </trkpt>
      <trkpt lat="43.08761" lon="-0.44758">
        <ele>440.9</ele>
        <time>2015-08-29T10:05:12Z</time>
      </trkpt>
      <trkpt lat="43.08763" lon="-0.44763">
        <ele>440.9</ele>
        <time>2015-08-29T10:05:13Z</time>
      </trkpt>
      <trkpt lat="43.08765" lon="-0.44768">
        <ele>441.38</ele>
        <time>2015-08-29T10:05:14Z</time>
      </trkpt>
      <trkpt lat="43.08768" lon="-0.4478">
        <ele>441.86</ele>
        <time>2015-08-29T10:05:16Z</time>
      </trkpt>
      <trkpt lat="43.08779" lon="-0.44817">
        <ele>444.27</ele>
        <time>2015-08-29T10:05:24Z</time>
      </trkpt>
      <trkpt lat="43.0878" lon="-0.44819">
        <ele>444.27</ele>
        <time>2015-08-29T10:05:25Z</time>
      </trkpt>
      <trkpt lat="43.08782" lon="-0.44821">
        <ele>444.75</ele>
        <time>2015-08-29T10:05:26Z</time>
      </trkpt>
      <trkpt lat="43.08785" lon="-0.44825">
        <ele>445.23</ele>
        <time>2015-08-29T10:05:27Z</time>
      </trkpt>
      <trkpt lat="43.08789" lon="-0.44829">
        <ele>445.23</ele>
        <time>2015-08-29T10:05:28Z</time>
      </trkpt>
      <trkpt lat="43.08815" lon="-0.44877">
        <ele>443.79</ele>
        <time>2015-08-29T10:05:39Z</time>
      </trkpt>
      <trkpt lat="43.08816" lon="-0.44881">
        <ele>443.79</ele>
        <time>2015-08-29T10:05:40Z</time>
      </trkpt>
      <trkpt lat="43.08816" lon="-0.4493">
        <ele>443.79</ele>
        <time>2015-08-29T10:05:52Z</time>
      </trkpt>
      <trkpt lat="43.08843" lon="-0.44944">
        <ele>443.79</ele>
        <time>2015-08-29T10:06:01Z</time>
      </trkpt>
      <trkpt lat="43.08854" lon="-0.44947">
        <ele>443.79</ele>
        <time>2015-08-29T10:06:04Z</time>
      </trkpt>
      <trkpt lat="43.08856" lon="-0.44968">
        <ele>443.79</ele>
        <time>2015-08-29T10:06:09Z</time>
      </trkpt>
      <trkpt lat="43.08857" lon="-0.44972">
        <ele>443.79</ele>
        <time>2015-08-29T10:06:12Z</time>
      </trkpt>
      <trkpt lat="43.0889" lon="-0.44972">
        <ele>444.75</ele>
        <time>2015-08-29T10:06:26Z</time>
      </trkpt>
      <trkpt lat="43.08912" lon="-0.44964">
        <ele>444.75</ele>
        <time>2015-08-29T10:06:33Z</time>
      </trkpt>
      <trkpt lat="43.08917" lon="-0.44962">
        <ele>445.23</ele>
        <time>2015-08-29T10:06:34Z</time>
      </trkpt>
      <trkpt lat="43.08922" lon="-0.44957">
        <ele>445.23</ele>
        <time>2015-08-29T10:06:35Z</time>
      </trkpt>
      <trkpt lat="43.08926" lon="-0.44952">
        <ele>445.23</ele>
        <time>2015-08-29T10:06:36Z</time>
      </trkpt>
      <trkpt lat="43.08931" lon="-0.44949">
        <ele>444.75</ele>
        <time>2015-08-29T10:06:37Z</time>
      </trkpt>
      <trkpt lat="43.08935" lon="-0.44947">
        <ele>444.75</ele>
        <time>2015-08-29T10:06:38Z</time>
      </trkpt>
      <trkpt lat="43.08939" lon="-0.44945">
        <ele>444.75</ele>
        <time>2015-08-29T10:06:39Z</time>
      </trkpt>
      <trkpt lat="43.08973" lon="-0.44927">
        <ele>443.79</ele>
        <time>2015-08-29T10:06:50Z</time>
      </trkpt>
      <trkpt lat="43.09009" lon="-0.44906">
        <ele>443.31</ele>
        <time>2015-08-29T10:06:59Z</time>
      </trkpt>
      <trkpt lat="43.09013" lon="-0.44904">
        <ele>443.31</ele>
        <time>2015-08-29T10:07:00Z</time>
      </trkpt>
      <trkpt lat="43.09017" lon="-0.44901">
        <ele>443.31</ele>
        <time>2015-08-29T10:07:01Z</time>
      </trkpt>
      <trkpt lat="43.09021" lon="-0.44897">
        <ele>443.31</ele>
        <time>2015-08-29T10:07:02Z</time>
      </trkpt>
      <trkpt lat="43.09023" lon="-0.44894">
        <ele>443.31</ele>
        <time>2015-08-29T10:07:03Z</time>
      </trkpt>
      <trkpt lat="43.09051" lon="-0.44846">
        <ele>443.31</ele>
        <time>2015-08-29T10:07:16Z</time>
      </trkpt>
      <trkpt lat="43.09075" lon="-0.4479">
        <ele>442.82</ele>
        <time>2015-08-29T10:07:30Z</time>
      </trkpt>
      <trkpt lat="43.09076" lon="-0.44783">
        <ele>443.31</ele>
        <time>2015-08-29T10:07:31Z</time>
      </trkpt>
      <trkpt lat="43.09085" lon="-0.44747">
        <ele>443.79</ele>
        <time>2015-08-29T10:07:36Z</time>
      </trkpt>
      <trkpt lat="43.09088" lon="-0.4474">
        <ele>443.79</ele>
        <time>2015-08-29T10:07:37Z</time>
      </trkpt>
      <trkpt lat="43.09132" lon="-0.44681">
        <ele>443.79</ele>
        <time>2015-08-29T10:07:48Z</time>
      </trkpt>
      <trkpt lat="43.09174" lon="-0.44632">
        <ele>443.31</ele>
        <time>2015-08-29T10:07:59Z</time>
      </trkpt>
      <trkpt lat="43.09178" lon="-0.4463">
        <ele>443.31</ele>
        <time>2015-08-29T10:08:00Z</time>
      </trkpt>
      <trkpt lat="43.09202" lon="-0.44619">
        <ele>442.82</ele>
        <time>2015-08-29T10:08:05Z</time>
      </trkpt>
      <trkpt lat="43.09207" lon="-0.44618">
        <ele>442.82</ele>
        <time>2015-08-29T10:08:06Z</time>
      </trkpt>
      <trkpt lat="43.09211" lon="-0.44617">
        <ele>442.82</ele>
        <time>2015-08-29T10:08:07Z</time>
      </trkpt>
      <trkpt lat="43.09272" lon="-0.44606">
        <ele>441.38</ele>
        <time>2015-08-29T10:08:21Z</time>
      </trkpt>
      <trkpt lat="43.09289" lon="-0.44595">
        <ele>440.9</ele>
        <time>2015-08-29T10:08:25Z</time>
      </trkpt>
      <trkpt lat="43.09294" lon="-0.44592">
        <ele>440.42</ele>
        <time>2015-08-29T10:08:26Z</time>
      </trkpt>
      <trkpt lat="43.09298" lon="-0.44589">
        <ele>440.42</ele>
        <time>2015-08-29T10:08:27Z</time>
      </trkpt>
      <trkpt lat="43.09331" lon="-0.44569">
        <ele>438.5</ele>
        <time>2015-08-29T10:08:34Z</time>
      </trkpt>
      <trkpt lat="43.09336" lon="-0.44566">
        <ele>438.5</ele>
        <time>2015-08-29T10:08:35Z</time>
      </trkpt>
      <trkpt lat="43.09365" lon="-0.44548">
        <ele>437.06</ele>
        <time>2015-08-29T10:08:40Z</time>
      </trkpt>
      <trkpt lat="43.09442" lon="-0.44511">
        <ele>431.77</ele>
        <time>2015-08-29T10:08:51Z</time>
      </trkpt>
      <trkpt lat="43.09456" lon="-0.44508">
        <ele>431.29</ele>
        <time>2015-08-29T10:08:53Z</time>
      </trkpt>
      <trkpt lat="43.09463" lon="-0.44509">
        <ele>430.81</ele>
        <time>2015-08-29T10:08:54Z</time>
      </trkpt>
      <trkpt lat="43.0947" lon="-0.4451">
        <ele>430.33</ele>
        <time>2015-08-29T10:08:55Z</time>
      </trkpt>
      <trkpt lat="43.09477" lon="-0.44509">
        <ele>429.85</ele>
        <time>2015-08-29T10:08:56Z</time>
      </trkpt>
      <trkpt lat="43.09484" lon="-0.44508">
        <ele>429.37</ele>
        <time>2015-08-29T10:08:57Z</time>
      </trkpt>
      <trkpt lat="43.09491" lon="-0.44507">
        <ele>429.37</ele>
        <time>2015-08-29T10:08:58Z</time>
      </trkpt>
      <trkpt lat="43.09579" lon="-0.44492">
        <ele>426</ele>
        <time>2015-08-29T10:09:11Z</time>
      </trkpt>
      <trkpt lat="43.09585" lon="-0.44489">
        <ele>425.52</ele>
        <time>2015-08-29T10:09:12Z</time>
      </trkpt>
      <trkpt lat="43.09591" lon="-0.44485">
        <ele>424.56</ele>
        <time>2015-08-29T10:09:13Z</time>
      </trkpt>
      <trkpt lat="43.09596" lon="-0.44479">
        <ele>424.08</ele>
        <time>2015-08-29T10:09:14Z</time>
      </trkpt>
      <trkpt lat="43.09601" lon="-0.44473">
        <ele>423.12</ele>
        <time>2015-08-29T10:09:15Z</time>
      </trkpt>
      <trkpt lat="43.09627" lon="-0.44444">
        <ele>420.71</ele>
        <time>2015-08-29T10:09:20Z</time>
      </trkpt>
      <trkpt lat="43.09633" lon="-0.44441">
        <ele>419.75</ele>
        <time>2015-08-29T10:09:21Z</time>
      </trkpt>
      <trkpt lat="43.09639" lon="-0.4444">
        <ele>419.27</ele>
        <time>2015-08-29T10:09:22Z</time>
      </trkpt>
      <trkpt lat="43.09645" lon="-0.44439">
        <ele>418.79</ele>
        <time>2015-08-29T10:09:23Z</time>
      </trkpt>
      <trkpt lat="43.09651" lon="-0.44438">
        <ele>417.83</ele>
        <time>2015-08-29T10:09:24Z</time>
      </trkpt>
      <trkpt lat="43.09657" lon="-0.44439">
        <ele>417.83</ele>
        <time>2015-08-29T10:09:25Z</time>
      </trkpt>
      <trkpt lat="43.09678" lon="-0.4444">
        <ele>415.91</ele>
        <time>2015-08-29T10:09:29Z</time>
      </trkpt>
      <trkpt lat="43.09687" lon="-0.44444">
        <ele>414.95</ele>
        <time>2015-08-29T10:09:31Z</time>
      </trkpt>
      <trkpt lat="43.0972" lon="-0.44456">
        <ele>412.06</ele>
        <time>2015-08-29T10:09:39Z</time>
      </trkpt>
      <trkpt lat="43.09725" lon="-0.44456">
        <ele>412.06</ele>
        <time>2015-08-29T10:09:40Z</time>
      </trkpt>
      <trkpt lat="43.09815" lon="-0.44442">
        <ele>410.62</ele>
        <time>2015-08-29T10:09:58Z</time>
      </trkpt>
      <trkpt lat="43.09898" lon="-0.444">
        <ele>409.66</ele>
        <time>2015-08-29T10:10:14Z</time>
      </trkpt>
      <trkpt lat="43.09959" lon="-0.44343">
        <ele>406.29</ele>
        <time>2015-08-29T10:10:27Z</time>
      </trkpt>
      <trkpt lat="43.0999" lon="-0.44321">
        <ele>405.33</ele>
        <time>2015-08-29T10:10:33Z</time>
      </trkpt>
    </trkseg>
  </trk>
</gpx>